[[{"header":{"parameterUnit":"m.s-1","parameterCategory":1,"la1":30.6,"la2":28.766,"lo1":-90.7593,"lo2":-88.6598,"dx":0.0162,"dy":0.0183,"nx":116,"ny":114,"refTime":"2023-01-21T06:00:00:Z","depth":0,"parameterNumber":2,"parameterNumberName":"U-component_of_WINDS"},"data":[0.0,0.0,0.0,0.0,0.0,0.0,0.0,0.0,0.0,0.0,0.0,0.0,0.0,0.0,0.0,0.0,0.0,0.0,0.0,0.0,0.0,0.0,0.0,0.0,0.0,0.0,0.0,0.0,0.0,0.0,0.0,0.0,0.0,0.0,0.0,0.0,0.0,0.0,0.0,0.0,0.0,0.0,0.0,0.0,0.0,0.0,0.0,0.0,0.0,0.0,0.0,0.0,0.0,0.0,0.0,0.0,0.0,0.0,0.0,0.0,0.0,0.0,0.0,0.0,0.0,0.0,0.0,0.0,0.0,0.0,0.0,0.0,0.0,0.0,0.0,0.0,0.0,0.0,0.0,0.0,0.0,0.0,0.0,0.0,0.0,0.0,0.0,0.0,0.0,0.0,0.0,0.0,0.0,0.0,0.0,0.0,0.0,0.0,0.0,0.0,0.0,0.0,0.0,0.0,0.0,0.0,0.0,0.0,0.0,0.0,0.0,0.0,0.0,0.0,0.0,0.0,0.0,0.0,0.0,0.0,0.0,0.0,0.0,0.0,0.0,0.0,0.0,0.0,0.0,0.0,0.0,0.0,0.0,0.0,0.0,0.0,0.0,0.0,0.0,0.0,0.0,0.0,0.0,0.0,0.0,0.0,0.0,0.0,0.0,0.0,0.0,0.0,0.0,0.0,0.0,0.0,0.0,0.0,0.0,0.0,0.0,0.0,0.0,0.0,0.0,0.0,0.0,0.0,0.0,0.0,0.0,0.0,0.0,0.0,0.0,0.0,0.0,0.0,0.0,0.0,0.0,0.0,0.0,0.0,0.0,0.0,0.0,0.0,0.0,0.0,0.0,0.0,0.0,0.0,0.0,0.0,0.0,0.0,0.0,0.0,0.0,0.0,0.0,0.0,0.0,0.0,0.0,0.0,0.0,0.0,0.0,0.0,0.0,0.0,0.0,0.0,0.0,0.0,0.0,0.0,0.0,0.0,0.0,0.0,0.0,0.0,0.0,0.0,0.0,0.0,0.0,0.0,0.0,0.0,0.0,0.0,0.0,0.0,0.0,0.0,0.0,0.0,0.0,0.0,0.0,0.0,0.0,0.0,0.0,0.0,0.0,0.0,0.0,0.0,0.0,0.0,0.0,0.0,0.0,0.0,0.0,0.0,0.0,0.0,0.0,0.0,0.0,0.0,0.0,0.0,0.0,0.0,0.0,0.0,0.0,0.0,0.0,0.0,0.0,0.0,0.0,0.0,0.0,0.0,0.0,0.0,0.0,0.0,0.0,0.0,0.0,0.0,0.0,0.0,0.0,0.0,0.0,0.0,0.0,0.0,0.0,0.0,0.0,0.0,0.0,0.0,0.0,0.0,0.0,0.0,0.0,0.0,0.0,0.0,0.0,0.0,0.0,0.0,0.0,0.0,0.0,0.0,0.0,0.0,0.0,0.0,0.0,0.0,0.0,0.0,0.0,0.0,0.0,0.0,0.0,0.0,0.0,0.0,0.0,0.0,0.0,0.0,0.0,0.0,0.0,0.0,0.0,0.0,0.0,0.0,0.0,0.0,0.0,0.0,0.0,0.0,0.0,0.0,0.0,0.0,0.0,0.0,0.0,0.0,0.0,0.0,0.0,0.0,0.0,0.0,0.0,0.0,0.0,0.0,0.0,0.0,0.0,0.0,0.0,0.0,0.0,0.0,0.0,0.0,0.0,0.0,0.0,0.0,0.0,0.0,0.0,0.0,0.0,0.0,0.0,0.0,0.0,0.0,0.0,0.0,0.0,0.0,0.0,0.0,0.0,0.0,0.0,0.0,0.0,0.0,0.0,0.0,0.0,0.0,0.0,0.0,0.0,0.0,0.0,0.0,0.0,0.0,0.0,0.0,0.0,0.0,0.0,0.0,0.0,0.0,0.0,0.0,0.0,0.0,0.0,0.0,0.0,0.0,0.0,0.0,0.0,0.0,0.0,0.0,0.0,0.0,0.0,0.0,0.0,0.0,0.0,0.0,0.0,0.0,0.0,0.0,0.0,0.0,0.0,0.0,0.0,0.0,0.0,0.0,0.0,0.0,0.0,0.0,0.0,0.0,0.0,0.0,0.0,0.0,0.0,0.0,0.0,0.0,0.0,0.0,0.0,0.0,0.0,0.0,0.0,0.0,0.0,0.0,0.0,0.0,0.0,0.0,0.0,0.0,0.0,0.0,0.0,0.0,0.0,0.0,0.0,0.0,0.0,0.0,0.0,0.0,0.0,0.0,0.0,0.0,0.0,0.0,0.0,0.0,0.0,0.0,0.0,0.0,0.0,0.0,0.0,0.0,0.0,0.0,0.0,0.0,0.0,0.0,0.0,0.0,0.0,0.0,0.0,0.0,0.0,0.0,0.0,0.0,0.0,0.0,0.0,0.0,0.0,0.0,0.0,0.0,0.0,0.0,0.0,0.0,0.0,0.0,0.0,0.0,0.0,0.0,0.0,0.0,0.0,0.0,0.0,0.0,0.0,0.0,0.0,0.0,0.0,0.0,0.0,0.0,0.0,0.0,0.0,0.0,0.0,0.0,0.0,0.0,0.0,0.0,0.0,0.0,0.0,0.0,0.0,0.0,0.0,0.0,0.0,0.0,0.0,0.0,0.0,0.0,0.0,0.0,0.0,0.0,0.0,0.0,0.0,0.0,0.0,0.0,0.0,0.0,0.0,0.0,0.0,0.0,0.0,0.0,0.0,0.0,0.0,0.0,0.0,0.0,0.0,0.0,0.0,0.0,0.0,0.0,0.0,0.0,0.0,0.0,0.0,0.0,0.0,0.0,0.0,0.0,0.0,0.0,0.0,0.0,0.0,0.0,0.0,0.0,0.0,0.0,0.0,0.0,0.0,0.0,0.0,0.0,0.0,0.0,0.0,0.0,0.0,0.0,0.0,0.0,0.0,0.0,0.0,0.0,0.0,0.0,0.0,0.0,0.0,0.0,0.0,0.0,0.0,0.0,0.0,0.0,0.0,0.0,0.0,0.0,0.0,0.0,0.0,0.0,0.0,0.0,0.0,0.0,0.0,0.0,0.0,0.0,0.0,0.0,0.0,0.0,0.0,0.0,0.0,0.0,0.0,0.0,0.0,0.0,0.0,0.0,0.0,0.0,0.0,0.0,0.0,0.0,0.0,0.0,0.0,0.0,0.0,0.0,0.0,0.0,0.0,0.0,0.0,0.0,0.0,0.0,0.0,0.0,0.0,0.0,0.0,0.0,0.0,0.0,0.0,0.0,0.0,0.0,0.0,0.0,0.0,0.0,0.0,0.0,0.0,0.0,0.0,0.0,0.0,0.0,0.0,0.0,0.0,0.0,0.0,0.0,0.0,0.0,0.0,0.0,0.0,0.0,0.0,0.0,0.0,0.0,0.0,0.0,0.0,0.0,0.0,0.0,0.0,0.0,0.0,0.0,0.0,0.0,0.0,0.0,0.0,0.0,0.0,0.0,0.0,0.0,0.0,0.0,0.0,0.0,0.0,0.0,0.0,0.0,0.0,0.0,0.0,0.0,0.0,0.0,0.0,0.0,0.0,0.0,0.0,0.0,0.0,0.0,0.0,0.0,0.0,0.0,0.0,0.0,0.0,0.0,0.0,0.0,0.0,0.0,0.0,0.0,0.0,0.0,0.0,0.0,0.0,0.0,0.0,0.0,0.0,0.0,0.0,0.0,0.0,0.0,0.0,0.0,0.0,0.0,0.0,0.0,0.0,0.0,0.0,0.0,0.0,0.0,0.0,0.0,0.0,0.0,0.0,0.0,0.0,0.0,0.0,0.0,0.0,0.0,0.0,0.0,0.0,0.0,0.0,0.0,0.0,0.0,0.0,0.0,0.0,0.0,0.0,0.0,0.0,0.0,0.0,0.0,0.0,0.0,0.0,0.0,0.0,0.0,0.0,0.0,0.0,0.0,0.0,0.0,0.0,0.0,0.0,0.0,0.0,0.0,0.0,0.0,0.0,0.0,0.0,0.0,0.0,0.0,0.0,0.0,0.0,0.0,0.0,0.0,0.0,0.0,0.0,0.0,0.0,0.0,0.0,0.0,0.0,0.0,0.0,0.0,0.0,0.0,0.0,0.0,0.0,0.0,0.0,0.0,0.0,0.0,0.0,0.0,0.0,0.0,0.0,0.0,0.0,0.0,0.0,0.0,0.0,0.0,0.0,0.0,0.0,0.0,0.0,0.0,0.0,0.0,0.0,0.0,0.0,0.0,0.0,0.0,0.0,0.0,0.0,0.0,0.0,0.0,0.0,0.0,0.0,0.0,0.0,0.0,0.0,0.0,0.0,0.0,0.0,0.0,0.0,0.0,0.0,0.0,0.0,0.0,0.0,0.0,0.0,0.0,0.0,0.0,0.0,0.0,0.0,0.0,0.0,0.0,0.0,0.0,0.0,0.0,0.0,0.0,0.0,0.0,0.0,0.0,0.0,0.0,0.0,0.0,0.0,0.0,0.0,0.0,0.0,0.0,0.0,0.0,0.0,0.0,0.0,0.0,0.0,0.0,0.0,0.0,0.0,0.0,0.0,0.0,0.0,0.0,0.0,0.0,0.0,0.0,0.0,0.0,0.0,0.0,0.0,0.0,0.0,0.0,0.0,0.0,0.0,0.0,0.0,0.0,0.0,0.0,0.0,0.0,0.0,0.0,0.0,0.0,0.0,0.0,0.0,0.0,0.0,0.0,0.0,0.0,0.0,0.0,0.0,0.0,0.0,0.0,0.0,0.0,0.0,0.0,0.0,0.0,0.0,0.0,0.0,0.0,0.0,0.0,0.0,0.0,0.0,0.0,0.0,0.0,0.0,0.0,0.0,0.0,0.0,0.0,0.0,0.0,0.0,0.0,0.0,0.0,0.0,0.0,0.0,0.0,0.0,0.0,0.0,0.0,0.0,0.0,0.0,0.0,0.0,0.0,0.0,0.0,0.0,0.0,0.0,0.0,0.0,0.0,0.0,0.0,0.0,0.0,0.0,0.0,0.0,0.0,0.0,0.0,0.0,0.0,0.0,0.0,0.0,0.0,0.0,0.0,0.0,0.0,0.0,0.0,0.0,0.0,0.0,0.0,0.0,0.0,0.0,0.0,0.0,0.0,0.0,0.0,0.0,0.0,0.0,0.0,0.0,0.0,0.0,0.0,0.0,0.0,0.0,0.0,0.0,0.0,0.0,0.0,0.0,0.0,0.0,0.0,0.0,0.0,0.0,0.0,0.0,0.0,0.0,0.0,0.0,0.0,0.0,0.0,0.0,0.0,0.0,0.0,0.0,0.0,0.0,0.0,0.0,0.0,0.0,0.0,0.0,0.0,0.0,0.0,0.0,0.0,0.0,0.0,0.0,0.0,0.0,0.0,0.0,0.0,0.0,0.0,0.0,0.0,0.0,0.0,0.0,0.0,0.0,0.0,0.0,0.0,0.0,0.0,0.0,0.0,0.0,0.0,0.0,0.0,0.0,0.0,0.0,0.0,0.0,0.0,0.0,0.0,0.0,0.0,0.0,0.0,0.0,0.0,0.0,0.0,0.0,0.0,0.0,0.0,0.0,0.0,0.0,0.0,0.0,0.0,0.0,0.0,0.0,0.0,0.0,0.0,0.0,0.0,0.0,0.0,0.0,0.0,0.0,0.0,0.0,0.0,0.0,0.0,0.0,0.0,0.0,0.0,0.0,0.0,0.0,0.0,0.0,0.0,0.0,0.0,0.0,0.0,0.0,0.0,0.0,0.0,0.0,0.0,0.0,0.0,0.0,0.0,0.0,0.0,0.0,0.0,0.0,0.0,0.0,0.0,0.0,0.0,0.0,0.0,0.0,0.0,0.0,0.0,0.0,0.0,0.0,0.0,0.0,0.0,0.0,0.0,0.0,0.0,0.0,0.0,0.0,0.0,0.0,0.0,0.0,0.0,0.0,0.0,0.0,0.0,0.0,0.0,0.0,0.0,0.0,0.0,0.0,0.0,0.0,0.0,0.0,0.0,0.0,0.0,0.0,0.0,0.0,0.0,0.0,0.0,0.0,0.0,0.0,0.0,0.0,0.0,0.0,0.0,0.0,0.0,0.0,0.0,0.0,0.0,0.0,0.0,0.0,0.0,0.0,0.0,0.0,0.0,3.2148,0.0,0.0,0.0,0.0,0.0,0.0,0.0,0.0,0.0,0.0,0.0,0.0,0.0,0.0,0.0,0.0,0.0,0.0,0.0,0.0,0.0,0.0,0.0,0.0,0.0,0.0,0.0,0.0,0.0,0.0,0.0,0.0,0.0,0.0,0.0,0.0,0.0,0.0,0.0,0.0,0.0,0.0,0.0,0.0,0.0,0.0,0.0,0.0,0.0,0.0,0.0,0.0,0.0,0.0,0.0,0.0,0.0,0.0,0.0,0.0,0.0,0.0,0.0,0.0,0.0,0.0,0.0,0.0,0.0,0.0,0.0,0.0,0.0,0.0,0.0,0.0,0.0,0.0,0.0,0.0,0.0,0.0,0.0,0.0,0.0,0.0,0.0,0.0,0.0,0.0,0.0,0.0,0.0,0.0,0.0,0.0,0.0,0.0,0.0,0.0,0.0,0.0,0.0,0.0,0.0,0.0,0.0,0.0,0.0,0.0,0.0,0.0,0.0,0.0,0.0,0.0,3.2344,0.0,0.0,0.0,0.0,0.0,0.0,0.0,0.0,0.0,0.0,0.0,0.0,0.0,0.0,0.0,0.0,0.0,0.0,0.0,0.0,0.0,0.0,0.0,0.0,0.0,0.0,0.0,0.0,0.0,0.0,0.0,0.0,0.0,0.0,0.0,0.0,0.0,0.0,0.0,0.0,0.0,0.0,0.0,0.0,0.0,0.0,0.0,0.0,0.0,0.0,0.0,0.0,0.0,0.0,0.0,0.0,0.0,0.0,0.0,0.0,0.0,0.0,0.0,0.0,0.0,0.0,0.0,0.0,0.0,0.0,0.0,0.0,0.0,0.0,0.0,0.0,0.0,0.0,0.0,0.0,0.0,0.0,0.0,0.0,0.0,0.0,0.0,0.0,0.0,0.0,0.0,0.0,0.0,0.0,0.0,0.0,0.0,0.0,0.0,0.0,0.0,0.0,0.0,0.0,0.0,0.0,0.0,0.0,0.0,3.3867,3.3867,3.3867,3.3867,3.3867,3.3711,3.4043,3.459,0.0,0.0,0.0,0.0,0.0,0.0,0.0,0.0,0.0,0.0,0.0,0.0,0.0,0.0,0.0,0.0,0.0,0.0,0.0,0.0,0.0,0.0,0.0,0.0,0.0,0.0,0.0,0.0,0.0,0.0,0.0,0.0,0.0,0.0,0.0,0.0,0.0,0.0,0.0,3.3844,3.5186,3.4445,3.1797,3.1151,0.0,0.0,0.0,0.0,0.0,0.0,0.0,0.0,0.0,0.0,0.0,0.0,0.0,0.0,0.0,0.0,0.0,0.0,0.0,0.0,0.0,0.0,0.0,0.0,0.0,0.0,0.0,0.0,0.0,0.0,0.0,0.0,0.0,0.0,0.0,0.0,0.0,0.0,0.0,0.0,0.0,0.0,0.0,3.248,3.332,0.0,0.0,0.0,0.0,0.0,0.0,0.0,0.0,0.0,0.0,0.0,0.0,0.0,0.0,3.4434,3.4492,3.4922,3.5684,3.5684,3.5684,3.5684,3.5684,3.5684,3.5644,3.4863,0.0,3.4687,3.4453,0.0,0.0,0.0,0.0,0.0,0.0,0.0,0.0,0.0,0.0,0.0,0.0,0.0,0.0,0.0,0.0,0.0,0.0,0.0,0.0,0.0,0.0,0.0,0.0,0.0,0.0,0.0,0.0,0.0,0.0,0.0,0.0,0.0,0.0,0.0,0.0,3.2715,3.3699,3.4202,3.5149,3.4794,3.3574,3.3203,3.2012,3.0332,3.0566,0.0,0.0,0.0,0.0,0.0,0.0,0.0,0.0,0.0,0.0,0.0,0.0,0.0,0.0,0.0,0.0,0.0,0.0,0.0,0.0,0.0,0.0,0.0,0.0,0.0,0.0,0.0,0.0,0.0,0.0,0.0,0.0,0.0,0.0,0.0,0.0,0.0,0.0,0.0,3.2344,3.3184,3.4043,3.3711,3.3281,0.0,0.0,0.0,0.0,0.0,0.0,0.0,0.0,0.0,3.4121,3.4141,3.4551,3.543,3.5449,3.5644,3.6016,3.6016,3.6016,3.6016,3.6016,3.6016,3.5996,3.5605,3.5449,3.541,3.4902,3.4707,3.4629,0.0,0.0,0.0,0.0,0.0,3.2786,0.0,0.0,0.0,0.0,0.0,0.0,0.0,0.0,0.0,0.0,0.0,0.0,0.0,0.0,0.0,2.9902,0.0,0.0,0.0,0.0,0.0,0.0,0.0,0.0,0.0,0.0,0.0,0.0,3.3027,3.3613,3.4238,3.4551,3.4707,3.4707,3.4707,3.3516,3.1562,3.1875,3.1328,3.0254,0.0,0.0,0.0,0.0,0.0,0.0,0.0,0.0,0.0,0.0,0.0,0.0,0.0,0.0,0.0,0.0,0.0,0.0,0.0,0.0,0.0,0.0,0.0,0.0,0.0,0.0,0.0,0.0,0.0,0.0,0.0,0.0,0.0,0.0,0.0,0.0,0.0,3.2891,3.373,3.459,3.4336,3.4004,0.0,0.0,0.0,0.0,0.0,0.0,3.373,3.375,3.4141,3.5019,3.5039,3.5351,3.6016,3.6016,3.6016,3.6016,3.6016,3.6016,3.6016,3.6016,3.6016,3.6016,3.6016,3.6016,3.5976,3.5312,3.5039,3.5019,3.4785,3.4316,3.375,3.375,3.375,3.3514,0.0,0.0,0.0,0.0,0.0,0.0,0.0,0.0,0.0,0.0,0.0,0.0,0.0,0.0,3.082,3.082,3.0859,3.0508,0.0,0.0,0.0,0.0,0.0,0.0,0.0,0.0,0.0,3.3359,3.4199,3.4629,3.4668,3.4687,3.4707,3.4707,3.4707,3.418,3.3301,3.332,3.2832,3.1973,3.1172,0.0,0.0,0.0,0.0,0.0,0.0,0.0,0.0,0.0,0.0,0.0,0.0,0.0,0.0,0.0,0.0,0.0,0.0,0.0,0.0,0.0,0.0,0.0,0.0,0.0,0.0,0.0,0.0,0.0,0.0,0.0,0.0,0.0,0.0,0.0,0.0,0.0,0.0,3.459,3.541,0.0,0.0,0.0,0.0,3.3418,3.3398,3.3769,3.459,3.4629,3.5039,3.5937,3.5957,3.5976,3.6016,3.6016,3.6016,3.6016,3.6016,3.6016,3.6016,3.6016,3.6016,3.6016,3.6016,3.6016,3.6016,3.5976,3.5957,3.5879,3.5019,3.4668,3.4629,3.4629,3.4629,3.4766,0.0,0.0,0.0,0.0,0.0,0.0,0.0,0.0,0.0,0.0,0.0,0.0,0.0,3.1016,3.1816,3.209,3.2617,3.2676,3.209,0.0,0.0,0.0,0.0,0.0,0.0,0.0,3.3242,3.4238,3.4844,3.5647,3.6766,3.5924,3.6196,3.7217,3.7217,3.7033,3.6725,3.531,3.4023,3.2969,3.2949,3.2109,0.0,0.0,0.0,0.0,0.0,0.0,0.0,0.0,0.0,0.0,0.0,0.0,0.0,0.0,0.0,0.0,0.0,0.0,0.0,0.0,0.0,0.0,0.0,0.0,0.0,0.0,0.0,0.0,0.0,0.0,0.0,0.0,0.0,0.0,0.0,0.0,0.0,3.459,3.498,0.0,0.0,3.4707,3.457,3.4277,3.4766,3.5234,3.5527,3.5547,3.5684,3.6016,3.6016,3.6016,3.6016,3.6016,3.6016,3.6016,3.6016,3.6016,3.6016,3.6016,3.6016,3.6016,3.6016,3.6016,3.6016,3.6016,3.6016,3.5996,3.5664,3.5547,3.5547,3.5547,3.47,3.3613,0.0,0.0,0.0,0.0,0.0,0.0,0.0,0.0,0.0,0.0,0.0,3.0976,3.125,3.2324,3.3125,3.3418,3.3965,3.3926,3.3047,0.0,0.0,0.0,0.0,0.0,0.0,3.3359,3.4141,3.5156,3.5449,3.6103,3.7258,3.64,3.6674,3.7709,3.7709,3.7709,3.7688,3.6241,3.5475,3.516,3.516,3.3743,3.1719,0.0,0.0,0.0,0.0,0.0,0.0,0.0,0.0,0.0,0.0,0.0,0.0,0.0,0.0,0.0,0.0,0.0,0.0,0.0,0.0,0.0,0.0,0.0,0.0,0.0,0.0,0.0,0.0,0.0,0.0,0.0,0.0,0.0,0.0,0.0,3.4062,3.4629,3.4961,3.5156,3.5156,3.5156,3.5156,3.5156,3.5684,3.6016,3.6016,3.6016,3.6016,3.6016,3.6016,3.6016,3.6016,3.6016,3.6016,3.6016,3.6016,3.6016,3.6016,3.6016,3.6016,3.6016,3.6016,3.6016,3.6016,3.6016,3.6016,3.6016,3.6016,3.5587,3.5021,3.5021,3.3882,3.1878,0.0,0.0,0.0,0.0,0.0,0.0,0.0,0.0,0.0,0.0,3.166,3.2519,3.334,3.4199,3.4707,3.4726,3.4726,3.4023,3.2363,3.2226,0.0,0.0,0.0,0.0,3.4043,3.4121,3.4746,3.6016,3.6016,3.6016,3.6016,3.6016,3.6016,3.6016,3.6016,3.6016,3.6016,3.6152,3.7059,3.8513,3.7611,3.5697,3.3379,0.0,0.0,0.0,0.0,0.0,0.0,0.0,0.0,0.0,0.0,0.0,0.0,0.0,0.0,0.0,0.0,0.0,0.0,0.0,0.0,0.0,0.0,0.0,0.0,0.0,0.0,0.0,0.0,0.0,0.0,0.0,0.0,0.0,3.334,3.418,3.4707,3.4746,3.5508,3.6016,3.6016,3.6016,3.6016,3.6016,3.6016,3.6016,3.6016,3.6016,3.6016,3.6016,3.6016,3.6016,3.6016,3.6016,3.6016,3.6016,3.6016,3.6016,3.6016,3.6016,3.6016,3.6016,3.6016,3.6016,3.6016,3.6016,3.6016,3.6016,3.6016,3.4883,3.317,3.317,3.1878,2.9884,0.0,0.0,0.0,0.0,0.0,0.0,0.0,0.0,0.0,0.0,3.2285,3.2949,3.3809,3.4375,3.4824,3.5176,3.5195,3.4863,3.4062,0.0,0.0,0.0,0.0,0.0,3.4512,3.5156,3.5664,3.6016,3.6016,3.6674,3.7822,3.6539,3.6654,3.7822,3.7822,3.7822,3.7955,3.9256,3.9387,3.8444,3.691,3.5514,3.4316,0.0,0.0,0.0,0.0,0.0,0.0,0.0,0.0,0.0,0.0,0.0,0.0,0.0,0.0,0.0,0.0,0.0,0.0,0.0,0.0,0.0,0.0,0.0,0.0,0.0,0.0,0.0,0.0,0.0,0.0,0.0,0.0,3.4082,3.4316,3.4551,3.4941,3.5586,3.5879,3.6016,3.6016,3.6016,3.6016,3.6016,3.6016,3.6016,3.6016,3.6016,3.6016,3.6016,3.6016,3.6016,3.6016,3.6016,3.6016,3.6016,3.6016,3.6016,3.6016,3.6016,3.6016,3.6016,3.6016,3.6016,3.6016,3.6016,3.6016,3.6016,3.6016,3.4883,3.317,3.317,3.1034,2.8068,0.0,0.0,0.0,0.0,0.0,0.0,0.0,0.0,0.0,0.0,3.291,3.3516,3.4746,3.5098,3.5351,3.5625,3.5312,3.4844,3.4199,0.0,0.0,0.0,0.0,3.4863,3.5254,3.5762,3.6016,3.6016,3.6016,3.6539,3.7441,3.6403,3.6539,3.7575,3.7575,3.7575,3.7575,3.8597,3.8486,3.7441,3.6403,3.5488,3.4707,3.4707,3.416,3.3418,3.3418,3.3418,3.334,3.2851,0.0,0.0,0.0,0.0,0.0,0.0,0.0,0.0,0.0,0.0,0.0,0.0,0.0,0.0,0.0,0.0,0.0,0.0,0.0,0.0,0.0,0.0,0.0,0.0,3.4141,3.4824,3.5195,3.5254,3.5449,3.5957,3.6016,3.6016,3.6016,3.6016,3.6016,3.6016,3.6016,3.6016,3.6016,3.6016,3.6016,3.6016,3.6016,3.6016,3.6016,3.6016,3.6016,3.6016,3.6016,3.6016,3.6016,3.6016,3.6016,0.0,3.6016,3.6016,3.6035,3.6211,3.6289,0.0,0.0,0.0,0.0,0.0,2.8504,2.6461,0.0,0.0,0.0,0.0,0.0,0.0,0.0,0.0,0.0,0.0,0.0,3.4082,3.582,3.6016,3.6016,3.6016,3.5215,3.4336,0.0,0.0,0.0,3.4629,3.4805,3.5215,3.5996,3.6016,3.6016,3.6016,3.6016,3.6016,3.6016,3.6016,3.6016,3.6016,3.6016,3.6016,3.6016,3.6016,3.6016,3.6016,3.6016,3.5547,3.4844,3.4844,3.4375,3.3711,3.3711,3.3711,3.3691,3.3594,0.0,0.0,0.0,0.0,0.0,0.0,0.0,0.0,0.0,0.0,0.0,0.0,0.0,0.0,0.0,0.0,0.0,0.0,0.0,0.0,0.0,0.0,0.0,0.0,3.4277,3.5117,3.5918,3.6016,3.6016,3.6016,3.6016,3.6016,3.6016,3.6016,3.6016,3.6016,3.6016,3.6016,3.6016,0.0,0.0,0.0,0.0,3.6094,3.6094,3.6133,3.6172,3.6172,3.6172,3.6172,3.6172,3.6172,3.6172,3.6172,3.6172,3.6172,3.6191,3.6582,3.6441,3.5965,3.386,3.1859,2.9617,2.6326,2.5291,0.0,0.0,0.0,0.0,0.0,0.0,0.0,0.0,0.0,0.0,3.3203,3.3418,3.4082,3.582,3.6016,3.6016,3.6016,3.5215,3.4336,0.0,0.0,3.4355,3.4687,3.5391,3.584,3.6016,3.6016,3.6016,3.6016,3.6016,3.6016,3.6016,3.6016,3.6016,3.6016,3.6016,3.6016,3.6016,3.6016,3.6016,3.6016,3.6016,3.5918,3.5762,3.5762,3.5664,3.5527,3.5527,3.5527,3.541,3.4687,3.4453,3.4336,3.3633,3.3301,0.0,0.0,0.0,0.0,0.0,0.0,0.0,0.0,0.0,0.0,0.0,0.0,0.0,0.0,0.0,0.0,0.0,0.0,0.0,3.4434,3.5195,3.582,3.5996,3.6016,3.6016,3.6016,3.6016,3.6016,3.6016,3.6016,3.6016,3.6016,3.6016,3.6016,3.6016,3.6016,0.0,3.6016,3.6367,3.6543,3.6543,3.6875,3.7051,3.7051,0.0,0.0,3.7051,3.7051,3.7051,3.7051,3.7051,3.7051,3.7051,3.7148,3.5253,3.245,3.1946,3.0469,2.8432,2.6295,2.5464,2.5518,0.0,0.0,0.0,0.0,0.0,0.0,0.0,0.0,0.0,0.0,3.2793,3.3281,3.457,3.4726,3.4726,3.4726,3.4316,0.0,0.0,3.4219,3.4902,3.5332,3.5781,3.6016,3.6016,3.6016,3.6016,3.6016,3.6016,3.6016,3.6016,3.6016,3.6016,3.6016,3.6016,3.6016,3.6016,3.6016,3.6016,3.6016,3.6016,3.6016,3.6016,3.6016,3.6016,3.6016,3.6016,3.6016,3.5957,3.5508,3.5351,3.5293,3.4863,3.4414,3.3887,0.0,0.0,0.0,0.0,0.0,0.0,0.0,0.0,0.0,0.0,0.0,0.0,0.0,0.0,3.3418,0.0,0.0,3.4707,3.4707,3.5449,3.6016,3.6016,3.6016,3.6016,3.6016,3.6016,3.6016,3.6016,3.6016,3.6113,3.6328,3.6348,3.6445,3.6641,3.666,3.666,3.666,3.6875,3.6992,3.6992,3.7187,3.7305,3.7305,3.7305,3.7305,3.7305,3.7305,3.7305,3.7305,3.7305,3.7305,3.7324,3.7519,3.5357,3.1944,3.1944,3.0046,2.7087,2.604,2.5825,2.5945,0.0,0.0,0.0,0.0,0.0,0.0,0.0,0.0,0.0,0.0,3.2168,3.248,3.332,3.3418,3.3359,0.0,0.0,0.0,0.0,3.4375,3.5273,3.5996,3.6016,3.6016,3.6016,3.6016,3.6016,3.6016,3.6016,3.6016,3.6016,3.6016,3.6016,3.6016,3.6016,3.6016,3.6016,3.6016,3.6016,3.6016,3.6016,3.6016,3.6016,3.6016,3.6016,3.6016,3.6016,3.5918,3.5781,3.5957,3.5898,3.5801,3.5976,3.541,3.4531,3.3672,3.2832,0.0,0.0,0.0,0.0,0.0,0.0,0.0,0.0,0.0,3.3711,3.3887,3.3926,3.3926,3.3926,3.4492,3.4961,3.4961,3.5547,3.6055,3.6133,3.6152,3.6172,3.625,3.6191,3.6172,3.625,3.6269,3.6406,3.6758,3.6797,3.6934,3.7285,3.7305,3.7305,3.7305,3.7383,3.7422,3.7422,3.75,3.7539,3.7539,3.7539,3.7539,3.7539,3.7539,3.7539,3.7539,3.7093,3.6951,3.697,3.6412,3.4486,3.1896,3.1437,2.9145,2.6039,2.6039,2.6186,2.6386,0.0,0.0,0.0,0.0,0.0,0.0,0.0,0.0,0.0,0.0,0.0,0.0,0.0,0.0,0.0,0.0,0.0,0.0,3.3476,3.4961,3.5918,3.6016,3.6016,3.6016,3.6016,3.6016,3.6016,3.6016,3.6016,3.6016,3.6016,3.6016,3.6016,3.6016,3.6016,3.6016,3.6016,3.6016,3.6016,3.6016,3.6016,3.6016,3.6016,3.6016,3.6016,3.6016,3.6016,3.5508,3.4961,3.5762,3.5508,3.498,3.5781,3.541,3.4531,3.3672,0.0,3.1992,3.1133,0.0,0.0,3.2285,3.2793,3.3496,0.0,0.0,3.4785,3.5566,3.5723,3.5723,3.5723,3.5801,3.5879,3.5879,3.5957,3.6152,3.6543,3.6601,3.6738,3.7109,3.6836,3.6738,3.7109,3.7148,3.7168,3.7226,3.7226,3.7246,3.7305,3.7305,3.7305,3.7305,3.7656,3.7851,3.7851,3.8242,3.8437,3.8437,3.8437,3.8437,3.8437,3.8437,3.8437,3.8273,3.6441,3.5685,3.5371,3.1798,3.0176,2.9604,2.7762,2.6833,2.6346,2.6346,2.636,2.6386,0.0,0.0,0.0,0.0,0.0,0.0,0.0,0.0,0.0,0.0,0.0,0.0,0.0,0.0,0.0,0.0,0.0,0.0,3.3437,3.5059,3.6016,3.6016,3.6016,3.6016,3.6016,3.6016,3.6016,3.6016,3.6016,3.6016,3.6016,3.6016,3.6016,3.6016,3.6016,3.6016,3.6016,3.6016,3.6016,3.6016,3.6016,3.6016,3.6016,3.6016,3.6016,3.5957,3.543,3.5019,0.0,3.5117,3.5,3.4844,3.5742,3.541,3.4531,3.3672,3.2832,0.0,3.2324,0.0,0.0,0.0,3.4277,3.4394,3.5273,3.5469,3.5566,3.5937,3.6016,3.6016,3.6016,3.6016,3.6094,0.0,3.6406,3.6543,3.6973,3.7031,3.7187,3.7617,3.75,3.7363,3.7305,3.7305,3.7402,3.7637,3.7656,3.7773,3.8027,3.8047,3.8047,3.8047,3.8203,3.8301,3.8301,3.8476,3.8574,3.8574,3.8574,3.8574,3.8574,3.8828,3.9082,3.9336,3.8402,3.8084,3.7784,3.4828,3.2961,3.1575,2.9556,2.7991,2.6854,2.652,2.6493,2.664,0.0,0.0,0.0,0.0,0.0,0.0,0.0,0.0,0.0,0.0,0.0,0.0,0.0,0.0,0.0,0.0,0.0,0.0,0.0,3.4824,3.5762,3.6016,3.6016,3.6016,3.6016,3.6016,3.6016,3.6016,3.6016,3.6016,3.6016,3.6016,3.6016,3.6016,3.6016,3.6016,3.6016,3.6016,3.6016,3.6016,3.6016,3.6016,3.6016,3.6016,3.5879,3.5566,3.4922,3.4551,3.4336,3.4336,3.4199,3.416,3.5019,3.4707,3.3887,3.3262,3.248,3.2012,3.2851,0.0,0.0,3.5137,3.5351,3.5234,3.5879,3.6016,3.6055,3.6172,3.6191,3.623,3.6348,3.6367,0.0,3.6797,3.6836,3.6992,3.7402,3.7461,3.7637,3.8047,3.8105,3.7988,3.7676,3.7656,3.7773,3.8086,3.8105,3.8242,3.8555,3.8574,3.8633,3.875,3.875,3.8809,3.8945,3.8945,3.8945,3.8945,3.8945,3.8945,3.8945,3.9258,3.957,3.9902,3.9259,3.9089,3.8785,3.6089,3.4049,3.2475,3.026,2.8529,2.7215,2.6787,2.676,2.6947,0.0,0.0,0.0,0.0,0.0,0.0,0.0,0.0,0.0,0.0,0.0,0.0,0.0,0.0,0.0,0.0,0.0,0.0,0.0,3.4238,3.5117,3.5976,3.6016,3.6016,3.6016,3.6016,3.6016,3.6016,3.6016,3.6016,3.6016,3.6016,3.6016,3.6016,3.6016,3.6016,3.6016,3.6016,3.6016,3.6016,3.6016,3.6016,3.6016,3.6016,3.5488,3.4726,3.4707,3.416,3.3457,3.3457,3.293,3.2402,3.3242,3.293,0.0,3.2207,3.1601,0.0,0.0,0.0,3.3594,3.4512,3.5371,3.5996,3.6016,3.6016,3.6133,3.6562,3.666,3.6777,3.7187,3.7266,3.7266,3.7266,3.7285,3.7422,3.7851,3.791,3.8066,3.8496,3.8555,3.8555,0.0,3.8535,3.8535,3.8555,3.8555,3.8555,3.8574,3.8574,3.8769,3.916,3.918,3.9394,3.9844,3.9863,3.9863,3.9863,3.9863,3.9863,3.9863,3.9863,3.9883,3.9732,3.7833,3.6877,3.6569,3.2459,3.058,3.042,2.8219,2.7431,2.7268,2.7241,2.7241,2.7255,0.0,0.0,0.0,0.0,0.0,0.0,0.0,0.0,0.0,0.0,0.0,0.0,0.0,0.0,0.0,0.0,0.0,0.0,0.0,3.3906,3.4824,3.5137,3.5703,3.6016,3.6016,3.6016,3.6016,3.6016,3.6016,3.6016,3.6016,3.6016,3.6016,3.6016,3.6016,3.6016,3.6016,3.6016,3.6016,3.6016,3.6016,3.5664,3.5137,3.5137,3.4609,3.3769,0.0,3.2832,3.2598,3.2598,3.2402,0.0,3.3164,0.0,0.0,3.2168,0.0,0.0,0.0,0.0,3.4473,3.5351,3.5801,3.6094,3.6387,3.6445,3.6562,3.6992,3.709,3.7129,3.7266,3.7305,3.7383,3.7676,3.7715,3.7871,3.8301,3.8359,3.8418,3.8555,3.8574,0.0,0.0,0.0,0.0,3.8574,3.8828,3.8984,3.8984,3.9277,3.9512,3.9668,3.9668,3.9746,3.9902,3.9902,3.9902,3.9902,3.9902,4.0039,4.0312,4.0312,3.9663,3.8476,3.7831,3.6693,3.5248,3.2352,3.1063,3.0914,2.8814,2.7843,2.7843,2.7843,2.7843,2.7816,0.0,0.0,0.0,0.0,0.0,0.0,0.0,0.0,0.0,0.0,0.0,0.0,0.0,0.0,0.0,0.0,0.0,0.0,0.0,0.0,3.3926,3.4219,3.4785,3.5098,3.5098,3.5098,3.5098,3.5098,3.5391,3.5547,3.5547,3.5879,3.6016,3.6016,3.6016,3.6016,3.6016,3.6016,3.584,3.5547,3.5547,3.5019,3.4238,3.4238,3.3711,0.0,3.2363,3.1973,3.1719,3.1719,3.1719,0.0,0.0,0.0,0.0,0.0,0.0,0.0,0.0,3.4707,3.4941,3.5996,3.625,3.6367,3.6797,3.6894,3.7012,3.7441,3.7519,3.7578,3.7734,3.7754,3.7851,3.8105,3.8164,3.8262,3.8535,3.8711,3.8789,3.8789,3.8945,0.0,0.0,0.0,0.0,3.9043,3.9297,3.9453,3.9453,3.9726,3.9961,4.0117,4.0117,4.0195,4.0351,4.0351,4.0351,4.0351,4.0351,4.0488,4.0762,4.0762,3.9774,3.7896,3.7896,3.6602,3.4489,3.2381,3.1392,3.1241,2.8964,2.8136,2.8136,2.8136,2.8217,2.827,0.0,0.0,0.0,0.0,0.0,0.0,0.0,0.0,0.0,0.0,0.0,0.0,0.0,0.0,0.0,0.0,0.0,0.0,0.0,0.0,0.0,3.332,3.3398,3.3418,3.3418,3.3418,3.3418,3.3418,3.4238,3.4629,3.4648,3.5488,3.5879,3.5879,3.5879,3.5879,3.5879,3.5879,3.541,3.4629,3.4629,3.4121,3.3359,3.3359,3.2832,3.2109,3.2109,3.1582,3.0898,0.0,0.0,0.0,0.0,0.0,0.0,0.0,0.0,3.2656,3.4316,3.4785,3.5098,3.6367,3.668,3.6816,3.7226,3.7305,3.7383,3.7812,3.7851,3.7949,0.0,0.0,3.8516,3.8516,3.8555,3.8574,3.8613,3.8945,3.9219,0.0,0.0,0.0,0.0,0.0,0.0,3.9961,0.0,3.9922,3.9922,3.9941,4.0137,4.0547,4.0566,4.0762,4.1172,4.1172,4.1172,4.1172,4.1172,4.1172,4.1172,4.1172,4.0021,3.7896,3.7896,3.6602,3.4489,3.2397,3.1422,3.1271,2.8992,2.819,2.819,2.819,2.8377,2.8591,0.0,0.0,0.0,0.0,0.0,0.0,0.0,0.0,0.0,0.0,0.0,0.0,0.0,0.0,0.0,0.0,0.0,0.0,0.0,0.0,0.0,0.0,0.0,0.0,0.0,0.0,0.0,3.3418,3.3633,3.375,3.375,3.3984,3.4082,3.4082,3.4082,3.4082,3.4082,3.4082,3.3945,3.375,3.375,3.3242,3.248,3.248,3.1953,3.1211,3.1211,3.1074,0.0,0.0,0.0,0.0,0.0,0.0,3.3262,0.0,0.0,3.4297,3.5391,3.5918,3.625,3.6582,3.6914,3.7246,3.7676,3.7285,3.6953,3.7363,3.6953,3.6543,0.0,0.0,0.0,3.7617,3.8164,0.0,3.9004,3.9141,0.0,0.0,0.0,4.0019,4.0332,4.0371,0.0,0.0,4.0547,4.0371,4.0371,4.0664,4.0898,4.0996,4.1016,4.1055,4.1172,4.1172,4.1172,4.1172,4.1172,4.1172,4.1172,4.1172,4.0021,3.7896,3.7896,3.6602,3.4506,3.2478,3.1751,3.1446,2.9556,2.8804,2.8804,2.8804,2.8858,2.8911,0.0,0.0,0.0,0.0,0.0,0.0,0.0,0.0,0.0,0.0,0.0,0.0,0.0,0.0,0.0,0.0,0.0,0.0,0.0,0.0,0.0,0.0,0.0,0.0,0.0,0.0,0.0,3.2305,3.2695,3.2871,3.2871,3.3242,3.3418,3.3418,3.3418,3.3418,3.3418,3.3418,3.3203,0.0,0.0,3.2363,3.1601,3.1601,3.1309,3.0898,3.0898,0.0,0.0,0.0,0.0,3.2871,3.3711,3.3984,3.416,3.5019,0.0,3.4902,3.5781,3.6348,3.6719,3.6894,3.7266,3.7598,3.7637,3.7285,3.6914,3.6758,3.6348,0.0,0.0,0.0,0.0,0.0,0.0,0.0,3.916,3.9531,3.9883,0.0,4.0351,0.0,4.0781,4.0801,4.0918,0.0,0.0,4.0801,4.0801,4.1035,4.1172,4.1172,4.1172,4.1172,4.1172,4.1172,4.1172,4.1172,4.1172,4.1172,4.1172,4.1172,4.0116,3.8148,0.0,3.5472,3.351,3.1373,3.061,3.0467,2.9471,2.9045,2.9045,2.9045,2.9125,2.9232,0.0,0.0,0.0,0.0,0.0,0.0,0.0,0.0,0.0,0.0,0.0,0.0,0.0,0.0,0.0,0.0,0.0,0.0,0.0,0.0,0.0,0.0,0.0,0.0,0.0,0.0,0.0,0.0,0.0,3.1992,3.2012,3.2754,3.3086,3.3086,3.3086,3.3086,3.3086,3.3086,3.2676,3.1992,3.1992,3.1543,3.0898,0.0,3.0898,3.0898,0.0,0.0,0.0,0.0,3.3418,3.3594,3.457,3.4883,3.5019,3.5801,3.5469,3.5059,3.5879,3.6426,3.6855,3.7266,3.7695,3.7891,3.7402,3.7207,3.6894,3.6016,0.0,3.5937,3.6797,0.0,3.7226,3.8086,0.0,3.8926,3.9101,3.9824,4.041,4.0586,4.0937,4.1172,4.1172,4.1172,4.1172,4.1172,4.1172,4.1172,4.1172,4.1172,4.1172,4.1172,4.1172,4.1172,4.1172,4.1172,4.1172,4.1172,4.123,4.125,4.125,4.1308,4.054,3.8886,0.0,0.0,3.3075,3.0606,2.9433,2.9433,2.9138,2.9152,2.9152,2.9152,2.9325,2.9539,0.0,0.0,0.0,0.0,0.0,0.0,0.0,0.0,0.0,0.0,0.0,0.0,0.0,0.0,0.0,0.0,0.0,0.0,0.0,0.0,0.0,0.0,0.0,0.0,0.0,0.0,0.0,0.0,0.0,0.0,3.1113,3.1269,3.1328,3.1328,3.1328,3.1328,3.1328,3.1328,3.125,3.1113,3.1113,3.1016,3.0898,3.0898,0.0,0.0,0.0,0.0,0.0,0.0,3.3418,3.3691,3.5293,3.5781,3.582,3.5976,3.5918,3.5898,3.6426,3.6875,3.7285,3.7715,3.8144,3.8262,3.748,3.6758,0.0,0.0,3.4355,3.4141,3.5,3.5156,0.0,3.6309,0.0,0.0,0.0,0.0,3.9844,0.0,0.0,0.0,0.0,0.0,0.0,0.0,0.0,0.0,4.1172,4.1172,4.1172,4.1172,4.1172,4.1172,4.1172,4.1172,4.1172,4.1172,4.1523,4.1699,4.1699,4.2051,4.2086,4.1644,0.0,0.0,3.7604,3.3707,3.2134,3.199,3.0356,2.9766,2.9766,2.9766,2.9793,2.9847,0.0,0.0,0.0,0.0,0.0,0.0,0.0,0.0,0.0,0.0,0.0,0.0,0.0,0.0,0.0,0.0,0.0,0.0,0.0,0.0,0.0,0.0,0.0,0.0,0.0,0.0,0.0,0.0,0.0,0.0,0.0,0.0,0.0,0.0,0.0,3.0898,3.0898,3.0898,3.0898,3.0898,3.0898,3.0898,3.0898,0.0,0.0,0.0,0.0,0.0,0.0,0.0,3.2773,3.3144,3.5332,3.6016,3.5937,3.5469,3.5664,3.6016,3.6016,3.6641,3.7402,3.7812,3.8242,3.8223,3.6934,0.0,0.0,0.0,3.3711,3.3691,3.4551,3.4707,0.0,0.0,0.0,0.0,0.0,0.0,0.0,0.0,0.0,0.0,0.0,0.0,0.0,0.0,0.0,0.0,0.0,4.1172,4.1172,4.1172,4.1172,4.1269,4.1504,4.1504,4.1621,4.1836,4.2031,4.2129,4.2129,4.2344,4.2558,4.2592,4.0398,0.0,3.9366,3.6158,3.4863,3.4705,3.3831,3.269,3.1657,3.1657,3.0959,2.9913,0.0,0.0,0.0,0.0,0.0,0.0,0.0,0.0,0.0,0.0,0.0,0.0,0.0,0.0,0.0,0.0,0.0,0.0,0.0,0.0,0.0,0.0,0.0,0.0,0.0,0.0,0.0,0.0,0.0,0.0,0.0,0.0,0.0,0.0,0.0,0.0,0.0,3.0898,3.0898,0.0,0.0,0.0,0.0,0.0,0.0,0.0,0.0,0.0,0.0,0.0,3.2168,3.2559,3.4766,3.5469,3.5371,3.4844,3.5195,3.5742,3.5781,3.6543,3.7422,3.793,3.832,3.8125,3.6406,3.6016,0.0,0.0,3.3418,3.3691,3.4551,3.4551,3.4707,0.0,0.0,0.0,0.0,0.0,0.0,0.0,0.0,0.0,0.0,0.0,0.0,0.0,0.0,0.0,0.0,4.1445,4.1445,4.1445,4.1445,4.1601,4.1933,4.1933,4.2109,4.2422,4.2519,4.2558,4.2558,4.2656,4.2891,4.304,4.0824,0.0,0.0,3.769,3.683,3.683,3.6313,3.494,3.3395,3.2867,3.1479,2.9913,0.0,0.0,0.0,0.0,0.0,0.0,0.0,0.0,0.0,0.0,0.0,0.0,0.0,0.0,0.0,0.0,0.0,0.0,0.0,0.0,0.0,0.0,0.0,0.0,0.0,0.0,0.0,0.0,0.0,0.0,0.0,0.0,0.0,0.0,0.0,0.0,0.0,0.0,0.0,0.0,0.0,0.0,0.0,0.0,0.0,0.0,0.0,0.0,0.0,0.0,0.0,3.2344,3.334,3.3652,3.3789,3.4492,0.0,0.0,3.6699,3.7207,3.75,3.832,3.8555,3.8125,3.6406,0.0,0.0,3.3789,3.3418,3.3691,3.4551,3.4062,3.3828,3.4687,3.4961,3.5605,0.0,0.0,0.0,0.0,0.0,0.0,0.0,0.0,0.0,0.0,0.0,0.0,0.0,4.2305,4.2305,4.2305,4.2305,4.2324,4.2363,4.2363,4.2383,4.2441,4.2832,4.3027,4.3027,4.3418,4.3613,4.3468,0.0,0.0,0.0,3.769,3.683,3.6658,3.4591,3.3556,3.3219,3.0959,3.0093,2.9913,0.0,0.0,0.0,0.0,0.0,0.0,0.0,0.0,0.0,0.0,0.0,0.0,0.0,0.0,0.0,0.0,0.0,0.0,0.0,0.0,0.0,0.0,0.0,0.0,0.0,0.0,0.0,0.0,0.0,0.0,0.0,0.0,0.0,0.0,0.0,0.0,0.0,0.0,0.0,0.0,0.0,0.0,0.0,0.0,0.0,0.0,0.0,0.0,0.0,0.0,0.0,0.0,3.1797,3.1894,0.0,0.0,3.3906,3.4844,3.5547,3.6504,3.75,3.8359,3.8574,3.8125,3.6406,0.0,0.0,3.3789,3.3418,3.3535,3.3867,3.3652,3.3535,3.3867,3.4805,3.5918,0.0,0.0,0.0,0.0,0.0,0.0,0.0,0.0,0.0,0.0,0.0,0.0,0.0,4.2715,4.2422,4.2422,4.2422,4.2558,4.2812,4.2812,4.2949,4.3203,4.3379,4.3457,4.3457,4.3633,4.3711,4.3711,0.0,0.0,0.0,4.1286,4.095,4.0782,3.8357,3.6658,3.5114,3.2867,3.1137,2.9913,0.0,0.0,0.0,0.0,0.0,0.0,0.0,0.0,0.0,0.0,0.0,0.0,0.0,0.0,0.0,0.0,0.0,0.0,0.0,0.0,0.0,0.0,0.0,0.0,0.0,0.0,0.0,0.0,0.0,0.0,0.0,0.0,0.0,0.0,0.0,0.0,0.0,0.0,0.0,0.0,0.0,0.0,0.0,0.0,0.0,0.0,0.0,0.0,0.0,0.0,0.0,0.0,0.0,0.0,0.0,0.0,3.3008,3.4121,3.4883,3.5976,3.7187,3.8301,3.8379,3.7812,0.0,0.0,0.0,3.373,3.3418,3.3418,3.3418,3.3418,3.3418,3.3418,3.4668,3.6016,3.7148,0.0,0.0,0.0,0.0,0.0,0.0,0.0,0.0,0.0,0.0,0.0,0.0,0.0,4.2812,4.2812,4.2812,4.2949,4.3262,4.3262,4.3418,4.3711,4.3711,4.3711,4.3711,4.3711,4.3711,4.3711,0.0,0.0,0.0,4.3711,4.3711,4.3526,4.1118,3.9225,3.7518,3.5273,3.338,3.1997,0.0,0.0,0.0,0.0,0.0,0.0,0.0,0.0,0.0,0.0,0.0,0.0,0.0,0.0,0.0,0.0,0.0,0.0,0.0,0.0,0.0,0.0,0.0,0.0,0.0,0.0,0.0,0.0,0.0,0.0,0.0,0.0,0.0,0.0,0.0,0.0,0.0,0.0,0.0,0.0,0.0,0.0,0.0,0.0,0.0,0.0,0.0,0.0,0.0,0.0,0.0,0.0,0.0,0.0,0.0,0.0,3.2187,3.2754,3.5312,3.6016,3.6445,3.8144,3.793,3.709,0.0,0.0,0.0,3.3594,3.3418,3.3418,3.3418,3.3418,3.3418,3.3418,3.4141,3.5312,3.7051,0.0,0.0,0.0,0.0,0.0,0.0,0.0,0.0,0.0,0.0,0.0,0.0,0.0,4.3691,4.3691,4.3691,4.3691,4.3691,4.3691,4.3691,4.3711,4.3711,4.3711,4.3711,4.3711,4.3711,0.0,0.0,0.0,0.0,4.3711,4.3711,4.3526,4.1118,4.0259,3.9921,3.769,3.683,3.6658,0.0,0.0,0.0,0.0,0.0,0.0,0.0,0.0,0.0,0.0,0.0,0.0,0.0,0.0,0.0,0.0,0.0,0.0,0.0,0.0,0.0,0.0,0.0,0.0,0.0,0.0,0.0,0.0,0.0,0.0,0.0,0.0,0.0,0.0,0.0,0.0,0.0,0.0,0.0,0.0,0.0,0.0,0.0,0.0,0.0,0.0,0.0,0.0,0.0,0.0,0.0,0.0,0.0,0.0,0.0,0.0,0.0,0.0,3.3867,3.4668,3.5391,3.6543,3.6621,3.6191,3.5312,0.0,0.0,3.3594,3.3418,3.3418,3.3418,3.3418,3.3418,3.3418,3.4141,3.5312,3.7051,0.0,0.0,0.0,0.0,0.0,0.0,0.0,0.0,0.0,0.0,0.0,0.0,0.0,4.3711,4.3711,4.3711,4.3711,4.3711,4.3711,4.3711,4.3711,4.3711,4.3711,4.3711,4.3711,0.0,0.0,0.0,0.0,0.0,4.3711,4.3711,4.3526,4.1118,4.0259,4.009,3.769,3.683,3.6863,0.0,0.0,0.0,0.0,0.0,0.0,0.0,0.0,0.0,0.0,0.0,0.0,0.0,0.0,0.0,0.0,0.0,0.0,0.0,0.0,0.0,0.0,0.0,0.0,0.0,0.0,0.0,0.0,0.0,0.0,0.0,0.0,0.0,0.0,0.0,0.0,0.0,0.0,0.0,0.0,0.0,0.0,0.0,0.0,0.0,0.0,0.0,0.0,0.0,0.0,0.0,0.0,0.0,0.0,0.0,0.0,0.0,0.0,0.0,3.3691,3.4473,3.5527,3.5644,0.0,0.0,0.0,0.0,3.3535,3.3418,3.3418,3.3418,3.3418,3.3535,3.3848,3.4355,3.5312,3.7051,0.0,0.0,0.0,0.0,0.0,0.0,0.0,0.0,0.0,0.0,0.0,0.0,0.0,4.3711,4.3711,4.3711,4.3711,4.3711,4.3711,4.3711,4.3711,4.3711,4.3711,4.3711,4.3711,0.0,0.0,0.0,0.0,0.0,4.3711,4.3711,4.3526,4.2159,4.1621,4.1453,3.9921,3.9501,3.9678,0.0,0.0,0.0,0.0,0.0,0.0,0.0,0.0,0.0,0.0,0.0,0.0,0.0,0.0,0.0,0.0,0.0,0.0,0.0,0.0,0.0,0.0,0.0,0.0,0.0,0.0,0.0,0.0,2.9316,2.9746,3.0156,0.0,0.0,0.0,0.0,0.0,0.0,0.0,0.0,0.0,0.0,0.0,0.0,0.0,0.0,0.0,0.0,0.0,0.0,0.0,0.0,0.0,0.0,0.0,0.0,0.0,0.0,0.0,0.0,0.0,0.0,0.0,0.0,0.0,0.0,0.0,0.0,0.0,0.0,0.0,3.3418,3.3476,3.375,3.4492,3.4707,3.5351,3.6973,0.0,0.0,0.0,0.0,0.0,0.0,0.0,0.0,0.0,0.0,0.0,0.0,0.0,0.0,4.3711,4.3711,4.3711,4.3711,4.3711,4.3711,4.3711,4.3711,4.3711,4.3711,4.3711,0.0,0.0,0.0,0.0,0.0,4.3711,4.3711,4.3711,4.3711,4.3711,4.3711,4.373,4.4023,4.4414,0.0,0.0,0.0,0.0,0.0,0.0,0.0,0.0,0.0,0.0,0.0,0.0,0.0,0.0,0.0,0.0,0.0,0.0,0.0,0.0,0.0,0.0,0.0,0.0,0.0,0.0,0.0,2.8437,2.8867,2.9297,2.9726,3.0156,0.0,0.0,0.0,0.0,0.0,0.0,0.0,0.0,0.0,0.0,0.0,0.0,0.0,0.0,0.0,3.0898,0.0,0.0,0.0,0.0,0.0,0.0,0.0,0.0,3.0898,0.0,0.0,0.0,0.0,0.0,0.0,0.0,0.0,0.0,0.0,0.0,0.0,0.0,0.0,3.3945,3.4258,3.3789,3.4844,3.5859,3.6269,0.0,0.0,0.0,0.0,0.0,0.0,0.0,0.0,0.0,0.0,0.0,0.0,0.0,0.0,4.3711,4.3711,4.3711,4.3711,4.3711,4.3711,4.3711,4.3711,4.3711,4.3711,4.3711,0.0,0.0,0.0,0.0,4.3711,4.3711,4.3711,4.3711,4.3711,4.3711,4.375,4.4101,4.4316,4.4492,0.0,0.0,0.0,0.0,0.0,0.0,0.0,0.0,0.0,0.0,0.0,0.0,0.0,0.0,0.0,0.0,0.0,0.0,0.0,0.0,0.0,0.0,0.0,0.0,0.0,0.0,0.0,0.0,0.0,3.0086,0.0,0.0,0.0,0.0,0.0,0.0,0.0,0.0,0.0,0.0,0.0,0.0,0.0,0.0,0.0,0.0,0.0,0.0,0.0,3.0898,3.0898,3.0898,0.0,0.0,0.0,0.0,3.0898,0.0,0.0,0.0,0.0,0.0,0.0,0.0,0.0,0.0,0.0,0.0,0.0,0.0,0.0,0.0,0.0,3.4551,3.541,0.0,0.0,0.0,0.0,0.0,0.0,0.0,0.0,0.0,0.0,0.0,0.0,0.0,0.0,0.0,0.0,0.0,4.3711,4.3711,4.3711,4.3711,4.3711,4.3711,4.3711,4.3711,4.3711,4.3711,0.0,0.0,0.0,0.0,4.3711,4.3711,4.3711,4.373,4.3945,4.4023,4.4082,4.4512,4.4805,4.5039,0.0,0.0,0.0,0.0,0.0,0.0,0.0,0.0,0.0,0.0,0.0,0.0,0.0,0.0,0.0,0.0,0.0,0.0,0.0,0.0,0.0,0.0,0.0,0.0,0.0,0.0,0.0,0.0,0.0,0.0,0.0,0.0,3.1902,0.0,0.0,0.0,0.0,0.0,0.0,0.0,0.0,0.0,0.0,0.0,0.0,0.0,0.0,0.0,0.0,3.0898,3.0898,3.0898,3.0898,0.0,0.0,0.0,0.0,0.0,0.0,0.0,0.0,0.0,0.0,0.0,0.0,0.0,0.0,0.0,0.0,0.0,0.0,0.0,0.0,0.0,0.0,0.0,0.0,0.0,0.0,0.0,0.0,0.0,0.0,0.0,0.0,0.0,0.0,0.0,0.0,0.0,0.0,0.0,4.3711,4.3711,4.3711,4.3711,4.3711,4.3711,4.3711,4.3711,4.3711,4.3711,4.3711,0.0,0.0,0.0,4.3711,4.3711,4.375,4.3848,4.4238,4.4433,4.4551,4.4961,4.5351,4.5683,0.0,0.0,0.0,0.0,0.0,0.0,0.0,0.0,0.0,0.0,0.0,0.0,0.0,0.0,0.0,0.0,0.0,0.0,0.0,0.0,0.0,0.0,0.0,0.0,0.0,0.0,0.0,0.0,0.0,0.0,3.1584,3.1776,3.2809,0.0,0.0,0.0,0.0,0.0,0.0,0.0,0.0,0.0,0.0,0.0,0.0,0.0,0.0,0.0,0.0,3.0898,3.0898,3.0898,3.0898,0.0,0.0,0.0,0.0,0.0,3.0898,3.125,3.1875,0.0,0.0,0.0,0.0,0.0,0.0,0.0,0.0,0.0,0.0,0.0,0.0,0.0,0.0,0.0,0.0,0.0,0.0,0.0,0.0,0.0,0.0,0.0,0.0,0.0,0.0,0.0,0.0,0.0,0.0,0.0,0.0,4.3711,4.3711,4.3711,4.3711,4.3711,4.3711,4.3711,4.3711,4.3711,4.3711,0.0,0.0,4.3711,4.3711,4.3711,4.3926,4.4297,4.4375,4.4609,4.498,4.541,4.5625,4.5723,0.0,0.0,0.0,0.0,0.0,0.0,0.0,0.0,0.0,0.0,0.0,0.0,0.0,0.0,0.0,0.0,0.0,0.0,0.0,0.0,0.0,0.0,0.0,0.0,0.0,0.0,0.0,0.0,0.0,3.1189,3.2641,3.2526,3.3547,3.5288,0.0,0.0,0.0,0.0,0.0,0.0,0.0,0.0,0.0,0.0,0.0,0.0,0.0,0.0,0.0,0.0,3.0898,3.0898,3.0898,0.0,0.0,0.0,0.0,0.0,3.0898,3.1191,3.1934,0.0,0.0,0.0,0.0,0.0,0.0,0.0,0.0,0.0,0.0,0.0,0.0,0.0,0.0,0.0,0.0,0.0,0.0,0.0,0.0,0.0,0.0,0.0,0.0,0.0,0.0,0.0,0.0,0.0,0.0,0.0,0.0,4.3711,4.3711,4.3711,4.3711,4.3711,4.3711,4.3711,4.3711,4.3711,4.3711,4.3711,0.0,4.3711,4.373,4.3984,4.4199,4.4453,4.4902,4.5215,4.543,4.5859,4.6016,4.6035,0.0,0.0,0.0,0.0,0.0,0.0,0.0,0.0,0.0,0.0,0.0,0.0,0.0,0.0,0.0,0.0,0.0,0.0,0.0,0.0,0.0,0.0,0.0,0.0,0.0,0.0,3.2431,3.2733,3.2129,3.2436,3.3704,3.3615,3.4626,0.0,0.0,0.0,0.0,0.0,0.0,0.0,0.0,0.0,0.0,0.0,0.0,0.0,0.0,0.0,0.0,0.0,0.0,0.0,0.0,0.0,0.0,3.0898,3.1035,3.1152,3.0937,3.1269,3.2109,0.0,0.0,3.4297,3.5117,0.0,0.0,0.0,0.0,0.0,0.0,0.0,0.0,0.0,0.0,0.0,0.0,0.0,0.0,0.0,0.0,0.0,0.0,0.0,0.0,0.0,0.0,0.0,0.0,0.0,0.0,0.0,0.0,4.3711,4.3711,4.3711,4.3711,4.3711,4.3711,4.3711,4.3711,4.3711,4.3711,4.3711,4.3711,4.3769,4.3887,4.4258,4.4512,4.4766,4.543,4.5742,4.5859,4.6191,4.6308,4.6308,0.0,0.0,0.0,0.0,0.0,0.0,0.0,0.0,0.0,0.0,0.0,0.0,0.0,0.0,0.0,0.0,0.0,0.0,0.0,0.0,0.0,0.0,0.0,0.0,0.0,3.2955,3.2955,3.4288,3.1746,3.1607,3.402,3.4818,3.6619,3.9362,0.0,0.0,0.0,0.0,0.0,0.0,0.0,0.0,0.0,0.0,0.0,0.0,0.0,0.0,0.0,0.0,0.0,0.0,0.0,0.0,3.0898,3.0898,3.1445,3.1894,3.1113,3.1484,3.2344,3.3281,0.0,0.0,3.6641,0.0,0.0,0.0,0.0,0.0,0.0,0.0,0.0,0.0,0.0,0.0,0.0,0.0,0.0,0.0,0.0,0.0,0.0,0.0,0.0,0.0,0.0,0.0,0.0,0.0,0.0,0.0,0.0,4.3711,4.3711,4.3711,4.3711,4.3711,4.3711,4.3711,4.3711,4.3711,4.3711,4.3711,4.3711,4.3945,4.4355,4.4394,4.4863,4.5586,4.5644,4.5918,4.6269,4.6289,4.6308,4.6308,0.0,0.0,0.0,0.0,0.0,0.0,0.0,0.0,0.0,0.0,0.0,0.0,0.0,0.0,0.0,0.0,0.0,0.0,0.0,0.0,0.0,0.0,0.0,3.5667,3.5667,3.4264,3.3453,3.3055,3.2649,3.3586,3.5759,3.6377,0.0,0.0,0.0,0.0,0.0,0.0,0.0,0.0,0.0,0.0,0.0,0.0,0.0,0.0,0.0,0.0,0.0,0.0,3.2322,3.2322,3.2322,3.1652,3.0898,3.0898,3.1113,3.1309,3.0976,3.2293,3.3881,3.4103,3.52,0.0,0.0,0.0,0.0,0.0,0.0,0.0,0.0,0.0,0.0,0.0,0.0,0.0,0.0,0.0,0.0,0.0,0.0,0.0,0.0,0.0,0.0,0.0,0.0,0.0,0.0,0.0,0.0,0.0,0.0,4.3711,4.3711,4.3711,4.3711,4.3711,4.3711,4.3711,4.3711,4.3711,4.3711,4.373,4.4004,4.4238,4.4433,4.498,4.5391,4.5703,4.5957,4.6152,4.6308,4.6308,4.6308,4.6308,0.0,0.0,0.0,0.0,0.0,0.0,0.0,0.0,0.0,0.0,0.0,0.0,0.0,0.0,0.0,0.0,0.0,0.0,0.0,0.0,0.0,0.0,0.0,3.6358,3.6358,3.5647,3.482,3.3884,3.4395,3.548,3.6796,0.0,0.0,0.0,0.0,0.0,0.0,0.0,0.0,0.0,0.0,0.0,0.0,0.0,0.0,0.0,0.0,0.0,0.0,0.0,3.3417,3.362,3.2758,3.1977,3.1556,3.0995,3.1406,3.1896,3.1616,3.363,3.5734,3.5665,3.6725,0.0,0.0,0.0,0.0,0.0,0.0,0.0,0.0,0.0,0.0,0.0,0.0,0.0,0.0,0.0,0.0,0.0,0.0,0.0,0.0,0.0,0.0,0.0,0.0,0.0,0.0,0.0,0.0,0.0,0.0,0.0,4.3711,4.3711,4.3711,4.3711,4.3711,4.3711,4.3711,4.3711,4.3789,4.3945,4.4258,4.4551,4.4844,4.543,4.5762,4.5898,4.6191,4.6308,4.6308,4.6308,4.6308,4.6308,0.0,0.0,0.0,0.0,0.0,0.0,0.0,0.0,0.0,0.0,0.0,0.0,0.0,0.0,0.0,0.0,0.0,0.0,0.0,0.0,0.0,0.0,0.0,3.6358,3.6358,3.691,3.7211,3.7211,3.6909,3.6796,3.6796,3.7321,0.0,0.0,0.0,0.0,0.0,0.0,0.0,0.0,0.0,0.0,0.0,0.0,0.0,0.0,0.0,0.0,0.0,0.0,3.4069,3.4847,3.1883,3.1998,3.2871,3.1344,3.2626,3.4253,3.335,3.5591,3.8111,3.7781,0.0,0.0,0.0,0.0,0.0,0.0,0.0,0.0,0.0,0.0,0.0,0.0,0.0,0.0,0.0,0.0,0.0,0.0,0.0,0.0,0.0,0.0,0.0,0.0,0.0,0.0,0.0,0.0,0.0,0.0,0.0,0.0,4.3711,4.3711,4.3711,4.3711,4.3711,4.3711,4.3711,4.3711,4.3965,4.4394,4.4414,4.4883,4.5683,4.5683,4.5918,4.6308,4.6308,4.6308,4.6308,4.6308,4.6308,4.6308,0.0,0.0,0.0,0.0,0.0,0.0,0.0,0.0,0.0,0.0,0.0,0.0,0.0,0.0,0.0,0.0,0.0,0.0,0.0,0.0,0.0,0.0,0.0,0.0,0.0,0.0,3.8366,3.8366,3.7273,3.7508,0.0,0.0,0.0,3.9697,0.0,0.0,0.0,0.0,0.0,0.0,0.0,0.0,0.0,0.0,0.0,0.0,0.0,0.0,0.0,0.0,0.0,0.0,3.4626,3.3529,3.3203,3.3526,3.4018,3.4997,3.6538,0.0,0.0,0.0,0.0,0.0,0.0,0.0,0.0,0.0,0.0,0.0,0.0,0.0,0.0,0.0,0.0,0.0,0.0,0.0,0.0,0.0,0.0,0.0,0.0,0.0,0.0,0.0,0.0,0.0,0.0,0.0,0.0,0.0,0.0,0.0,4.3711,4.3711,4.3711,4.3711,4.3711,4.3711,4.3711,4.4043,4.4258,4.4433,4.5039,4.5449,4.5703,4.5996,4.6191,4.6308,4.6308,4.6308,4.6308,4.6308,4.6308,4.6308,0.0,0.0,0.0,0.0,0.0,0.0,0.0,0.0,0.0,0.0,3.6358,3.6358,0.0,0.0,0.0,0.0,0.0,0.0,0.0,0.0,0.0,0.0,0.0,0.0,0.0,3.8417,3.8969,0.0,0.0,0.0,0.0,0.0,0.0,3.9697,0.0,3.9697,0.0,0.0,3.9697,3.9697,0.0,0.0,0.0,0.0,0.0,0.0,0.0,0.0,0.0,0.0,0.0,0.0,3.5288,3.4441,3.4447,3.418,3.4987,3.6435,3.8273,0.0,0.0,0.0,0.0,0.0,0.0,0.0,0.0,0.0,0.0,0.0,0.0,0.0,0.0,0.0,0.0,0.0,0.0,0.0,0.0,0.0,0.0,0.0,0.0,0.0,0.0,0.0,0.0,0.0,0.0,0.0,0.0,0.0,0.0,0.0,4.3711,4.3711,4.3711,4.3711,4.3711,4.3808,4.3984,4.4277,4.4492,4.4687,4.5547,4.5918,4.5937,4.6191,4.6308,4.6308,4.6308,4.6308,4.6308,4.6308,4.6308,4.6308,0.0,0.0,0.0,0.0,0.0,0.0,0.0,0.0,0.0,0.0,3.6358,3.6358,0.0,0.0,0.0,0.0,0.0,0.0,0.0,0.0,0.0,0.0,0.0,0.0,0.0,0.0,0.0,0.0,0.0,0.0,0.0,0.0,3.9697,3.9697,0.0,3.9697,0.0,0.0,3.9697,0.0,0.0,0.0,0.0,0.0,0.0,0.0,0.0,0.0,0.0,0.0,0.0,0.0,3.4714,3.488,3.6112,3.421,3.5873,3.8521,0.0,0.0,0.0,0.0,0.0,0.0,0.0,0.0,0.0,0.0,0.0,0.0,0.0,0.0,0.0,0.0,0.0,0.0,0.0,0.0,0.0,0.0,0.0,0.0,0.0,0.0,0.0,0.0,0.0,0.0,0.0,0.0,0.0,0.0,0.0,0.0,4.3711,4.3711,4.3711,0.0,4.3711,4.3945,4.4394,4.4433,4.4707,4.5195,4.5957,4.6308,4.6308,4.6308,4.6308,4.6308,4.6308,4.6308,4.6308,4.6308,4.6308,4.6308,0.0,0.0,0.0,0.0,0.0,0.0,0.0,0.0,0.0,0.0,0.0,0.0,0.0,0.0,0.0,0.0,0.0,0.0,0.0,0.0,0.0,0.0,0.0,0.0,0.0,0.0,0.0,0.0,0.0,0.0,0.0,0.0,0.0,3.9697,0.0,3.9697,0.0,0.0,0.0,0.0,0.0,3.9697,3.9697,0.0,0.0,0.0,0.0,0.0,0.0,0.0,0.0,0.0,3.6811,3.6082,3.5825,3.7396,3.833,0.0,0.0,0.0,0.0,0.0,0.0,0.0,0.0,0.0,0.0,0.0,0.0,0.0,0.0,0.0,0.0,0.0,0.0,0.0,0.0,0.0,0.0,0.0,0.0,0.0,0.0,0.0,0.0,0.0,0.0,0.0,0.0,0.0,0.0,0.0,0.0,4.3711,4.3711,4.3711,4.3711,0.0,4.3711,4.3945,4.4414,4.4746,4.5312,4.6035,4.623,4.6308,4.6308,4.6308,4.6308,4.6308,4.6308,4.6308,4.6308,4.6308,4.6308,4.6308,0.0,0.0,0.0,0.0,0.0,0.0,0.0,0.0,0.0,0.0,0.0,0.0,0.0,0.0,0.0,0.0,0.0,0.0,0.0,0.0,0.0,0.0,0.0,0.0,0.0,0.0,0.0,0.0,0.0,0.0,0.0,0.0,0.0,3.9697,0.0,3.9697,0.0,0.0,0.0,0.0,0.0,3.9697,3.9697,3.9697,0.0,0.0,0.0,0.0,0.0,0.0,0.0,0.0,0.0,0.0,3.6229,3.7825,3.853,3.9426,0.0,0.0,0.0,0.0,0.0,0.0,0.0,0.0,0.0,0.0,0.0,0.0,0.0,0.0,0.0,0.0,0.0,0.0,0.0,0.0,0.0,0.0,0.0,0.0,0.0,0.0,0.0,0.0,0.0,0.0,0.0,0.0,0.0,0.0,4.3711,4.3711,4.3711,4.3711,4.3711,4.3711,4.3711,4.4062,4.4707,4.5137,4.5683,4.6308,4.6308,4.6308,4.6308,4.6308,4.6308,4.6308,4.6308,4.6308,4.6308,4.6308,4.6308,4.6308,0.0,0.0,0.0,0.0,0.0,0.0,0.0,0.0,0.0,0.0,0.0,0.0,0.0,0.0,0.0,0.0,0.0,0.0,0.0,0.0,0.0,0.0,0.0,0.0,0.0,3.9471,3.9697,0.0,0.0,0.0,0.0,0.0,0.0,3.9697,0.0,0.0,0.0,0.0,0.0,0.0,0.0,3.9697,3.9697,3.9697,3.9697,3.9697,3.9697,0.0,0.0,0.0,0.0,0.0,0.0,0.0,3.6567,3.7284,3.778,3.8804,0.0,0.0,0.0,0.0,0.0,0.0,0.0,0.0,0.0,0.0,0.0,0.0,0.0,0.0,0.0,0.0,0.0,0.0,0.0,0.0,0.0,0.0,0.0,0.0,0.0,0.0,0.0,0.0,0.0,0.0,0.0,0.0,4.3711,4.3711,4.3711,4.3711,4.3711,4.3711,4.3711,4.3711,4.3867,4.4355,4.5156,4.5586,4.5976,4.6308,4.6308,4.6308,4.6308,4.6308,4.6308,4.6308,4.6308,4.6308,4.6308,4.6308,4.6308,4.6308,0.0,0.0,0.0,0.0,0.0,0.0,0.0,0.0,0.0,0.0,3.6358,0.0,0.0,0.0,0.0,0.0,0.0,0.0,0.0,0.0,0.0,0.0,0.0,0.0,0.0,0.0,3.9697,0.0,0.0,0.0,0.0,0.0,0.0,3.9697,0.0,0.0,0.0,0.0,0.0,0.0,0.0,3.9697,3.9697,3.9697,3.9697,3.9697,0.0,0.0,0.0,0.0,0.0,0.0,0.0,0.0,0.0,3.7073,0.0,0.0,0.0,0.0,0.0,0.0,0.0,0.0,0.0,0.0,0.0,0.0,0.0,0.0,0.0,0.0,0.0,0.0,0.0,0.0,0.0,0.0,0.0,0.0,0.0,0.0,0.0,0.0,0.0,0.0,0.0,0.0,0.0,4.3711,4.3711,4.3711,4.3711,4.3711,4.3711,4.3711,4.3711,4.3711,4.4473,4.5117,4.5605,4.6035,4.625,4.6308,4.6308,4.6308,4.6308,4.6308,4.6308,4.6308,4.6308,4.6308,4.6308,4.6308,4.6308,4.6308,0.0,0.0,0.0,0.0,0.0,0.0,0.0,0.0,0.0,0.0,0.0,3.6358,0.0,0.0,0.0,0.0,0.0,0.0,0.0,0.0,0.0,0.0,0.0,0.0,0.0,0.0,0.0,0.0,0.0,0.0,0.0,3.9697,3.9697,0.0,0.0,0.0,0.0,0.0,0.0,0.0,0.0,3.9697,3.9697,3.9697,3.9697,3.9697,3.9697,0.0,0.0,0.0,0.0,0.0,0.0,0.0,0.0,0.0,0.0,0.0,0.0,0.0,0.0,0.0,0.0,0.0,0.0,0.0,0.0,0.0,0.0,0.0,0.0,0.0,0.0,0.0,0.0,0.0,0.0,0.0,0.0,0.0,0.0,0.0,0.0,0.0,0.0,0.0,0.0,0.0,4.3711,4.3711,4.3711,4.3711,4.3711,4.3711,4.3711,4.3711,4.3828,4.4101,4.4726,4.5254,4.5683,4.6113,4.6308,4.6308,4.6308,4.6308,4.6308,4.6308,4.6308,4.6308,4.6308,4.6308,4.6308,4.6308,4.6308,4.6308,0.0,0.0,0.0,0.0,0.0,0.0,0.0,0.0,0.0,0.0,0.0,0.0,0.0,0.0,0.0,0.0,0.0,0.0,0.0,0.0,0.0,0.0,0.0,0.0,0.0,0.0,0.0,0.0,0.0,0.0,3.9697,3.9697,3.9697,0.0,3.9697,0.0,0.0,0.0,0.0,0.0,0.0,0.0,3.9697,3.9697,0.0,3.9697,3.9697,0.0,0.0,0.0,0.0,0.0,0.0,0.0,0.0,0.0,0.0,0.0,0.0,0.0,0.0,0.0,0.0,0.0,0.0,0.0,0.0,0.0,0.0,0.0,0.0,0.0,0.0,0.0,0.0,0.0,0.0,0.0,0.0,0.0,0.0,0.0,0.0,0.0,0.0,0.0,0.0,0.0,4.3711,4.3711,4.3711,4.3711,4.3711,4.3711,4.3711,4.3711,4.3984,4.457,4.4883,4.5312,4.584,4.6152,4.6308,4.6308,4.6308,4.6308,4.6308,4.6308,4.6308,4.6308,4.6308,4.6308,4.6308,4.6308,4.6308,4.6308,0.0,0.0,0.0,0.0,0.0,0.0,0.0,0.0,0.0,0.0,0.0,0.0,3.6358,3.6835,3.7136,3.7136,0.0,0.0,0.0,0.0,0.0,0.0,0.0,0.0,0.0,0.0,0.0,0.0,0.0,0.0,3.9697,3.9697,3.9697,3.9697,3.9697,3.9697,3.9697,0.0,0.0,0.0,0.0,0.0,0.0,0.0,0.0,0.0,0.0,0.0,0.0,0.0,0.0,0.0,0.0,0.0,0.0,0.0,0.0,0.0,0.0,0.0,0.0,0.0,0.0,0.0,0.0,0.0,0.0,0.0,0.0,0.0,0.0,0.0,0.0,0.0,0.0,0.0,0.0,0.0,0.0,0.0,0.0,0.0,0.0,0.0,0.0,0.0,0.0,0.0,4.3711,4.3711,4.3711,4.3711,4.3711,4.3711,4.3711,4.3711,4.4141,4.5,4.5019,4.5469,4.6269,4.6289,4.6308,4.6308,4.6308,4.6308,4.6308,4.6308,4.6308,4.6308,4.6308,4.6308,4.6308,4.6308,4.6308,4.6308,0.0,0.0,0.0,0.0,0.0,0.0,0.0,0.0,0.0,0.0,0.0,0.0,0.0,3.7588,3.7713,3.7713,3.8241,0.0,0.0,0.0,0.0,0.0,0.0,0.0,0.0,0.0,0.0,0.0,0.0,3.9697,3.9697,3.9697,3.9697,3.9697,3.9697,3.9697,3.9697,3.9697,0.0,0.0,0.0,0.0,0.0,0.0,0.0,0.0,0.0,0.0,0.0,0.0,0.0,0.0,0.0,0.0,3.7026,3.8477,3.9258,3.9772,0.0,0.0,0.0,0.0,0.0,0.0,0.0,0.0,0.0,0.0,0.0,0.0,0.0,0.0,0.0,0.0,0.0,0.0,0.0,0.0,0.0,0.0,0.0,0.0,0.0,0.0,0.0,0.0,0.0,0.0,4.3711,4.3711,4.3711,4.3711,4.3711,4.3711,4.3711,4.3711,4.4141,4.5019,4.5019,4.5469,4.6308,4.6308,4.6308,4.6308,4.6308,4.6308,4.6308,4.6308,4.6308,4.6308,4.6308,4.6308,4.6308,4.6308,4.6308,4.6308,0.0,0.0,0.0,0.0,0.0,0.0,0.0,0.0,0.0,3.7387,0.0,0.0,0.0,0.0,3.8366,3.8542,3.8919,3.9295,3.9672,3.9697,0.0,0.0,0.0,0.0,0.0,0.0,0.0,0.0,0.0,0.0,0.0,3.9697,3.9697,3.9697,3.9697,3.9697,0.0,0.0,0.0,3.9747,0.0,0.0,4.0827,0.0,0.0,0.0,0.0,0.0,0.0,0.0,0.0,0.0,0.0,0.0,3.8348,3.8792,3.9362,3.9697,3.9697,0.0,0.0,0.0,0.0,0.0,0.0,0.0,0.0,0.0,0.0,0.0,0.0,0.0,0.0,0.0,0.0,0.0,0.0,0.0,0.0,0.0,0.0,0.0,0.0,0.0,0.0,0.0,0.0,0.0,4.3711,4.3711,4.3711,4.3711,4.3711,4.3711,4.3711,4.3711,4.4141,4.5019,4.5019,4.5469,4.6308,4.6308,4.6308,4.6308,4.6308,4.6308,4.6308,4.6308,4.6308,4.6308,4.6308,4.6308,4.6308,4.6308,4.6308,4.6308,0.0,0.0,0.0,0.0,0.0,0.0,0.0,0.0,3.7412,3.7965,0.0,0.0,0.0,0.0,0.0,3.9647,3.9697,3.9697,3.9697,3.9697,3.9697,3.9697,0.0,0.0,0.0,0.0,0.0,0.0,0.0,0.0,0.0,0.0,3.9697,3.9697,3.9697,3.9697,3.9697,0.0,3.9697,3.9697,0.0,3.9798,3.9898,0.0,0.0,0.0,4.2635,4.3037,0.0,0.0,0.0,0.0,0.0,0.0,3.9465,3.8007,3.8582,3.9697,0.0,0.0,0.0,0.0,0.0,0.0,0.0,0.0,0.0,0.0,0.0,0.0,0.0,0.0,0.0,0.0,0.0,0.0,0.0,0.0,0.0,0.0,0.0,0.0,0.0,0.0,0.0,0.0,0.0,4.3711,4.3711,4.3711,4.3711,4.3711,4.3711,4.3711,4.3711,4.3711,4.4141,4.5019,4.5019,4.5469,4.6308,4.6308,4.6308,4.6308,4.6308,4.6308,4.6308,4.6308,4.6308,4.6308,4.6308,4.6308,4.6308,4.6308,4.6308,4.6308,0.0,0.0,0.0,0.0,0.0,0.0,3.7688,3.7789,3.799,0.0,0.0,0.0,3.9195,3.9371,3.9521,3.9672,3.9697,3.9697,3.9697,3.9697,3.9697,3.9697,3.9697,3.9697,3.9697,0.0,0.0,0.0,0.0,0.0,0.0,0.0,0.0,0.0,3.9697,3.9697,3.9697,3.9697,0.0,0.0,4.143,4.2057,0.0,0.0,0.0,0.0,0.0,4.4166,0.0,0.0,4.3861,4.1767,0.0,0.0,3.9594,3.9233,3.9362,3.9697,3.9697,0.0,0.0,0.0,0.0,0.0,0.0,0.0,0.0,0.0,0.0,0.0,0.0,0.0,0.0,0.0,0.0,0.0,0.0,0.0,0.0,0.0,0.0,0.0,0.0,0.0,0.0,0.0,4.4315,4.3711,4.3711,4.3711,4.3711,4.3711,4.3711,4.3711,4.3711,4.3711,4.4141,4.5019,4.5019,4.5469,4.6308,4.6308,4.6308,4.6308,4.6308,4.6308,4.6308,4.6308,4.6308,4.6308,4.6308,4.6308,4.6308,4.6308,4.6308,4.6308,0.0,0.0,0.0,0.0,0.0,0.0,3.8291,3.8366,3.8567,0.0,0.0,0.0,3.9672,3.9697,3.9697,3.9697,3.9697,3.9697,3.9697,3.9697,3.9697,3.9697,3.9697,3.9697,3.9697,3.9697,3.9697,0.0,0.0,3.9697,3.9697,3.9697,3.9697,0.0,0.0,0.0,0.0,0.0,0.0,0.0,4.1279,0.0,0.0,4.3514,4.394,0.0,0.0,0.0,4.5422,4.61,4.5121,0.0,0.0,0.0,4.0065,3.8388,3.8267,3.8792,3.8792,3.8792,3.8921,0.0,0.0,0.0,0.0,0.0,0.0,0.0,0.0,0.0,0.0,0.0,0.0,0.0,0.0,0.0,0.0,0.0,0.0,0.0,0.0,0.0,0.0,0.0,0.0,0.0,4.5814,4.4658,4.3711,4.3711,4.3711,4.3711,4.3711,4.3711,4.3711,4.3711,4.4141,4.5019,4.5019,4.5469,4.6308,4.6308,4.6308,4.6308,4.6308,4.6308,4.6308,4.6308,4.6308,4.6308,4.6308,4.6308,4.6308,4.6308,4.6308,4.6308,0.0,0.0,0.0,0.0,0.0,0.0,3.8868,3.8969,3.9145,0.0,3.9697,3.9697,3.9697,3.9697,3.9697,3.9697,3.9697,3.9697,3.9697,3.9697,3.9697,3.9697,3.9697,3.9697,3.9697,3.9697,3.9697,3.9697,3.9697,3.9697,3.9697,3.9697,3.9697,3.9697,0.0,0.0,0.0,0.0,0.0,4.1254,4.04,4.0727,0.0,0.0,4.3338,0.0,4.5598,4.6301,4.6276,4.6024,4.5347,0.0,0.0,0.0,4.0591,3.706,3.6796,3.7796,3.7796,3.7796,3.8031,0.0,0.0,0.0,4.1505,4.3037,4.4794,0.0,0.0,0.0,0.0,0.0,0.0,0.0,0.0,0.0,0.0,0.0,0.0,0.0,0.0,0.0,0.0,0.0,5.0741,4.9418,4.782,4.5941,4.3856,4.3711,4.3711,4.3711,4.3711,4.3711,4.3711,4.3711,4.4121,4.4961,4.5,4.5449,4.623,4.6289,4.6308,4.6308,4.6308,4.6308,4.6308,4.6308,4.6308,4.6308,4.6308,4.6308,4.6308,4.6308,4.6308,4.6308,0.0,0.0,0.0,0.0,0.0,0.0,0.0,3.9521,3.9572,3.9672,3.9697,3.9697,3.9697,3.9697,3.9697,3.9697,3.9697,3.9697,3.9697,3.9697,3.9697,3.9697,3.9697,3.9697,3.9697,3.9697,3.9697,3.9697,3.9697,3.9697,3.9697,3.9697,3.9697,3.9697,0.0,0.0,0.0,0.0,0.0,4.1404,4.2057,0.0,4.4091,4.5221,4.5673,4.5723,4.615,4.6301,4.6024,0.0,4.4066,4.4077,0.0,0.0,0.0,4.0384,3.9717,3.9258,3.9258,0.0,0.0,0.0,0.0,0.0,4.2459,4.2986,0.0,0.0,0.0,0.0,0.0,0.0,0.0,0.0,0.0,0.0,0.0,0.0,0.0,0.0,0.0,0.0,0.0,0.0,5.0788,5.1013,4.8386,4.592,4.3856,4.3711,4.3711,4.3711,4.3711,4.3711,4.3711,4.3711,4.3984,4.4531,4.4863,4.5293,4.5801,4.6152,4.6308,4.6308,4.6308,4.6308,4.6308,4.6308,4.6308,4.6308,4.6308,4.6308,4.6308,4.6308,4.6308,4.6308,0.0,0.0,0.0,0.0,0.0,0.0,0.0,3.9697,3.9697,3.9697,3.9697,3.9697,3.9697,3.9697,3.9697,3.9697,3.9697,3.9697,3.9697,3.9697,3.9697,3.9697,3.9697,3.9697,3.9697,3.9697,3.9697,3.9697,3.9697,3.9697,3.9697,3.9697,3.9697,3.9697,3.9697,0.0,0.0,0.0,4.1153,4.2158,4.2158,0.0,4.3915,4.5045,4.5472,4.5547,4.61,4.6301,4.605,4.4367,4.4166,0.0,0.0,4.1781,4.1114,0.0,3.9414,3.8582,0.0,0.0,0.0,3.9815,0.0,0.0,0.0,4.2785,0.0,0.0,0.0,0.0,0.0,0.0,0.0,0.0,0.0,0.0,0.0,0.0,0.0,0.0,0.0,0.0,0.0,0.0,5.2089,5.1864,5.0407,4.8784,4.7006,4.5758,4.5291,4.5291,4.4166,4.3711,4.3711,4.3711,4.3945,4.4394,4.4824,4.5254,4.5683,4.6113,4.6308,4.6308,4.6308,4.6308,4.6308,4.6308,4.6308,4.6308,4.6308,4.6308,4.6308,4.6308,4.6308,4.6308,3.8944,3.9019,0.0,0.0,0.0,0.0,0.0,3.9697,3.9697,3.9697,3.9697,3.9772,3.9998,3.9823,3.9772,3.9998,3.9823,3.9697,3.9697,3.9697,3.9697,3.9697,3.9697,3.9697,3.9697,3.9697,3.9697,3.9697,3.9697,3.9697,3.9697,3.9697,3.9697,3.9697,3.9697,0.0,0.0,0.0,0.0,4.2911,0.0,4.2509,4.3413,4.4518,4.4819,4.4794,4.6024,4.6476,4.6326,4.5296,0.0,4.502,4.3714,4.2685,0.0,0.0,0.0,0.0,0.0,0.0,0.0,0.0,0.0,4.1605,0.0,0.0,0.0,0.0,0.0,0.0,0.0,0.0,0.0,0.0,0.0,0.0,0.0,0.0,0.0,0.0,0.0,0.0,0.0,0.0,5.3211,5.2249,5.2268,5.1629,5.0119,4.8439,4.7486,4.7486,4.5758,4.4638,4.433,4.4638,4.4693,4.4277,4.5103,4.5536,4.5566,4.6074,4.6308,4.6308,4.6308,4.6308,4.6308,4.6308,4.6308,4.6308,4.6308,4.6308,4.6308,4.6308,4.6308,4.6308,3.9597,3.9597,3.9622,0.0,0.0,0.0,0.0,3.9697,3.9697,3.9697,3.9697,4.0074,4.1053,4.0275,4.0099,4.1078,4.0249,0.0,3.9697,0.0,3.9697,3.9697,3.9697,3.9697,3.9697,3.9697,3.9697,3.9697,3.9697,3.9697,3.9697,3.9697,3.9697,3.9697,3.9697,0.0,0.0,0.0,4.1982,0.0,4.3915,4.4317,0.0,4.5698,4.5497,4.4844,4.6451,4.7054,4.6954,0.0,4.6753,4.7179,0.0,4.4342,4.4066,0.0,0.0,0.0,0.0,0.0,0.0,0.0,4.1656,0.0,0.0,0.0,0.0,0.0,0.0,0.0,0.0,0.0,0.0,0.0,0.0,0.0,0.0,0.0,0.0,0.0,0.0,0.0,0.0,0.0,0.0,5.1554,5.2054,5.1629,5.0119,4.983,4.9674,4.9674,4.9361,4.8439,4.6384,4.8259,4.7347,4.3789,4.6535,4.6817,4.5117,4.5937,4.6308,4.6308,4.6308,4.6308,4.6308,4.6308,4.6308,4.6308,4.6308,4.6308,4.6308,4.6308,4.6308,4.6308,3.9697,3.9697,3.9697,3.9697,0.0,0.0,3.9697,3.9697,3.9697,3.9697,3.9697,4.0124,4.1229,0.0,0.0,0.0,0.0,4.0927,0.0,0.0,4.0927,4.158,4.0375,3.9998,4.0626,4.0023,3.9697,3.9697,3.9697,3.9697,3.9697,3.9697,3.9697,3.9722,4.035,0.0,4.143,0.0,0.0,0.0,0.0,0.0,0.0,4.4895,4.5246,4.5347,4.6979,4.7581,4.7556,0.0,4.7129,0.0,0.0,0.0,0.0,0.0,0.0,0.0,0.0,0.0,0.0,0.0,0.0,0.0,4.271,0.0,4.1899,0.0,0.0,0.0,0.0,0.0,0.0,0.0,0.0,0.0,0.0,0.0,0.0,0.0,0.0,0.0,0.0,0.0,0.0,0.0,0.0,5.2547,5.2137,5.1977,5.1861,5.1861,5.0607,4.9518,4.8755,4.9518,4.9047,4.7347,4.779,4.7589,4.6817,4.6398,4.6308,4.6308,4.6308,4.6308,4.6308,4.6308,4.6308,4.6308,4.6308,4.6308,4.6308,4.6308,4.6308,4.6308,3.9697,3.9697,3.9697,0.0,0.0,0.0,3.9697,3.9697,3.9697,3.9697,3.9697,0.0,4.163,4.0526,0.0,0.0,0.0,4.1806,0.0,0.0,4.1831,0.0,0.0,0.0,0.0,4.0551,3.9998,3.9697,3.9697,3.9697,3.9697,3.9697,3.9697,3.9722,0.0,4.1229,4.1907,0.0,0.0,4.3966,4.492,4.4744,4.3966,4.4618,4.5221,4.5924,4.7556,4.7958,4.7757,4.8209,4.7857,0.0,4.7757,0.0,0.0,0.0,0.0,0.0,4.3689,0.0,0.0,0.0,0.0,0.0,0.0,0.0,0.0,0.0,0.0,0.0,0.0,0.0,0.0,4.2986,0.0,0.0,0.0,0.0,0.0,0.0,0.0,0.0,0.0,0.0,0.0,0.0,0.0,0.0,5.3658,5.3495,5.3418,5.3876,5.2471,5.1401,5.0916,5.1401,5.1093,5.0009,4.9723,4.9394,4.889,4.7589,4.7021,4.7121,4.6638,4.6308,4.6308,4.6308,4.6308,4.6308,4.6308,4.6308,4.6308,4.6308,4.6308,4.6308,3.9697,3.9697,0.0,0.0,0.0,0.0,3.9697,3.9697,3.9697,0.0,0.0,0.0,0.0,0.0,0.0,0.0,0.0,4.1806,4.2911,0.0,4.1831,0.0,0.0,0.0,0.0,4.1304,4.0752,3.9697,3.9697,3.9697,3.9697,3.9697,3.9697,3.9697,0.0,4.0927,4.2936,4.3011,4.4267,4.625,4.6828,4.6702,4.615,0.0,4.5799,4.6502,4.8159,0.0,0.0,4.9012,4.9515,0.0,0.0,0.0,0.0,0.0,0.0,0.0,0.0,0.0,0.0,4.5949,0.0,0.0,0.0,0.0,4.2961,0.0,0.0,0.0,0.0,4.2986,4.2986,4.2986,4.2986,0.0,0.0,0.0,0.0,0.0,0.0,0.0,0.0,0.0,0.0,0.0,0.0,0.0,5.3582,5.3758,5.4369,5.5997,5.6047,5.4967,5.2949,5.4967,5.4025,5.0009,5.2372,5.2727,5.1304,4.9545,4.9028,4.9276,4.7295,4.6308,4.6308,4.6308,4.6308,4.6308,4.6308,4.6308,4.6308,4.6308,4.6308,4.6308,3.9697,3.9697,0.0,0.0,0.0,0.0,3.9697,3.9697,0.0,0.0,0.0,0.0,0.0,0.0,4.2911,0.0,0.0,4.3991,4.5121,4.4141,0.0,0.0,0.0,4.2434,0.0,0.0,4.0802,3.9697,3.9697,3.9697,3.9697,3.9697,3.9697,3.9722,0.0,4.1605,0.0,0.0,0.0,0.0,0.0,4.625,4.5899,0.0,0.0,4.7079,4.8711,4.9063,0.0,4.9414,4.959,4.9515,4.9138,4.851,4.7832,4.7481,4.6878,0.0,0.0,0.0,4.6878,4.728,0.0,0.0,0.0,0.0,0.0,0.0,0.0,0.0,0.0,4.3463,4.3212,4.394,4.3463,4.2986,0.0,0.0,0.0,0.0,0.0,0.0,0.0,0.0,0.0,0.0,0.0,0.0,0.0,5.3105,5.4461,5.6168,5.6219,5.5901,5.5115,5.5901,5.5435,5.405,5.3776,5.366,5.3395,5.1796,5.0493,4.9616,4.8784,4.7641,4.6308,4.6308,4.6308,4.6308,4.6308,4.6308,4.6308,4.6308,4.6308,4.6308,3.9697,0.0,0.0,0.0,0.0,0.0,0.0,0.0,0.0,0.0,4.1856,0.0,4.4166,0.0,4.4468,0.0,4.5874,4.5698,4.6803,4.5849,0.0,4.6552,4.4844,0.0,0.0,0.0,4.1379,4.0275,3.9898,3.9697,3.9697,3.9697,3.9697,3.9722,0.0,0.0,0.0,0.0,4.4543,0.0,0.0,4.615,0.0,0.0,4.7782,4.7079,0.0,4.9339,4.9063,4.9464,4.959,4.959,4.959,4.9088,4.851,4.851,4.8033,4.7631,4.8335,4.8209,0.0,4.841,4.7405,0.0,4.5874,0.0,0.0,0.0,0.0,0.0,0.0,0.0,4.3212,4.3915,4.3438,4.2986,0.0,4.3288,0.0,0.0,0.0,0.0,0.0,0.0,0.0,0.0,0.0,0.0,0.0,0.0,5.3783,5.5867,5.6118,5.6219,5.6219,5.6219,5.6219,5.6219,5.5162,5.4824,5.5356,5.3808,5.2042,5.0542,4.9871,4.829,4.6308,4.6308,4.6308,4.6308,4.6308,4.6308,4.6308,4.6308,4.6308,4.6308,3.9697,0.0,0.0,0.0,3.9747,0.0,0.0,0.0,4.1404,0.0,4.2836,4.3865,4.3915,4.4443,4.5623,4.7732,4.6979,0.0,4.7832,4.6954,0.0,0.0,4.6175,4.5321,4.4719,0.0,0.0,4.1379,4.0249,3.9697,3.9697,3.9697,3.9697,3.9697,3.9722,0.0,4.148,4.3087,4.384,4.4066,4.5221,4.6577,4.7908,4.7958,0.0,4.6677,4.8812,4.8912,4.8159,4.9238,4.959,4.959,4.9615,4.964,4.964,4.9665,4.9665,4.9665,4.9665,4.8887,4.8335,4.9414,0.0,0.0,0.0,0.0,4.6376,0.0,0.0,0.0,0.0,0.0,4.3162,4.3212,4.3112,4.3011,4.3011,0.0,0.0,0.0,0.0,0.0,0.0,0.0,0.0,0.0,0.0,0.0,0.0,0.0,5.2477,5.5214,5.5817,5.6093,5.6118,5.6118,5.6118,5.6118,5.6194,5.6495,5.6899,5.5356,5.3808,5.2227,5.0374,4.8442,4.6464,4.6308,4.6308,4.6308,4.6308,4.6308,4.6308,4.6308,4.6308,4.6308,3.9697,3.9697,3.9823,0.0,4.0651,4.1003,0.0,0.0,0.0,0.0,4.389,4.4744,4.5573,4.6502,4.728,4.7857,4.7657,0.0,0.0,0.0,0.0,4.7707,4.7431,4.6853,4.5899,4.4367,0.0,4.1957,4.0425,3.9697,3.9697,3.9697,3.9697,3.9722,0.0,0.0,4.2007,4.2836,4.4392,4.6401,4.7933,4.8284,0.0,0.0,4.846,4.7682,4.9088,4.9414,4.9213,4.949,4.959,4.9665,5.0067,5.0193,5.0293,5.072,5.0845,5.0845,5.0845,5.0645,5.0494,5.077,4.9791,4.8812,0.0,0.0,0.0,0.0,0.0,0.0,0.0,0.0,0.0,4.6502,4.492,4.3589,4.3589,0.0,0.0,0.0,0.0,0.0,0.0,0.0,0.0,0.0,0.0,0.0,0.0,0.0,0.0,5.4059,5.426,5.4561,5.4988,5.4988,5.4988,5.4988,5.5817,5.6495,5.7047,5.6551,5.5703,5.448,5.2316,5.0456,4.8634,4.6967,4.6308,4.6308,4.6308,4.6308,4.6308,4.6308,4.6308,4.6308,4.04,0.0,0.0,4.0827,0.0,0.0,4.271,0.0,0.0,4.4819,4.5799,0.0,4.6652,4.7857,4.8636,4.8636,4.8636,0.0,0.0,0.0,0.0,4.8284,4.8284,4.7883,4.7029,4.5623,0.0,4.3237,0.0,4.0877,4.04,4.04,4.04,4.0425,0.0,4.1229,0.0,4.2911,4.4669,4.6853,4.7782,0.0,0.0,4.8611,4.8912,4.9088,4.9715,4.9791,4.964,4.9866,4.9967,5.0042,5.0619,5.0795,5.087,5.1197,5.1272,5.1272,5.1272,5.1272,5.1272,5.1272,5.0795,5.0318,5.0318,4.9841,4.9389,0.0,0.0,0.0,0.0,0.0,0.0,4.6451,4.5171,4.4166,0.0,0.0,0.0,0.0,0.0,0.0,0.0,0.0,0.0,0.0,0.0,0.0,0.0,0.0,0.0,5.3281,5.3582,5.3758,5.3858,5.4813,5.5039,5.4587,5.5691,5.6369,5.6671,5.6922,5.6245,5.4964,5.4045,5.2637,5.0946,4.8634,4.7794,4.7641,4.6638,4.6308,4.6308,4.6308,4.6308,4.6308,0.0,0.0,0.0,0.0,0.0,0.0,0.0,4.5623,0.0,4.6401,0.0,4.8284,4.733,4.8636,4.959,4.959,0.0,4.959,4.959,4.959,4.9389,4.8912,4.8887,4.8636,4.8134,4.7004,0.0,0.0,0.0,4.2409,4.1329,4.1329,4.1329,4.1329,0.0,0.0,0.0,4.3463,4.5045,0.0,4.6677,4.733,4.8234,4.8234,4.9188,5.0519,5.0519,5.0218,4.9891,5.0368,5.0519,5.0619,5.1197,5.1398,5.1398,5.1473,5.1498,5.1498,5.1498,5.1498,5.1498,5.1498,5.1498,5.1498,5.1498,5.1498,5.1498,5.1498,5.072,5.0017,0.0,0.0,0.0,4.5246,4.4869,4.4744,0.0,0.0,0.0,0.0,0.0,0.0,0.0,0.0,0.0,0.0,0.0,0.0,0.0,0.0,0.0,5.2302,5.303,0.0,5.2829,0.0,5.5516,5.4587,5.5691,5.6219,5.6219,5.6696,5.6126,5.4908,5.5121,5.4507,5.2996,5.0925,4.9955,4.9786,4.7641,4.6813,4.6638,4.6483,4.6308,4.6308,0.0,0.0,0.0,0.0,0.0,4.4192,4.5773,4.5799,4.5949,4.6878,4.7606,0.0,4.7782,4.8862,4.959,4.959,4.959,0.0,0.0,0.0,0.0,4.9464,4.9439,4.9414,4.9289,4.7782,4.6451,0.0,0.0,4.2409,4.1329,4.1329,4.1329,4.1354,0.0,0.0,4.4116,4.5347,0.0,4.7707,4.8636,4.9414,4.9967,4.9967,5.0469,5.1122,5.1122,5.1071,5.0996,5.1096,5.1122,5.1222,5.1774,5.195,5.2051,5.2503,5.2628,5.2628,5.2628,5.2628,5.2628,5.2628,5.2628,5.2628,5.2628,5.2628,5.2628,5.2628,5.2477,5.2352,5.2352,0.0,0.0,0.0,0.0,0.0,0.0,0.0,0.0,0.0,0.0,0.0,0.0,0.0,0.0,0.0,0.0,0.0,0.0,0.0,0.0,0.0,5.0946,0.0,0.0,0.0,5.4762,5.4587,5.5691,5.6219,5.6219,5.6319,5.6498,5.6576,5.5217,5.4784,5.4803,5.3093,5.226,5.2094,4.9955,4.8955,4.8784,4.6967,4.6308,4.6308,0.0,0.0,0.0,0.0,0.0,0.0,0.0,4.7405,0.0,4.8736,4.9063,4.9314,4.9615,5.0142,5.0469,5.0469,5.0469,5.0469,5.0469,5.0469,5.0343,5.0042,5.0017,0.0,4.9615,4.8812,4.7581,4.5924,0.0,4.384,4.2183,4.2183,4.2183,4.2233,0.0,4.3865,0.0,0.0,0.0,4.8485,4.9891,5.0619,5.087,5.087,5.1222,5.1699,5.1699,5.19,5.2101,5.18,5.1699,5.18,5.2352,5.2528,5.2578,5.2854,5.2929,5.2929,5.2929,5.2929,5.2929,5.2929,5.2929,5.2929,5.2929,5.2929,5.2929,5.2929,5.2929,5.2754,5.2176,5.1197,0.0,0.0,0.0,0.0,0.0,0.0,0.0,0.0,0.0,0.0,0.0,0.0,0.0,0.0,0.0,0.0,0.0,0.0,0.0,0.0,0.0,0.0,0.0,0.0,0.0,5.3733,5.5415,5.6219,5.6219,5.6219,5.652,5.6899,5.62,5.6333,5.696,5.5339,5.3906,5.2756,5.1761,5.061,4.9446,4.8462,4.7295,4.6308,0.0,4.4367,0.0,0.0,4.5773,0.0,0.0,4.9012,4.9841,5.0519,5.0594,5.077,5.1222,5.1272,5.1272,5.1272,5.1272,5.1272,5.1272,5.1272,5.1071,5.0619,5.0594,5.0393,4.9967,4.9967,4.8937,0.0,0.0,4.5472,4.3514,4.3388,4.3463,0.0,0.0,0.0,0.0,0.0,4.9088,4.9414,5.0745,5.1348,5.1448,5.1448,5.18,5.2277,5.2277,5.2553,5.2854,5.2427,5.2277,5.2352,5.2779,5.2929,5.2929,5.2929,5.2929,5.2929,5.2929,5.2929,5.2929,5.2929,5.2929,5.2929,5.2929,5.2929,5.2929,5.2929,5.2929,5.2653,5.18,5.1448,0.0,0.0,0.0,0.0,0.0,0.0,0.0,0.0,0.0,0.0,0.0,0.0,0.0,0.0,0.0,4.6778,4.7857,4.6878,0.0,0.0,0.0,5.082,5.0594,0.0,5.5114,0.0,5.539,5.6219,5.6219,5.6219,5.6445,5.6872,5.6972,5.7675,5.8602,5.7448,5.5871,5.4232,5.3743,5.2591,5.0946,5.0441,4.8955,4.6967,0.0,0.0,0.0,0.0,0.0,0.0,0.0,4.9515,4.9992,5.1046,5.1197,5.1222,5.1272,5.1272,5.1272,5.1272,5.1272,5.1272,5.1272,5.1272,5.1247,5.1197,5.1197,5.1172,5.1122,5.1122,5.0268,0.0,0.0,4.6451,4.5246,4.4719,4.502,0.0,0.0,0.0,0.0,4.9188,5.0117,5.1071,5.1222,5.1574,5.2026,5.2026,5.2377,5.2854,5.2854,5.2879,5.2929,5.2879,5.2854,5.2854,5.2904,5.2929,5.2929,5.2929,5.2929,5.2929,5.2929,5.2929,5.2929,5.2929,5.2929,5.2929,5.2929,5.2929,5.2929,5.2929,5.2929,5.2904,5.2804,5.195,5.0921,0.0,0.0,0.0,0.0,0.0,0.0,0.0,0.0,0.0,0.0,0.0,0.0,0.0,0.0,4.6778,4.7857,4.6878,4.6878,4.8109,0.0,5.0218,5.1197,5.3532,0.0,5.5917,5.6118,5.6219,5.6219,5.6219,5.6244,5.6319,5.6821,5.7675,5.8755,5.9128,5.8993,5.8681,5.6669,5.5711,5.5389,5.3251,5.1282,4.9297,0.0,0.0,0.0,0.0,0.0,0.0,0.0,5.1172,5.1749,5.2201,5.1975,5.19,5.2226,5.2277,5.2277,5.2277,5.2277,5.2277,5.2277,5.2277,5.2126,5.18,5.1774,5.1624,5.1297,5.1272,5.0619,0.0,0.0,4.738,4.6928,4.605,0.0,0.0,0.0,4.8862,4.9339,5.0569,5.1373,5.18,5.2126,5.2402,5.2603,5.2603,5.2729,5.2929,5.2929,5.2929,5.2929,5.2929,5.2929,5.2929,5.2929,5.2929,5.2929,5.2929,5.2929,5.2929,5.2929,5.2929,5.2929,5.2929,5.2929,5.2929,5.2929,5.2929,5.2929,5.2929,5.2929,5.2929,5.2929,5.2578,5.19,0.0,0.0,0.0,0.0,0.0,0.0,0.0,0.0,4.9414,0.0,0.0,0.0,0.0,0.0,0.0,4.6928,4.7154,4.7782,4.8887,0.0,5.0795,5.2251,5.3457,5.4436,5.5239,5.5892,5.6219,5.6219,5.6219,5.6219,5.6244,5.6796,5.7474,5.8278,5.8805,5.9207,5.9328,5.85,5.7352,5.6055,5.5228,5.3415,5.1427,4.9389,0.0,4.9992,0.0,5.0971,5.1774,5.1774,5.2427,5.2929,5.2929,5.2578,5.2503,5.2879,5.2929,5.2929,5.2929,5.2929,5.2929,5.2929,5.2929,5.2754,5.2352,5.2352,0.0,5.1774,5.1774,5.1297,5.0343,4.9188,0.0,4.8636,0.0,0.0,0.0,4.9916,5.0343,5.0419,5.1774,5.2352,5.2377,5.2779,5.2929,5.2929,5.2929,5.2929,5.2929,5.2929,5.2929,5.2929,5.2929,5.2929,5.2929,5.2929,5.2929,5.2929,5.2929,5.2929,5.2929,5.2929,5.2929,5.2929,5.2929,5.2929,5.2929,5.2929,5.2929,5.2929,5.2929,5.2929,5.2929,5.2929,5.2929,5.2578,5.1448,0.0,0.0,0.0,0.0,0.0,0.0,4.8912,4.959,4.959,0.0,0.0,0.0,0.0,0.0,4.6778,4.7205,0.0,0.0,0.0,0.0,0.0,5.298,5.3833,5.5064,5.5842,5.6219,5.6219,5.6219,5.6219,5.6244,5.6796,5.7273,5.77,5.8428,5.893,5.9282,5.9433,5.8525,5.7194,5.7194,5.5734,5.3579,5.3432,5.3231,5.2879,5.2879,5.2904,5.2904,5.2904,5.2929,5.2929,5.2929,5.2929,5.2929,5.2929,5.2929,5.2929,5.2929,5.2929,5.2929,5.2929,5.2929,5.2929,0.0,0.0,5.2904,5.2904,5.2904,5.2628,5.2076,0.0,0.0,5.0393,0.0,5.067,5.1272,5.1825,5.2076,5.2126,5.2678,5.2929,5.2929,5.2929,5.2929,5.2929,5.2929,5.2929,5.2929,5.2929,5.2929,5.2929,5.2929,5.2929,5.2929,5.2929,5.2929,5.2929,5.2929,5.2929,5.2929,5.2929,5.2929,5.2929,5.2929,5.2929,5.2929,5.2929,5.2929,5.2929,5.2929,5.2929,5.2929,5.2929,5.2929,5.2578,5.1448,0.0,0.0,0.0,0.0,0.0,4.8184,4.8912,4.959,4.959,0.0,0.0,0.0,0.0,0.0,0.0,0.0,0.0,4.7883,4.7431,0.0,5.1272,5.185,5.3507,5.6194,5.6194,5.6219,5.6219,5.6219,5.6219,5.6244,5.6796,5.7022,5.7123,5.8252,5.873,5.878,5.9307,5.9483,5.9483,5.9483,5.8031,5.6239,5.4084,5.416,5.4059,5.4059,5.4059,5.4059,5.4059,5.4059,5.4059,5.4059,5.4059,5.3884,5.3507,5.313,5.2929,0.0,5.2929,5.2929,0.0,5.2929,5.2929,5.2929,5.2929,5.2929,5.2929,5.2929,5.2854,5.2678,0.0,0.0,0.0,5.1774,5.2226,5.2402,5.2578,5.2678,5.2678,5.2854,5.2929,5.2929,5.2929,5.2929,5.2929,5.2929,5.2929,5.2929,5.2929,5.2929,5.2929,5.2929,5.2929,5.2929,5.2929,5.2929,5.2929,5.2929,5.2929,5.2929,5.2929,5.2929,5.2929,5.2929,5.2929,5.2929,5.2929,5.3206,5.3557,5.3959,5.4059,5.3934,5.3532,5.3457,5.298,5.1523,5.1925,0.0,0.0,0.0,5.072,4.9238,4.9364,4.9891,0.0,4.9715,0.0,0.0,0.0,0.0,0.0,0.0,0.0,0.0,5.0042,0.0,5.3507,5.2955,5.3858,5.6219,5.6219,5.6219,5.6219,5.6219,5.6219,5.6219,5.6394,5.6696,5.7072,5.7424,5.8001,5.8704,5.8905,5.9182,5.9483,5.9483,5.8993,5.8187,5.4737,5.4712,5.4561,5.4561,5.4561,5.4561,5.4561,5.4561,5.4561,5.4561,5.4561,5.4436,5.4059,5.3733,0.0,5.2955,5.2929,5.2929,5.2929,5.2929,5.2929,5.2929,5.2929,5.2929,5.2929,0.0,0.0,5.2929,5.2226,5.19,5.1925,5.2603,5.2929,5.2929,5.2929,5.2929,5.2929,5.2929,5.2929,5.2929,5.2929,5.2929,5.2929,5.2929,5.2929,5.2929,5.2929,5.2929,5.2929,5.2929,5.2929,5.2955,5.3155,5.3231,5.3181,5.298,5.2929,5.2929,5.2929,5.308,5.3231,5.3231,5.3381,5.3532,5.3532,5.3808,5.4135,5.4486,5.4561,5.4461,5.4084,5.4034,5.3708,5.2678,5.3105,5.2829,5.082,0.0,5.1548,0.0,0.0,0.0,0.0,5.0645,0.0,0.0,0.0,0.0,0.0,0.0,0.0,5.0619,5.0645,0.0,5.3934,5.3281,5.4034,5.6219,5.6219,5.6219,5.6219,5.6219,5.6219,5.6219,5.6219,5.642,5.6746,5.6947,5.7449,5.8102,5.8554,5.8905,5.9232,5.9433,5.9483,5.9328,5.544,5.5039,0.0,0.0,5.4687,0.0,5.4687,5.4687,5.4687,5.4687,5.4687,5.4662,5.4637,5.4637,5.4185,5.313,0.0,0.0,0.0,5.298,5.2955,5.2929,5.2929,5.2929,5.2929,5.2929,5.2929,5.2929,5.2929,5.2929,5.2929,5.2929,5.2929,5.2929,5.2929,5.2955,5.298,5.298,5.3005,5.303,5.303,5.303,5.303,5.303,5.303,5.303,5.303,5.303,5.303,5.303,5.303,5.313,5.3607,5.3758,5.3658,5.3181,5.303,5.303,5.303,5.3381,5.3758,5.3758,5.416,5.4587,5.4612,5.4637,5.4637,5.4662,5.4687,5.4662,5.4637,5.4637,5.4612,5.4587,5.4561,5.4009,5.2402,0.0,5.2703,0.0,0.0,0.0,0.0,5.1423,5.1373,0.0,0.0,0.0,0.0,0.0,4.9816,4.9816,4.9866,5.0896,5.303,5.308,5.416,5.6219,5.6219,5.6219,5.6219,5.6219,5.6219,5.6219,5.6219,5.6219,5.6244,5.6771,5.6997,5.7148,5.8202,5.8654,5.878,5.9257,5.9458,5.9483,0.0,0.0,5.5817,5.5817,5.5817,5.5817,5.5817,5.5817,5.5817,5.5817,5.5817,5.5666,5.5239,5.5189,5.4913,5.4235,5.4185,5.3984,5.3557,5.3507,5.3331,5.2955,5.2929,5.2929,5.2929,5.2929,5.2929,5.2929,5.2929,5.2929,5.2929,5.2929,5.2929,5.2929,5.2929,5.3155,5.3507,5.3507,5.3783,5.4185,5.4185,5.4185,5.4185,5.4185,5.4185,5.4185,5.4185,5.4185,5.4185,5.4185,5.4185,5.421,5.4336,5.4361,5.4336,5.421,5.4185,5.4185,5.4185,5.426,5.4361,5.4361,5.4461,5.4687,5.5089,5.5189,5.5315,5.5742,5.5817,5.5691,5.5265,5.5189,5.5064,5.4637,5.4561,5.4135,5.2904,5.2955,0.0,0.0,5.2,5.2226,5.3055,5.2779,5.2176,0.0,0.0,0.0,0.0,5.1348,5.2126,5.2126,5.2528,5.3206,5.416,5.4587,5.529,5.6219,5.6219,5.6219,5.6219,5.6219,5.6219,5.6219,5.6219,5.6219,5.6219,5.6344,5.6646,5.7072,5.7323,5.7951,5.873,5.8855,5.9156,5.9483,5.6219,5.6219,5.6219,5.6219,5.6219,5.6219,5.6219,5.6219,5.6219,5.6219,5.6219,5.6093,5.5792,5.5767,5.5641,5.534,5.4863,5.4436,5.411,5.411,5.3959,5.3683,5.3683,5.3683,5.3683,5.3683,5.3683,5.3683,5.3683,5.3683,5.3683,5.3683,5.3683,5.3683,5.3683,5.3833,5.411,5.411,5.4285,5.4561,5.4561,5.4561,5.4561,5.4561,5.4561,5.4561,5.4561,5.4561,5.4561,5.4561,5.4561,5.4612,5.4863,5.4938,5.4988,5.5239,5.4963,5.4561,5.4561,5.4737,5.4988,5.5265,5.5315,5.539,5.5691,5.5767,5.5842,5.6143,5.6219,5.6118,5.5817,5.5767,5.5666,5.5365,5.4888,5.426,5.3406,5.3281,0.0,5.2955,5.3105,5.3457,5.4034,5.3833,5.3432,5.2829,5.2879,0.0,5.19,5.2553,5.2703,5.2201,5.3155,5.3984,5.4561,5.5365,5.5917,5.6219,5.6219,5.6219,5.6219,5.6219,5.6219,5.6219,5.6219,5.6219,5.6219,5.6219,5.6394,5.6671,5.6922,5.7399,5.8027,5.8529,5.8905,5.9182,5.6344,5.6344,5.6319,5.6219,5.6219,5.6219,5.6219,5.6219,5.6219,5.6219,5.6219,5.6219,5.6219,5.6219,5.6219,5.6219,5.5365,5.4787,5.4687,5.4687,5.4662,5.4561,5.4561,5.4561,5.4561,5.4561,5.4561,5.4561,5.4561,5.4561,5.4561,5.4561,5.4561,5.4561,5.4561,5.4612,5.4687,5.4687,5.4737,5.4813,5.4813,5.4813,5.4813,5.4813,5.4813,5.4813,5.4813,5.4813,5.4813,5.4813,5.4813,5.4888,5.5365,5.5516,5.5591,5.6068,5.5541,5.4813,5.4813,5.5164,5.5616,5.6093,5.6219,5.6219,5.6219,5.6219,5.6219,5.6219,5.6219,5.6219,5.6219,5.6219,5.6168,5.5993,5.5164,5.4336,5.3683,0.0,5.3658,5.3231,5.4059,5.4687,5.4687,5.4612,5.4561,5.4561,5.3708,5.3507,0.0,5.3582,5.2678,5.1574,5.3105,5.4235,5.4813,5.5742,5.6219,5.6219,5.6219,5.6219,5.6219,5.6219,5.6219,5.6219,5.6219,5.6219,5.6219,5.6219,5.6219,5.6269,5.6721,5.6972,5.7148,5.8127,5.8529,5.8679,5.6997,5.6897,5.6771,5.6294,5.6219,5.6219,5.6219,5.6219,5.6219,5.6219,5.6219,5.6219,5.6219,5.6219,5.6219,5.6219,5.6068,5.5767,5.529,5.5265,5.5039,5.4587,5.4561,5.4561,5.4561,5.4561,5.4561,5.4561,5.4561,5.4561,5.4561,5.4561,5.4561,5.4561,5.4561,5.4813,5.5265,5.5265,5.5541,5.5968,5.5968,5.5968,5.5968,5.5968,5.5968,5.5968,5.5968,5.5968,5.5968,5.5968,5.5968,5.5968,5.6068,5.6093,5.6093,5.6194,5.6093,5.5968,5.5968,5.6018,5.6118,5.6194,5.6219,5.6219,5.6219,5.6219,5.6219,5.6219,5.6219,5.6219,5.6219,5.6219,5.5917,5.4963,5.4687,5.421,5.3181,0.0,5.4411,5.4336,5.4863,5.5265,5.5265,5.4838,5.4561,5.4561,5.4411,5.3984,5.3231,5.3909,5.3808,5.2703,5.426,5.539,5.5942,5.6118,5.6219,5.6219,5.6219,5.6219,5.6219,5.6219,5.6219,5.6219,5.6219,5.6219,5.6219,5.6219,5.6219,5.6219,5.6294,5.662,5.7047,5.7223,5.76,5.8102,5.7549,5.7499,5.7323,5.6746,5.6646,5.6545,5.6269,5.6219,5.6219,5.6219,5.6219,5.6219,5.6219,5.6219,5.6219,5.6219,5.6219,5.6093,5.5842,5.5842,5.5717,5.5465,5.544,5.544,5.544,5.544,5.544,5.544,5.544,5.544,5.544,5.544,5.544,5.544,5.544,5.5591,5.5842,5.5842,5.5968,5.6219,5.6219,5.6219,5.6219,5.6219,5.6219,5.6219,5.6219,5.6219,5.6219,5.6219,5.6219,5.6219,5.6219,5.6219,5.6219,5.6219,5.6219,5.6219,5.6219,5.6219,5.6219,5.6219,5.6219,5.6219,5.6219,5.6219,5.6219,5.6219,5.6219,5.6219,5.6219,5.6219,5.5842,5.4737,5.4561,0.0,0.0,5.3884,5.4561,5.4561,5.5315,5.5842,5.5842,5.5591,5.544,5.544,5.544,5.5239,5.4712,5.5189,5.5214,5.4712,5.5139,5.5641,5.6194,5.6219,5.6219,5.6219,5.6219,5.6219,5.6219,5.6219,5.6219,5.6219,5.6219,5.6219,5.6219,5.6219,5.6219,5.6219,5.6219,5.6369,5.662,5.6922,5.7198,5.7524,5.8102,5.8102,5.7901,5.7323,5.7223,5.7047,5.6495,5.6394,5.6369,5.6219,5.6219,5.6219,5.6219,5.6219,5.6219,5.6219,5.6219,5.6219,5.6219,5.6219,5.6219,5.6219,5.6219,5.6219,5.6219,5.6219,5.6219,5.6219,5.6219,5.6219,5.6219,5.6219,5.6219,5.6219,5.6219,5.6219,5.6219,5.6219,5.6219,5.6219,5.6219,5.6219,5.6219,5.6219,5.6219,5.6219,5.6219,5.6219,5.6219,5.6219,5.6219,5.6219,5.6219,5.6219,5.6219,5.6219,5.6219,5.6219,5.6219,5.6219,5.6219,5.6219,5.6219,5.6219,5.6219,5.6219,5.6219,5.6219,5.6219,5.6219,5.6219,5.6219,5.5842,5.4737,0.0,0.0,0.0,5.4034,5.4662,5.4913,5.5691,5.6219,5.6219,5.6219,5.6219,5.6219,5.6219,5.6219,5.6219,5.6219,5.6219,5.6219,5.5792,5.5792,5.6219,5.6219,5.6219,5.6219,5.6219,5.6219,5.6219,5.6219,5.6219,5.6219,5.6219,5.6219,5.6219,5.6219,5.6219,5.6219,5.6219,5.6219,5.6269,5.6696,5.6846,5.6922,5.8755,5.8654,5.8478,5.7926,5.7826,5.765,5.7072,5.6972,5.6796,5.6269,5.6219,5.6219,5.6219,5.6219,5.6219,5.6219,5.6219,5.6219,5.6219,5.6219,5.6219,5.6219,5.6219,5.6219,5.6219,5.6219,5.6219,5.6219,5.6219,5.6219,5.6219,5.6219,5.6219,5.6219,5.6219,5.6219,5.6219,5.6219,5.6219,5.6219,5.6219,5.6219,5.6219,5.6219,5.6219,5.6219,5.6219,5.6219,5.6219,5.6219,5.6219,5.6219,5.6219,5.6219,5.6219,5.6219,5.6219,5.6219,5.6219,5.6219,5.6219,5.6219,5.6219,5.6219,5.6219,5.6219,5.6219,5.6219,5.6219,5.6219,5.6219,5.6219,5.5842,5.4737,0.0,0.0,5.4461,5.4511,5.4938,5.5968,5.6168,5.6219,5.6219,5.6219,5.6219,5.6219,5.6219,5.6219,5.6219,5.6219,5.6219,5.6219,5.6168,5.6168,5.6219,5.6219,5.6219,5.6219,5.6219,5.6219,5.6219,5.6219,5.6219,5.6219,5.6219,5.6219,5.6219,5.6219,5.6219,5.6219,5.6219,5.6219,5.6219,5.6269,5.6269,5.6344,5.9232,5.9207,5.9031,5.8504,5.8403,5.8227,5.765,5.7575,5.7499,5.7273,5.6947,5.6721,5.6721,5.642,5.6219,5.6219,5.6219,5.6219,5.6219,5.6219,5.6219,5.6219,5.6219,5.6219,5.6219,5.6219,5.6219,5.6219,5.6219,5.6219,5.6219,5.6219,5.6219,5.6219,5.6219,5.6219,5.6219,5.6219,5.6219,5.6219,5.6219,5.6219,5.6219,5.6219,5.6219,5.6219,5.6219,5.6219,5.6219,5.6219,5.6219,5.6219,5.6219,5.6219,5.6219,5.6219,5.6219,5.6219,5.6219,5.6219,5.6219,5.6219,5.6219,5.6219,5.6219,5.6219,5.6219,5.6219,5.6219,5.6219,5.6219,5.6219,5.5842,5.4737,0.0,5.534,5.4662,5.5164,5.5742,5.6168,5.6219,5.6219,5.6219,5.6219,5.6219,5.6219,5.6219,5.6219,5.6219,5.6219,5.6219,5.6219,5.6219,5.6219,5.6219,5.6219,5.6219,5.6219,5.6219,5.6219,5.6219,5.6219,5.6219,5.6219,5.6219,5.6219,5.6219,5.6219,5.6219,5.6219,5.6219,5.6219,5.6219,5.6219,5.6219,5.6244,5.9483,5.9483,5.9382,5.9031,5.8956,5.878,5.8227,5.8152,5.8102,5.7926,5.7549,5.7298,5.7298,5.6972,5.6671,5.6495,5.647,5.6394,5.6219,5.6219,5.6219,5.6219,5.6219,5.6219,5.6219,5.6219,5.6219,5.6219,5.6219,5.6219,5.6219,5.6219,5.6219,5.6219,5.6219,5.6219,5.6219,5.6219,5.6219,5.6219,5.6219,5.6219,5.6219,5.6219,5.6219,5.6219,5.6219,5.6219,5.6219,5.6219,5.6219,5.6219,5.6219,5.6219,5.6219,5.6219,5.6219,5.6219,5.6219,5.6219,5.6219,5.6219,5.6219,5.6219,5.6219,5.6219,5.6219,5.6219,5.6219,5.6219,5.6219,5.6219,5.5968,5.5214,5.5717,5.5942,5.5189,5.5742,5.6219,5.6219,5.6219,5.6219,5.6219,5.6219,5.6219,5.6219,5.6219,5.6219,5.6219,5.6219,5.6219,5.6219,5.6219,5.6219,5.6219,5.6219,5.6219,5.6219,5.6219,5.6219,5.6219,5.6219,5.6219,5.6219,5.6219,5.6219,5.6219,5.6219,5.6219,5.6219,5.6219,5.6219,5.6219,5.6219,5.6219,5.6219,5.9483,5.9483,5.9483,5.9483,5.9483,5.9332,5.8805,5.873,5.8529,5.7976,5.7901,5.7901,5.7901,5.7901,5.7675,5.7097,5.7047,5.6796,5.6244,5.6219,5.6219,5.6219,5.6219,5.6219,5.6219,5.6219,5.6219,5.6219,5.6219,5.6219,5.6219,5.6219,5.6219,5.6219,5.6219,5.6219,5.6219,5.6219,5.6219,5.6219,5.6219,5.6219,5.6219,5.6219,5.6219,5.6219,5.6219,5.6219,5.6219,5.6219,5.6219,5.6219,5.6219,5.6219,5.6219,5.6219,5.6219,5.6219,5.6219,5.6219,5.6219,5.6219,5.6219,5.6219,5.6219,5.6219,5.6219,5.6219,5.6219,5.6219,5.6219,5.6219,5.6219,5.6219,5.6219,5.6219,5.6219,5.6219,5.6219,5.6219,5.6219,5.6219,5.6219,5.6219,5.6219,5.6219,5.6219,5.6219,5.6219,5.6219,5.6219,5.6219,5.6219,5.6219,5.6219,5.6219,5.6219,5.6219,5.6219,5.6219,5.6219,5.6219,5.6219,5.6219,5.6219,5.6219,5.6219,5.6219,5.6219,5.6219,5.6219,5.6219,5.6219,5.6219,5.6219,5.6219,5.9483,5.9483,5.9483,5.9483,5.9483,5.9433,5.9282,5.9257,5.9207,5.9031,5.8704,5.8478,5.8478,5.8127,5.7826,5.765,5.765,5.7399,5.6821,5.6796,5.662,5.6219,5.6219,5.6219,5.6219,5.6219,5.6219,5.6219,5.6219,5.6219,5.6219,5.6219,5.6219,5.6219,5.6219,5.6219,5.6219,5.6219,5.6219,5.6219,5.6219,5.6219,5.6219,5.6219,5.6219,5.6219,5.6219,5.6219,5.6219,5.6219,5.6219,5.6219,5.6219,5.6219,5.6219,5.6219,5.6219,5.6219,5.6219,5.6219,5.6219,5.6219,5.6219,5.6219,5.6219,5.6219,5.6219,5.6219,5.6219,5.6219,5.6219,5.6219,5.6219,5.6219,5.6219,5.6219,5.6219,5.6219,5.6219,5.6219,5.6219,5.6219,5.6219,5.6219,5.6219,5.6219,5.6219,5.6219,5.6219,5.6219,5.6219,5.6219,5.6219,5.6219,5.6219,5.6219,5.6219,5.6219,5.6219,5.6219,5.6219,5.6219,5.6219,5.6219,5.6219,5.6219,5.6219,5.6219,5.6219,5.6219,5.6219,5.6219,5.6219,5.6219,5.6219,5.6219,5.9483,5.9483,5.9483,5.9483,5.9483,5.9483,5.9483,5.9483,5.9483,5.9483,5.9232,5.9031,5.9031,5.873,5.8453,5.8252,5.8027,5.775,5.7399,5.7374,5.7223,5.6897,5.6872,5.6671,5.6219,5.6219,5.6219,5.6219,5.6219,5.6219,5.6219,5.6219,5.6219,5.6219,5.6219,5.6219,5.6219,5.6219,5.6219,5.6219,5.6219,5.6219,5.6219,5.6219,5.6219,5.6219,5.6219,5.6219,5.6219,5.6219,5.6219,5.6219,5.6219,5.6219,5.6219,5.6219,5.6219,5.6219,5.6219,5.6219,5.6219,5.6219,5.6219,5.6219,5.6219,5.6219,5.6219,5.6219,5.6219,5.6219,5.6219,5.6219,5.6219,5.6219,5.6219,5.6219,5.6219,5.6219,5.6219,5.6219,5.6219,5.6219,5.6219,5.6219,5.6219,5.6219,5.6219,5.6219,5.6219,5.6219,5.6219,5.6219,5.6219,5.6219,5.6219,5.6219,5.6219,5.6219,5.6219,5.6219,5.6219,5.6219,5.6219,5.6219,5.6219,5.6219,5.6219,5.6219,5.6219,5.6219,5.6219,5.6219,5.6219,5.6219,5.6219,5.6219,5.9483,5.9483,5.9483,5.9483,5.9483,5.9483,5.9483,5.9483,5.9483,5.9483,5.9483,5.9483,5.9483,5.9483,5.9307,5.883,5.8328,5.8027,5.7976,5.7976,5.7951,5.7901,5.7901,5.7424,5.6394,5.6319,5.6269,5.6219,5.6219,5.6219,5.6219,5.6219,5.6219,5.6219,5.6219,5.6219,5.6219,5.6219,5.6219,5.6219,5.6219,5.6219,5.6219,5.6219,5.6219,5.6219,5.6219,5.6219,5.6219,5.6219,5.6219,5.6219,5.6219,5.6219,5.6219,5.6219,5.6219,5.6219,5.6219,5.6219,5.6219,5.6219,5.6219,5.6219,5.6219,5.6219,5.6219,5.6219,5.6219,5.6219,5.6219,5.6219,5.6219,5.6219,5.6219,5.6219,5.6219,5.6219,5.6219,5.6219,5.6219,5.6219,5.6219,5.6219,5.6219,5.6219,5.6219,5.6219,5.6219,5.6219,5.6219,5.6219,5.6219,5.6219,5.6219,5.6219,5.6219,5.6219,5.6219,5.6219,5.6219,5.6219,5.6219,5.6219,5.6219,5.6219,5.6219,5.6219,5.6219,5.6219,5.6219,5.6219,5.6219,5.6219,5.6219,5.6219,5.9792,5.9483,5.9483,5.9483,5.9483,5.9483,5.9483,5.9483,5.9483,5.9483,5.9483,5.9483,5.9483,5.9483,5.9458,5.9332,5.9207,5.8981,5.8554,5.8554,5.8353,5.7926,5.7901,5.7775,5.7549,5.7097,5.6646,5.6219,5.6219,5.6219,5.6219,5.6219,5.6219,5.6219,5.6219,5.6219,5.6219,5.6219,5.6219,5.6219,5.6219,5.6219,5.6219,5.6219,5.6219,5.6219,5.6219,5.6219,5.6219,5.6219,5.6219,5.6219,5.6219,5.6219,5.6219,5.6219,5.6219,5.6219,5.6219,5.6219,5.6219,5.6219,5.6219,5.6219,5.6219,5.6219,5.6219,5.6219,5.6219,5.6219,5.6219,5.6219,5.6219,5.6219,5.6219,5.6219,5.6219,5.6219,5.6219,5.6219,5.6219,5.6219,5.6219,5.6219,5.6219,5.6219,5.6219,5.6219,5.6219,5.6219,5.6219,5.6219,5.6219,5.6219,5.6219,5.6219,5.6219,5.6219,5.6219,5.6219,5.6219,5.6219,5.6219,5.6219,5.6219,5.6219,5.6219,5.6219,5.6219,5.6219,5.6219,5.6219,5.6219,5.6219,5.6219,5.6219,6.1089,6.0074,5.9483,5.9483,5.9483,5.9483,5.9483,5.9483,5.9483,5.9483,5.9483,5.9483,5.9483,5.9483,5.9483,5.9483,5.9483,5.9382,5.9106,5.9081,5.8956,5.8679,5.8654,5.8554,5.8303,5.8001,5.7575,5.7022,5.7022,5.7022,5.7022,5.6746,5.6595,5.6595,5.6319,5.6219,5.6219,5.6219,5.6219,5.6219,5.6219,5.6219,5.6219,5.6219,5.6219,5.6219,5.6219,5.6219,5.6219,5.6219,5.6219,5.6219,5.6219,5.6219,5.6219,5.6219,5.6219,5.6219,5.6219,5.6219,5.6219,5.6219,5.6219,5.6219,5.6219,5.6219,5.6219,5.6219,5.6219,5.6219,5.6219,5.6219,5.6219,5.6219,5.6219,5.6219,5.6219,5.6219,5.6219,5.6219,5.6219,5.6219,5.6219,5.6219,5.6219,5.6219,5.6219,5.6219,5.6219,5.6219,5.6219,5.6219,5.6219,5.6219,5.6219,5.6219,5.6219,5.6219,5.6219,5.6219,5.6219,5.6219,5.6219,5.6219,5.6219,5.6219,5.6219,5.6219,5.6219,5.6219,5.6219,5.6219,5.6219,5.6219,5.6219,5.6219,6.2951,6.1391,5.992,5.992,5.9792,5.9483,5.9483,5.9483,5.9483,5.9483,5.9483,5.9483,5.9483,5.9483,5.9483,5.9483,5.9483,5.9483,5.9483,5.9483,5.9483,5.9483,5.9483,5.9307,5.8855,5.8855,5.8529,5.7901,5.7901,5.7901,5.7901,5.7399,5.7173,5.7173,5.6696,5.6445,5.6344,5.6344,5.6294,5.6219,5.6219,5.6219,5.6219,5.6219,5.6219,5.6219,5.6219,5.6219,5.6219,5.6219,5.6219,5.6219,5.6219,5.6219,5.6219,5.6219,5.6219,5.6219,5.6219,5.6219,5.6219,5.6219,5.6219,5.6219,5.6219,5.6219,5.6219,5.6219,5.6219,5.6219,5.6219,5.6219,5.6219,5.6219,5.6219,5.6219,5.6219,5.6219,5.6219,5.6219,5.6219,5.6219,5.6219,5.6219,5.6219,5.6219,5.6219,5.6219,5.6219,5.6219,5.6219,5.6219,5.6219,5.6219,5.6219,5.6219,5.6219,5.6219,5.6219,5.6219,5.6219,5.6219,5.6219,5.6219,5.6219,5.6219,5.6219,5.6219,5.6219,5.6219,5.6219,5.6219,5.6219,5.6219,5.6219,5.6219,6.5214,6.3219,6.1966,6.1966,6.066,5.9483,5.9483,5.9483,5.9483,5.9483,5.9483,5.9483,5.9483,5.9483,5.9483,5.9483,5.9483,5.9483,5.9483,5.9483,5.9483,5.9483,5.9483,5.9458,5.9382,5.9382,5.8905,5.7901,5.7901,5.7901,5.7901,5.7826,5.7775,5.7775,5.77,5.7399,5.6922,5.6922,5.6646,5.6219,5.6219,5.6219,5.6219,5.6219,5.6219,5.6219,5.6219,5.6219,5.6219,5.6219,5.6219,5.6219,5.6219,5.6219,5.6219,5.6219,5.6219,5.6219,5.6219,5.6219,5.6219,5.6219,5.6219,5.6219,5.6219,5.6219,5.6219,5.6219,5.6219,5.6219,5.6219,5.6219,5.6219,5.6219,5.6219,5.6219,5.6219,5.6219,5.6219,5.6219,5.6219,5.6219,5.6219,5.6219,5.6219,5.6219,5.6219,5.6219,5.6219,5.6219,5.6219,5.6219,5.6219,5.6219,5.6219,5.6219,5.6219,5.6219,5.6219,5.6219,5.6219,5.6219,5.6219,5.6219,5.6219,5.6219,5.6219,5.6219,5.6219,5.6219,5.6219,5.6219,5.6219,5.6219,5.6219,5.6219,6.6927,6.5214,6.3657,6.2535,6.1666,6.0812,5.9637,5.9483,5.9483,5.9483,5.9483,5.9483,5.9483,5.9483,5.9483,5.9483,5.9483,5.9483,5.9483,5.9483,5.9483,5.9483,5.9483,5.9483,5.9483,5.9483,5.9257,5.878,5.878,5.878,5.878,5.8504,5.8353,5.8353,5.8027,5.775,5.7524,5.7524,5.7198,5.6671,5.6671,5.6495,5.6219,5.6219,5.6219,5.6219,5.6219,5.6219,5.6219,5.6219,5.6219,5.6219,5.6219,5.6219,5.6219,5.6219,5.6219,5.6219,5.6219,5.6219,5.6219,5.6219,5.6219,5.6219,5.6219,5.6219,5.6219,5.6219,5.6219,5.6219,5.6219,5.6219,5.6219,5.6219,5.6219,5.6219,5.6219,5.6219,5.6219,5.6219,5.6219,5.6219,5.6219,5.6219,5.6219,5.6219,5.6219,5.6219,5.6219,5.6219,5.6219,5.6219,5.6219,5.6219,5.6219,5.6219,5.6219,5.6219,5.6219,5.6219,5.6219,5.6219,5.6219,5.6219,5.6219,5.6219,5.6219,5.6219,5.6219,5.6219,5.6219,5.6219,5.6219,5.6219,5.6219,5.6219]},{"header":{"parameterUnit":"m.s-1","parameterCategory":1,"la1":30.6,"la2":28.766,"lo1":-90.7593,"lo2":-88.6598,"dx":0.0162,"dy":0.0183,"nx":116,"ny":114,"refTime":"2023-01-21T06:00:00:Z","depth":0,"parameterNumber":3,"parameterNumberName":"V-component_of_WINDS"},"data":[0.0,0.0,0.0,0.0,0.0,0.0,0.0,0.0,0.0,0.0,0.0,0.0,0.0,0.0,0.0,0.0,0.0,0.0,0.0,0.0,0.0,0.0,0.0,0.0,0.0,0.0,0.0,0.0,0.0,0.0,0.0,0.0,0.0,0.0,0.0,0.0,0.0,0.0,0.0,0.0,0.0,0.0,0.0,0.0,0.0,0.0,0.0,0.0,0.0,0.0,0.0,0.0,0.0,0.0,0.0,0.0,0.0,0.0,0.0,0.0,0.0,0.0,0.0,0.0,0.0,0.0,0.0,0.0,0.0,0.0,0.0,0.0,0.0,0.0,0.0,0.0,0.0,0.0,0.0,0.0,0.0,0.0,0.0,0.0,0.0,0.0,0.0,0.0,0.0,0.0,0.0,0.0,0.0,0.0,0.0,0.0,0.0,0.0,0.0,0.0,0.0,0.0,0.0,0.0,0.0,0.0,0.0,0.0,0.0,0.0,0.0,0.0,0.0,0.0,0.0,0.0,0.0,0.0,0.0,0.0,0.0,0.0,0.0,0.0,0.0,0.0,0.0,0.0,0.0,0.0,0.0,0.0,0.0,0.0,0.0,0.0,0.0,0.0,0.0,0.0,0.0,0.0,0.0,0.0,0.0,0.0,0.0,0.0,0.0,0.0,0.0,0.0,0.0,0.0,0.0,0.0,0.0,0.0,0.0,0.0,0.0,0.0,0.0,0.0,0.0,0.0,0.0,0.0,0.0,0.0,0.0,0.0,0.0,0.0,0.0,0.0,0.0,0.0,0.0,0.0,0.0,0.0,0.0,0.0,0.0,0.0,0.0,0.0,0.0,0.0,0.0,0.0,0.0,0.0,0.0,0.0,0.0,0.0,0.0,0.0,0.0,0.0,0.0,0.0,0.0,0.0,0.0,0.0,0.0,0.0,0.0,0.0,0.0,0.0,0.0,0.0,0.0,0.0,0.0,0.0,0.0,0.0,0.0,0.0,0.0,0.0,0.0,0.0,0.0,0.0,0.0,0.0,0.0,0.0,0.0,0.0,0.0,0.0,0.0,0.0,0.0,0.0,0.0,0.0,0.0,0.0,0.0,0.0,0.0,0.0,0.0,0.0,0.0,0.0,0.0,0.0,0.0,0.0,0.0,0.0,0.0,0.0,0.0,0.0,0.0,0.0,0.0,0.0,0.0,0.0,0.0,0.0,0.0,0.0,0.0,0.0,0.0,0.0,0.0,0.0,0.0,0.0,0.0,0.0,0.0,0.0,0.0,0.0,0.0,0.0,0.0,0.0,0.0,0.0,0.0,0.0,0.0,0.0,0.0,0.0,0.0,0.0,0.0,0.0,0.0,0.0,0.0,0.0,0.0,0.0,0.0,0.0,0.0,0.0,0.0,0.0,0.0,0.0,0.0,0.0,0.0,0.0,0.0,0.0,0.0,0.0,0.0,0.0,0.0,0.0,0.0,0.0,0.0,0.0,0.0,0.0,0.0,0.0,0.0,0.0,0.0,0.0,0.0,0.0,0.0,0.0,0.0,0.0,0.0,0.0,0.0,0.0,0.0,0.0,0.0,0.0,0.0,0.0,0.0,0.0,0.0,0.0,0.0,0.0,0.0,0.0,0.0,0.0,0.0,0.0,0.0,0.0,0.0,0.0,0.0,0.0,0.0,0.0,0.0,0.0,0.0,0.0,0.0,0.0,0.0,0.0,0.0,0.0,0.0,0.0,0.0,0.0,0.0,0.0,0.0,0.0,0.0,0.0,0.0,0.0,0.0,0.0,0.0,0.0,0.0,0.0,0.0,0.0,0.0,0.0,0.0,0.0,0.0,0.0,0.0,0.0,0.0,0.0,0.0,0.0,0.0,0.0,0.0,0.0,0.0,0.0,0.0,0.0,0.0,0.0,0.0,0.0,0.0,0.0,0.0,0.0,0.0,0.0,0.0,0.0,0.0,0.0,0.0,0.0,0.0,0.0,0.0,0.0,0.0,0.0,0.0,0.0,0.0,0.0,0.0,0.0,0.0,0.0,0.0,0.0,0.0,0.0,0.0,0.0,0.0,0.0,0.0,0.0,0.0,0.0,0.0,0.0,0.0,0.0,0.0,0.0,0.0,0.0,0.0,0.0,0.0,0.0,0.0,0.0,0.0,0.0,0.0,0.0,0.0,0.0,0.0,0.0,0.0,0.0,0.0,0.0,0.0,0.0,0.0,0.0,0.0,0.0,0.0,0.0,0.0,0.0,0.0,0.0,0.0,0.0,0.0,0.0,0.0,0.0,0.0,0.0,0.0,0.0,0.0,0.0,0.0,0.0,0.0,0.0,0.0,0.0,0.0,0.0,0.0,0.0,0.0,0.0,0.0,0.0,0.0,0.0,0.0,0.0,0.0,0.0,0.0,0.0,0.0,0.0,0.0,0.0,0.0,0.0,0.0,0.0,0.0,0.0,0.0,0.0,0.0,0.0,0.0,0.0,0.0,0.0,0.0,0.0,0.0,0.0,0.0,0.0,0.0,0.0,0.0,0.0,0.0,0.0,0.0,0.0,0.0,0.0,0.0,0.0,0.0,0.0,0.0,0.0,0.0,0.0,0.0,0.0,0.0,0.0,0.0,0.0,0.0,0.0,0.0,0.0,0.0,0.0,0.0,0.0,0.0,0.0,0.0,0.0,0.0,0.0,0.0,0.0,0.0,0.0,0.0,0.0,0.0,0.0,0.0,0.0,0.0,0.0,0.0,0.0,0.0,0.0,0.0,0.0,0.0,0.0,0.0,0.0,0.0,0.0,0.0,0.0,0.0,0.0,0.0,0.0,0.0,0.0,0.0,0.0,0.0,0.0,0.0,0.0,0.0,0.0,0.0,0.0,0.0,0.0,0.0,0.0,0.0,0.0,0.0,0.0,0.0,0.0,0.0,0.0,0.0,0.0,0.0,0.0,0.0,0.0,0.0,0.0,0.0,0.0,0.0,0.0,0.0,0.0,0.0,0.0,0.0,0.0,0.0,0.0,0.0,0.0,0.0,0.0,0.0,0.0,0.0,0.0,0.0,0.0,0.0,0.0,0.0,0.0,0.0,0.0,0.0,0.0,0.0,0.0,0.0,0.0,0.0,0.0,0.0,0.0,0.0,0.0,0.0,0.0,0.0,0.0,0.0,0.0,0.0,0.0,0.0,0.0,0.0,0.0,0.0,0.0,0.0,0.0,0.0,0.0,0.0,0.0,0.0,0.0,0.0,0.0,0.0,0.0,0.0,0.0,0.0,0.0,0.0,0.0,0.0,0.0,0.0,0.0,0.0,0.0,0.0,0.0,0.0,0.0,0.0,0.0,0.0,0.0,0.0,0.0,0.0,0.0,0.0,0.0,0.0,0.0,0.0,0.0,0.0,0.0,0.0,0.0,0.0,0.0,0.0,0.0,0.0,0.0,0.0,0.0,0.0,0.0,0.0,0.0,0.0,0.0,0.0,0.0,0.0,0.0,0.0,0.0,0.0,0.0,0.0,0.0,0.0,0.0,0.0,0.0,0.0,0.0,0.0,0.0,0.0,0.0,0.0,0.0,0.0,0.0,0.0,0.0,0.0,0.0,0.0,0.0,0.0,0.0,0.0,0.0,0.0,0.0,0.0,0.0,0.0,0.0,0.0,0.0,0.0,0.0,0.0,0.0,0.0,0.0,0.0,0.0,0.0,0.0,0.0,0.0,0.0,0.0,0.0,0.0,0.0,0.0,0.0,0.0,0.0,0.0,0.0,0.0,0.0,0.0,0.0,0.0,0.0,0.0,0.0,0.0,0.0,0.0,0.0,0.0,0.0,0.0,0.0,0.0,0.0,0.0,0.0,0.0,0.0,0.0,0.0,0.0,0.0,0.0,0.0,0.0,0.0,0.0,0.0,0.0,0.0,0.0,0.0,0.0,0.0,0.0,0.0,0.0,0.0,0.0,0.0,0.0,0.0,0.0,0.0,0.0,0.0,0.0,0.0,0.0,0.0,0.0,0.0,0.0,0.0,0.0,0.0,0.0,0.0,0.0,0.0,0.0,0.0,0.0,0.0,0.0,0.0,0.0,0.0,0.0,0.0,0.0,0.0,0.0,0.0,0.0,0.0,0.0,0.0,0.0,0.0,0.0,0.0,0.0,0.0,0.0,0.0,0.0,0.0,0.0,0.0,0.0,0.0,0.0,0.0,0.0,0.0,0.0,0.0,0.0,0.0,0.0,0.0,0.0,0.0,0.0,0.0,0.0,0.0,0.0,0.0,0.0,0.0,0.0,0.0,0.0,0.0,0.0,0.0,0.0,0.0,0.0,0.0,0.0,0.0,0.0,0.0,0.0,0.0,0.0,0.0,0.0,0.0,0.0,0.0,0.0,0.0,0.0,0.0,0.0,0.0,0.0,0.0,0.0,0.0,0.0,0.0,0.0,0.0,0.0,0.0,0.0,0.0,0.0,0.0,0.0,0.0,0.0,0.0,0.0,0.0,0.0,0.0,0.0,0.0,0.0,0.0,0.0,0.0,0.0,0.0,0.0,0.0,0.0,0.0,0.0,0.0,0.0,0.0,0.0,0.0,0.0,0.0,0.0,0.0,0.0,0.0,0.0,0.0,0.0,0.0,0.0,0.0,0.0,0.0,0.0,0.0,0.0,0.0,0.0,0.0,0.0,0.0,0.0,0.0,0.0,0.0,0.0,0.0,0.0,0.0,0.0,0.0,0.0,0.0,0.0,0.0,0.0,0.0,0.0,0.0,0.0,0.0,0.0,0.0,0.0,0.0,0.0,0.0,0.0,0.0,0.0,0.0,0.0,0.0,0.0,0.0,0.0,0.0,0.0,0.0,0.0,0.0,0.0,0.0,0.0,0.0,0.0,0.0,0.0,0.0,0.0,0.0,0.0,0.0,0.0,0.0,0.0,0.0,0.0,0.0,0.0,0.0,0.0,0.0,0.0,0.0,0.0,0.0,0.0,0.0,0.0,0.0,0.0,0.0,0.0,0.0,0.0,0.0,0.0,0.0,0.0,0.0,0.0,0.0,0.0,0.0,0.0,0.0,0.0,0.0,0.0,0.0,0.0,0.0,0.0,0.0,0.0,0.0,0.0,0.0,0.0,0.0,0.0,0.0,0.0,0.0,0.0,0.0,0.0,0.0,0.0,0.0,0.0,0.0,0.0,0.0,0.0,0.0,0.0,0.0,0.0,0.0,0.0,0.0,0.0,0.0,0.0,0.0,0.0,0.0,0.0,0.0,0.0,0.0,0.0,0.0,0.0,0.0,0.0,0.0,0.0,0.0,0.0,0.0,0.0,0.0,0.0,0.0,0.0,0.0,0.0,0.0,0.0,0.0,0.0,0.0,0.0,0.0,0.0,0.0,0.0,0.0,0.0,0.0,0.0,0.0,0.0,0.0,0.0,0.0,0.0,0.0,0.0,0.0,0.0,0.0,0.0,0.0,0.0,0.0,0.0,0.0,0.0,0.0,0.0,0.0,0.0,0.0,0.0,0.0,0.0,0.0,0.0,0.0,0.0,0.0,0.0,0.0,0.0,0.0,0.0,0.0,0.0,0.0,0.0,0.0,0.0,0.0,0.0,0.0,0.0,0.0,0.0,0.0,0.0,0.0,0.0,0.0,0.0,0.0,0.0,0.0,0.0,0.0,0.0,0.0,0.0,0.0,0.0,0.0,0.0,0.0,0.0,0.0,0.0,0.0,0.0,0.0,0.0,0.0,0.0,0.0,0.0,0.0,0.0,0.0,0.0,0.0,0.0,0.0,0.0,0.0,0.0,0.0,0.0,0.0,0.0,0.0,0.0,0.0,0.0,0.0,0.0,0.0,0.0,0.0,0.0,0.0,0.0,0.0,0.0,0.0,0.0,0.0,0.0,0.0,0.0,0.0,0.0,0.0,0.0,0.0,0.0,0.0,0.0,0.0,0.0,0.0,0.0,0.0,0.0,0.0,0.0,0.0,0.0,0.0,0.0,0.0,0.0,0.0,0.0,0.0,0.0,0.0,0.0,0.0,0.0,0.0,0.0,0.0,0.0,0.0,0.0,0.0,0.0,0.0,0.0,0.0,0.0,0.0,0.0,0.0,0.0,0.0,0.0,0.0,0.0,0.0,0.0,0.0,0.0,-5.5683,0.0,0.0,0.0,0.0,0.0,0.0,0.0,0.0,0.0,0.0,0.0,0.0,0.0,0.0,0.0,0.0,0.0,0.0,0.0,0.0,0.0,0.0,0.0,0.0,0.0,0.0,0.0,0.0,0.0,0.0,0.0,0.0,0.0,0.0,0.0,0.0,0.0,0.0,0.0,0.0,0.0,0.0,0.0,0.0,0.0,0.0,0.0,0.0,0.0,0.0,0.0,0.0,0.0,0.0,0.0,0.0,0.0,0.0,0.0,0.0,0.0,0.0,0.0,0.0,0.0,0.0,0.0,0.0,0.0,0.0,0.0,0.0,0.0,0.0,0.0,0.0,0.0,0.0,0.0,0.0,0.0,0.0,0.0,0.0,0.0,0.0,0.0,0.0,0.0,0.0,0.0,0.0,0.0,0.0,0.0,0.0,0.0,0.0,0.0,0.0,0.0,0.0,0.0,0.0,0.0,0.0,0.0,0.0,0.0,0.0,0.0,0.0,0.0,0.0,0.0,0.0,-5.6021,0.0,0.0,0.0,0.0,0.0,0.0,0.0,0.0,0.0,0.0,0.0,0.0,0.0,0.0,0.0,0.0,0.0,0.0,0.0,0.0,0.0,0.0,0.0,0.0,0.0,0.0,0.0,0.0,0.0,0.0,0.0,0.0,0.0,0.0,0.0,0.0,0.0,0.0,0.0,0.0,0.0,0.0,0.0,0.0,0.0,0.0,0.0,0.0,0.0,0.0,0.0,0.0,0.0,0.0,0.0,0.0,0.0,0.0,0.0,0.0,0.0,0.0,0.0,0.0,0.0,0.0,0.0,0.0,0.0,0.0,0.0,0.0,0.0,0.0,0.0,0.0,0.0,0.0,0.0,0.0,0.0,0.0,0.0,0.0,0.0,0.0,0.0,0.0,0.0,0.0,0.0,0.0,0.0,0.0,0.0,0.0,0.0,0.0,0.0,0.0,0.0,0.0,0.0,0.0,0.0,0.0,0.0,0.0,0.0,-5.866,-5.866,-5.866,-5.866,-5.866,-5.8389,-5.8964,-5.9911,0.0,0.0,0.0,0.0,0.0,0.0,0.0,0.0,0.0,0.0,0.0,0.0,0.0,0.0,0.0,0.0,0.0,0.0,0.0,0.0,0.0,0.0,0.0,0.0,0.0,0.0,0.0,0.0,0.0,0.0,0.0,0.0,0.0,0.0,0.0,0.0,0.0,0.0,0.0,-5.4162,-5.316,-5.355,-5.5074,-5.3416,0.0,0.0,0.0,0.0,0.0,0.0,0.0,0.0,0.0,0.0,0.0,0.0,0.0,0.0,0.0,0.0,0.0,0.0,0.0,0.0,0.0,0.0,0.0,0.0,0.0,0.0,0.0,0.0,0.0,0.0,0.0,0.0,0.0,0.0,0.0,0.0,0.0,0.0,0.0,0.0,0.0,0.0,0.0,-5.6258,-5.7712,0.0,0.0,0.0,0.0,0.0,0.0,0.0,0.0,0.0,0.0,0.0,0.0,0.0,0.0,-5.9641,-5.9742,-6.0486,-6.1806,-6.1806,-6.1806,-6.1806,-6.1806,-6.1806,-6.1738,-6.0385,0.0,-6.008,-5.9674,0.0,0.0,0.0,0.0,0.0,0.0,0.0,0.0,0.0,0.0,0.0,0.0,0.0,0.0,0.0,0.0,0.0,0.0,0.0,0.0,0.0,0.0,0.0,0.0,0.0,0.0,0.0,0.0,0.0,0.0,0.0,0.0,0.0,0.0,0.0,0.0,-5.4988,-5.6084,-5.6921,-5.6801,-5.7339,-5.8152,-5.7509,-5.5446,-5.2536,-5.2942,0.0,0.0,0.0,0.0,0.0,0.0,0.0,0.0,0.0,0.0,0.0,0.0,0.0,0.0,0.0,0.0,0.0,0.0,0.0,0.0,0.0,0.0,0.0,0.0,0.0,0.0,0.0,0.0,0.0,0.0,0.0,0.0,0.0,0.0,0.0,0.0,0.0,0.0,0.0,-5.6021,-5.7476,-5.8964,-5.8389,-5.7645,0.0,0.0,0.0,0.0,0.0,0.0,0.0,0.0,0.0,-5.9099,-5.9133,-5.9844,-6.1366,-6.14,-6.1738,-6.2381,-6.2381,-6.2381,-6.2381,-6.2381,-6.2381,-6.2347,-6.167,-6.14,-6.1332,-6.0452,-6.0114,-5.9979,0.0,0.0,0.0,0.0,0.0,-5.7074,0.0,0.0,0.0,0.0,0.0,0.0,0.0,0.0,0.0,0.0,0.0,0.0,0.0,0.0,0.0,-5.1792,0.0,0.0,0.0,0.0,0.0,0.0,0.0,0.0,0.0,0.0,0.0,0.0,-5.7205,-5.822,-5.9302,-5.9844,-6.0114,-6.0114,-6.0114,-5.8051,-5.4668,-5.5209,-5.4262,-5.2401,0.0,0.0,0.0,0.0,0.0,0.0,0.0,0.0,0.0,0.0,0.0,0.0,0.0,0.0,0.0,0.0,0.0,0.0,0.0,0.0,0.0,0.0,0.0,0.0,0.0,0.0,0.0,0.0,0.0,0.0,0.0,0.0,0.0,0.0,0.0,0.0,0.0,-5.6968,-5.8423,-5.9911,-5.9471,-5.8896,0.0,0.0,0.0,0.0,0.0,0.0,-5.8423,-5.8457,-5.9133,-6.0655,-6.0689,-6.1231,-6.2381,-6.2381,-6.2381,-6.2381,-6.2381,-6.2381,-6.2381,-6.2381,-6.2381,-6.2381,-6.2381,-6.2381,-6.2313,-6.1163,-6.0689,-6.0655,-6.025,-5.9438,-5.8457,-5.8457,-5.8457,-5.8637,0.0,0.0,0.0,0.0,0.0,0.0,0.0,0.0,0.0,0.0,0.0,0.0,0.0,0.0,-5.3382,-5.3382,-5.345,-5.2841,0.0,0.0,0.0,0.0,0.0,0.0,0.0,0.0,0.0,-5.778,-5.9235,-5.9979,-6.0047,-6.008,-6.0114,-6.0114,-6.0114,-5.9201,-5.7679,-5.7712,-5.6867,-5.5378,-5.3991,0.0,0.0,0.0,0.0,0.0,0.0,0.0,0.0,0.0,0.0,0.0,0.0,0.0,0.0,0.0,0.0,0.0,0.0,0.0,0.0,0.0,0.0,0.0,0.0,0.0,0.0,0.0,0.0,0.0,0.0,0.0,0.0,0.0,0.0,0.0,0.0,0.0,0.0,-5.9911,-6.1332,0.0,0.0,0.0,0.0,-5.7881,-5.7848,-5.849,-5.9911,-5.9979,-6.0689,-6.2245,-6.2279,-6.2313,-6.2381,-6.2381,-6.2381,-6.2381,-6.2381,-6.2381,-6.2381,-6.2381,-6.2381,-6.2381,-6.2381,-6.2381,-6.2381,-6.2313,-6.2279,-6.2144,-6.0655,-6.0047,-5.9979,-5.9979,-5.9979,-6.0216,0.0,0.0,0.0,0.0,0.0,0.0,0.0,0.0,0.0,0.0,0.0,0.0,0.0,-5.3721,-5.5108,-5.5581,-5.6494,-5.6596,-5.5581,0.0,0.0,0.0,0.0,0.0,0.0,0.0,-5.7577,-5.9302,-6.0351,-6.0516,-5.9705,-6.0987,-6.1144,-6.0436,-6.0436,-6.0137,-5.9638,-5.9944,-5.893,-5.7103,-5.707,-5.5615,0.0,0.0,0.0,0.0,0.0,0.0,0.0,0.0,0.0,0.0,0.0,0.0,0.0,0.0,0.0,0.0,0.0,0.0,0.0,0.0,0.0,0.0,0.0,0.0,0.0,0.0,0.0,0.0,0.0,0.0,0.0,0.0,0.0,0.0,0.0,0.0,0.0,-5.9911,-6.0588,0.0,0.0,-6.0114,-5.9877,-5.937,-6.0216,-6.1028,-6.1535,-6.1569,-6.1806,-6.2381,-6.2381,-6.2381,-6.2381,-6.2381,-6.2381,-6.2381,-6.2381,-6.2381,-6.2381,-6.2381,-6.2381,-6.2381,-6.2381,-6.2381,-6.2381,-6.2381,-6.2381,-6.2347,-6.1772,-6.1569,-6.1569,-6.1569,-6.1961,-6.2557,0.0,0.0,0.0,0.0,0.0,0.0,0.0,0.0,0.0,0.0,0.0,-5.3653,-5.4126,-5.5987,-5.7374,-5.7881,-5.8829,-5.8761,-5.7239,0.0,0.0,0.0,0.0,0.0,0.0,-5.778,-5.9133,-6.0892,-6.14,-6.129,-6.0503,-6.1795,-6.1951,-6.1235,-6.1235,-6.1235,-6.1201,-6.1526,-6.0526,-5.8806,-5.8806,-5.7285,-5.4938,0.0,0.0,0.0,0.0,0.0,0.0,0.0,0.0,0.0,0.0,0.0,0.0,0.0,0.0,0.0,0.0,0.0,0.0,0.0,0.0,0.0,0.0,0.0,0.0,0.0,0.0,0.0,0.0,0.0,0.0,0.0,0.0,0.0,0.0,0.0,-5.8998,-5.9979,-6.0554,-6.0892,-6.0892,-6.0892,-6.0892,-6.0892,-6.1806,-6.2381,-6.2381,-6.2381,-6.2381,-6.2381,-6.2381,-6.2381,-6.2381,-6.2381,-6.2381,-6.2381,-6.2381,-6.2381,-6.2381,-6.2381,-6.2381,-6.2381,-6.2381,-6.2381,-6.2381,-6.2381,-6.2381,-6.2381,-6.2381,-6.2581,-6.2855,-6.2855,-6.3388,-6.4288,0.0,0.0,0.0,0.0,0.0,0.0,0.0,0.0,0.0,0.0,-5.4837,-5.6325,-5.7746,-5.9235,-6.0114,-6.0148,-6.0148,-5.893,-5.6055,-5.5818,0.0,0.0,0.0,0.0,-5.8964,-5.9099,-6.0182,-6.2381,-6.2381,-6.2381,-6.2381,-6.2381,-6.2381,-6.2381,-6.2381,-6.2381,-6.2381,-6.2302,-6.1676,-6.0454,-5.9037,-5.8253,-5.7814,0.0,0.0,0.0,0.0,0.0,0.0,0.0,0.0,0.0,0.0,0.0,0.0,0.0,0.0,0.0,0.0,0.0,0.0,0.0,0.0,0.0,0.0,0.0,0.0,0.0,0.0,0.0,0.0,0.0,0.0,0.0,0.0,0.0,-5.7746,-5.9201,-6.0114,-6.0182,-6.1501,-6.2381,-6.2381,-6.2381,-6.2381,-6.2381,-6.2381,-6.2381,-6.2381,-6.2381,-6.2381,-6.2381,-6.2381,-6.2381,-6.2381,-6.2381,-6.2381,-6.2381,-6.2381,-6.2381,-6.2381,-6.2381,-6.2381,-6.2381,-6.2381,-6.2381,-6.2381,-6.2381,-6.2381,-6.2381,-6.2381,-6.2931,-6.3719,-6.3719,-6.4288,-6.5196,0.0,0.0,0.0,0.0,0.0,0.0,0.0,0.0,0.0,0.0,-5.5919,-5.707,-5.8558,-5.9539,-6.0317,-6.0926,-6.096,-6.0385,-5.8998,0.0,0.0,0.0,0.0,0.0,-5.9776,-6.0892,-6.1772,-6.2381,-6.2381,-6.1951,-6.1119,-6.203,-6.1917,-6.1119,-6.1119,-6.1119,-6.1036,-6.0161,-6.0075,-6.0637,-6.1127,-6.0593,-5.9438,0.0,0.0,0.0,0.0,0.0,0.0,0.0,0.0,0.0,0.0,0.0,0.0,0.0,0.0,0.0,0.0,0.0,0.0,0.0,0.0,0.0,0.0,0.0,0.0,0.0,0.0,0.0,0.0,0.0,0.0,0.0,0.0,-5.9032,-5.9438,-5.9844,-6.052,-6.1637,-6.2144,-6.2381,-6.2381,-6.2381,-6.2381,-6.2381,-6.2381,-6.2381,-6.2381,-6.2381,-6.2381,-6.2381,-6.2381,-6.2381,-6.2381,-6.2381,-6.2381,-6.2381,-6.2381,-6.2381,-6.2381,-6.2381,-6.2381,-6.2381,-6.2381,-6.2381,-6.2381,-6.2381,-6.2381,-6.2381,-6.2381,-6.2931,-6.3719,-6.3719,-6.47,-6.6125,0.0,0.0,0.0,0.0,0.0,0.0,0.0,0.0,0.0,0.0,-5.7002,-5.8051,-6.0182,-6.0791,-6.1231,-6.1704,-6.1163,-6.0351,-5.9235,0.0,0.0,0.0,0.0,-6.0385,-6.1061,-6.1941,-6.2381,-6.2381,-6.2381,-6.203,-6.1399,-6.211,-6.203,-6.1317,-6.1317,-6.1317,-6.1317,-6.0586,-6.0703,-6.1399,-6.211,-6.1467,-6.0114,-6.0114,-5.9167,-5.7881,-5.7881,-5.7881,-5.7746,-5.69,0.0,0.0,0.0,0.0,0.0,0.0,0.0,0.0,0.0,0.0,0.0,0.0,0.0,0.0,0.0,0.0,0.0,0.0,0.0,0.0,0.0,0.0,0.0,0.0,-5.9133,-6.0317,-6.096,-6.1061,-6.14,-6.2279,-6.2381,-6.2381,-6.2381,-6.2381,-6.2381,-6.2381,-6.2381,-6.2381,-6.2381,-6.2381,-6.2381,-6.2381,-6.2381,-6.2381,-6.2381,-6.2381,-6.2381,-6.2381,-6.2381,-6.2381,-6.2381,-6.2381,-6.2381,0.0,-6.2381,-6.2381,-6.2415,-6.2719,-6.2854,0.0,0.0,0.0,0.0,0.0,-6.6746,-6.8044,0.0,0.0,0.0,0.0,0.0,0.0,0.0,0.0,0.0,0.0,0.0,-5.9032,-6.2042,-6.2381,-6.2381,-6.2381,-6.0994,-5.9471,0.0,0.0,0.0,-5.9979,-6.0283,-6.0994,-6.2347,-6.2381,-6.2381,-6.2381,-6.2381,-6.2381,-6.2381,-6.2381,-6.2381,-6.2381,-6.2381,-6.2381,-6.2381,-6.2381,-6.2381,-6.2381,-6.2381,-6.1569,-6.0351,-6.0351,-5.9539,-5.8389,-5.8389,-5.8389,-5.8355,-5.8186,0.0,0.0,0.0,0.0,0.0,0.0,0.0,0.0,0.0,0.0,0.0,0.0,0.0,0.0,0.0,0.0,0.0,0.0,0.0,0.0,0.0,0.0,0.0,0.0,-5.937,-6.0825,-6.2212,-6.2381,-6.2381,-6.2381,-6.2381,-6.2381,-6.2381,-6.2381,-6.2381,-6.2381,-6.2381,-6.2381,-6.2381,0.0,0.0,0.0,0.0,-6.2516,-6.2516,-6.2584,-6.2651,-6.2651,-6.2651,-6.2651,-6.2651,-6.2651,-6.2651,-6.2651,-6.2651,-6.2651,-6.2685,-6.3362,-6.3758,-6.3893,-6.4019,-6.4603,-6.5746,-6.8138,-6.9486,0.0,0.0,0.0,0.0,0.0,0.0,0.0,0.0,0.0,0.0,-5.7509,-5.7881,-5.9032,-6.2042,-6.2381,-6.2381,-6.2381,-6.0994,-5.9471,0.0,0.0,-5.9505,-6.008,-6.1298,-6.2076,-6.2381,-6.2381,-6.2381,-6.2381,-6.2381,-6.2381,-6.2381,-6.2381,-6.2381,-6.2381,-6.2381,-6.2381,-6.2381,-6.2381,-6.2381,-6.2381,-6.2381,-6.2212,-6.1941,-6.1941,-6.1772,-6.1535,-6.1535,-6.1535,-6.1332,-6.008,-5.9674,-5.9471,-5.8254,-5.7679,0.0,0.0,0.0,0.0,0.0,0.0,0.0,0.0,0.0,0.0,0.0,0.0,0.0,0.0,0.0,0.0,0.0,0.0,0.0,-5.9641,-6.096,-6.2042,-6.2347,-6.2381,-6.2381,-6.2381,-6.2381,-6.2381,-6.2381,-6.2381,-6.2381,-6.2381,-6.2381,-6.2381,-6.2381,-6.2381,0.0,-6.2381,-6.299,-6.3294,-6.3294,-6.3869,-6.4174,-6.4174,0.0,0.0,-6.4174,-6.4174,-6.4174,-6.4174,-6.4174,-6.4174,-6.4174,-6.4343,-6.5267,-6.6532,-6.6602,-6.7247,-6.8218,-6.9404,-6.9963,-7.011,0.0,0.0,0.0,0.0,0.0,0.0,0.0,0.0,0.0,0.0,-5.6799,-5.7645,-5.9877,-6.0148,-6.0148,-6.0148,-5.9438,0.0,0.0,-5.9268,-6.0452,-6.1197,-6.1975,-6.2381,-6.2381,-6.2381,-6.2381,-6.2381,-6.2381,-6.2381,-6.2381,-6.2381,-6.2381,-6.2381,-6.2381,-6.2381,-6.2381,-6.2381,-6.2381,-6.2381,-6.2381,-6.2381,-6.2381,-6.2381,-6.2381,-6.2381,-6.2381,-6.2381,-6.2279,-6.1501,-6.1231,-6.1129,-6.0385,-5.9607,-5.8693,0.0,0.0,0.0,0.0,0.0,0.0,0.0,0.0,0.0,0.0,0.0,0.0,0.0,0.0,-5.7881,0.0,0.0,-6.0114,-6.0114,-6.14,-6.2381,-6.2381,-6.2381,-6.2381,-6.2381,-6.2381,-6.2381,-6.2381,-6.2381,-6.255,-6.2922,-6.2956,-6.3125,-6.3463,-6.3497,-6.3497,-6.3497,-6.3869,-6.4072,-6.4072,-6.441,-6.4613,-6.4613,-6.4613,-6.4613,-6.4613,-6.4613,-6.4613,-6.4613,-6.4613,-6.4613,-6.4647,-6.4986,-6.6497,-6.8504,-6.8504,-6.9102,-7.0105,-7.0584,-7.0954,-7.1284,0.0,0.0,0.0,0.0,0.0,0.0,0.0,0.0,0.0,0.0,-5.5716,-5.6258,-5.7712,-5.7881,-5.778,0.0,0.0,0.0,0.0,-5.9539,-6.1095,-6.2347,-6.2381,-6.2381,-6.2381,-6.2381,-6.2381,-6.2381,-6.2381,-6.2381,-6.2381,-6.2381,-6.2381,-6.2381,-6.2381,-6.2381,-6.2381,-6.2381,-6.2381,-6.2381,-6.2381,-6.2381,-6.2381,-6.2381,-6.2381,-6.2381,-6.2381,-6.2212,-6.1975,-6.2279,-6.2178,-6.2009,-6.2313,-6.1332,-5.981,-5.8321,-5.6867,0.0,0.0,0.0,0.0,0.0,0.0,0.0,0.0,0.0,-5.8389,-5.8693,-5.8761,-5.8761,-5.8761,-5.9742,-6.0554,-6.0554,-6.1569,-6.2448,-6.2584,-6.2618,-6.2651,-6.2787,-6.2685,-6.2651,-6.2787,-6.2821,-6.3057,-6.3666,-6.3734,-6.3971,-6.458,-6.4613,-6.4613,-6.4613,-6.4749,-6.4816,-6.4816,-6.4952,-6.5019,-6.5019,-6.5019,-6.5019,-6.5019,-6.5019,-6.5019,-6.5019,-6.523,-6.5311,-6.5345,-6.6371,-6.8049,-6.9989,-7.0196,-7.0798,-7.1541,-7.1541,-7.1945,-7.2496,0.0,0.0,0.0,0.0,0.0,0.0,0.0,0.0,0.0,0.0,0.0,0.0,0.0,0.0,0.0,0.0,0.0,0.0,-5.7983,-6.0554,-6.2212,-6.2381,-6.2381,-6.2381,-6.2381,-6.2381,-6.2381,-6.2381,-6.2381,-6.2381,-6.2381,-6.2381,-6.2381,-6.2381,-6.2381,-6.2381,-6.2381,-6.2381,-6.2381,-6.2381,-6.2381,-6.2381,-6.2381,-6.2381,-6.2381,-6.2381,-6.2381,-6.1501,-6.0554,-6.1941,-6.1501,-6.0588,-6.1975,-6.1332,-5.981,-5.8321,0.0,-5.5412,-5.3923,0.0,0.0,-5.5919,-5.6799,-5.8017,0.0,0.0,-6.025,-6.1603,-6.1873,-6.1873,-6.1873,-6.2009,-6.2144,-6.2144,-6.2279,-6.2618,-6.3294,-6.3396,-6.3632,-6.4275,-6.3802,-6.3632,-6.4275,-6.4343,-6.4377,-6.4478,-6.4478,-6.4512,-6.4613,-6.4613,-6.4613,-6.4613,-6.5222,-6.5561,-6.5561,-6.6237,-6.6576,-6.6576,-6.6576,-6.6576,-6.6576,-6.6576,-6.6576,-6.6625,-6.7467,-6.7826,-6.7946,-6.9775,-7.0662,-7.1031,-7.1854,-7.2248,-7.2386,-7.2386,-7.2422,-7.2496,0.0,0.0,0.0,0.0,0.0,0.0,0.0,0.0,0.0,0.0,0.0,0.0,0.0,0.0,0.0,0.0,0.0,0.0,-5.7915,-6.0723,-6.2381,-6.2381,-6.2381,-6.2381,-6.2381,-6.2381,-6.2381,-6.2381,-6.2381,-6.2381,-6.2381,-6.2381,-6.2381,-6.2381,-6.2381,-6.2381,-6.2381,-6.2381,-6.2381,-6.2381,-6.2381,-6.2381,-6.2381,-6.2381,-6.2381,-6.2279,-6.1366,-6.0655,0.0,-6.0825,-6.0622,-6.0351,-6.1907,-6.1332,-5.981,-5.8321,-5.6867,0.0,-5.5987,0.0,0.0,0.0,-5.937,-5.9573,-6.1095,-6.1434,-6.1603,-6.2245,-6.2381,-6.2381,-6.2381,-6.2381,-6.2516,0.0,-6.3057,-6.3294,-6.4038,-6.414,-6.441,-6.5155,-6.4952,-6.4715,-6.4613,-6.4613,-6.4783,-6.5189,-6.5222,-6.5425,-6.5865,-6.5899,-6.5899,-6.5899,-6.617,-6.6339,-6.6339,-6.6643,-6.6812,-6.6812,-6.6812,-6.6812,-6.6812,-6.7252,-6.7692,-6.8132,-6.8573,-6.8705,-6.8871,-7.0237,-7.109,-7.1759,-7.2698,-7.3398,-7.378,-7.2863,-7.2789,-7.3193,0.0,0.0,0.0,0.0,0.0,0.0,0.0,0.0,0.0,0.0,0.0,0.0,0.0,0.0,0.0,0.0,0.0,0.0,0.0,-6.0317,-6.1941,-6.2381,-6.2381,-6.2381,-6.2381,-6.2381,-6.2381,-6.2381,-6.2381,-6.2381,-6.2381,-6.2381,-6.2381,-6.2381,-6.2381,-6.2381,-6.2381,-6.2381,-6.2381,-6.2381,-6.2381,-6.2381,-6.2381,-6.2381,-6.2144,-6.1603,-6.0486,-5.9844,-5.9471,-5.9471,-5.9235,-5.9167,-6.0655,-6.0114,-5.8693,-5.7611,-5.6258,-5.5446,-5.69,0.0,0.0,-6.0858,-6.1231,-6.1028,-6.2144,-6.2381,-6.2448,-6.2651,-6.2685,-6.2753,-6.2956,-6.299,0.0,-6.3734,-6.3802,-6.4072,-6.4783,-6.4884,-6.5189,-6.5899,-6.6,-6.5797,-6.5256,-6.5222,-6.5425,-6.5967,-6.6,-6.6237,-6.6779,-6.6812,-6.6914,-6.7117,-6.7117,-6.7218,-6.7455,-6.7455,-6.7455,-6.7455,-6.7455,-6.7455,-6.7455,-6.7996,-6.8538,-6.9113,-6.939,-6.9442,-6.9612,-7.0828,-7.1788,-7.2513,-7.3507,-7.4322,-7.4771,-7.3597,-7.3523,-7.4037,0.0,0.0,0.0,0.0,0.0,0.0,0.0,0.0,0.0,0.0,0.0,0.0,0.0,0.0,0.0,0.0,0.0,0.0,0.0,-5.9302,-6.0825,-6.2313,-6.2381,-6.2381,-6.2381,-6.2381,-6.2381,-6.2381,-6.2381,-6.2381,-6.2381,-6.2381,-6.2381,-6.2381,-6.2381,-6.2381,-6.2381,-6.2381,-6.2381,-6.2381,-6.2381,-6.2381,-6.2381,-6.2381,-6.1467,-6.0148,-6.0114,-5.9167,-5.7949,-5.7949,-5.7036,-5.6122,-5.7577,-5.7036,0.0,-5.5784,-5.4735,0.0,0.0,0.0,-5.8186,-5.9776,-6.1264,-6.2347,-6.2381,-6.2381,-6.2584,-6.3328,-6.3497,-6.37,-6.441,-6.4546,-6.4546,-6.4546,-6.458,-6.4816,-6.5561,-6.5662,-6.5933,-6.6677,-6.6779,-6.6779,0.0,-6.6745,-6.6745,-6.6779,-6.6779,-6.6779,-6.6812,-6.6812,-6.7151,-6.7827,-6.7861,-6.8233,-6.9011,-6.9045,-6.9045,-6.9045,-6.9045,-6.9045,-6.9045,-6.9045,-6.9079,-6.9166,-7.0045,-7.0465,-7.0625,-7.2478,-7.3374,-7.3441,-7.4482,-7.4859,-7.4918,-7.4845,-7.4845,-7.4882,0.0,0.0,0.0,0.0,0.0,0.0,0.0,0.0,0.0,0.0,0.0,0.0,0.0,0.0,0.0,0.0,0.0,0.0,0.0,-5.8727,-6.0317,-6.0858,-6.1839,-6.2381,-6.2381,-6.2381,-6.2381,-6.2381,-6.2381,-6.2381,-6.2381,-6.2381,-6.2381,-6.2381,-6.2381,-6.2381,-6.2381,-6.2381,-6.2381,-6.2381,-6.2381,-6.1772,-6.0858,-6.0858,-5.9945,-5.849,0.0,-5.6867,-5.6461,-5.6461,-5.6122,0.0,-5.7442,0.0,0.0,-5.5716,0.0,0.0,0.0,0.0,-5.9708,-6.1231,-6.2009,-6.2516,-6.3024,-6.3125,-6.3328,-6.4072,-6.4241,-6.4309,-6.4546,-6.4613,-6.4749,-6.5256,-6.5324,-6.5595,-6.6339,-6.644,-6.6542,-6.6779,-6.6812,0.0,0.0,0.0,0.0,-6.6812,-6.7252,-6.7523,-6.7523,-6.803,-6.8436,-6.8707,-6.8707,-6.8842,-6.9113,-6.9113,-6.9113,-6.9113,-6.9113,-6.935,-6.9823,-6.9823,-7.0463,-7.1607,-7.1905,-7.2405,-7.3076,-7.4403,-7.4993,-7.5097,-7.6053,-7.6497,-7.6497,-7.6497,-7.6497,-7.6423,0.0,0.0,0.0,0.0,0.0,0.0,0.0,0.0,0.0,0.0,0.0,0.0,0.0,0.0,0.0,0.0,0.0,0.0,0.0,0.0,-5.8761,-5.9268,-6.025,-6.0791,-6.0791,-6.0791,-6.0791,-6.0791,-6.1298,-6.1569,-6.1569,-6.2144,-6.2381,-6.2381,-6.2381,-6.2381,-6.2381,-6.2381,-6.2076,-6.1569,-6.1569,-6.0655,-5.9302,-5.9302,-5.8389,0.0,-5.6055,-5.5378,-5.4938,-5.4938,-5.4938,0.0,0.0,0.0,0.0,0.0,0.0,0.0,0.0,-6.0114,-6.052,-6.2347,-6.2787,-6.299,-6.3734,-6.3903,-6.4106,-6.485,-6.4986,-6.5087,-6.5358,-6.5392,-6.5561,-6.6,-6.6102,-6.6271,-6.6745,-6.7049,-6.7184,-6.7184,-6.7455,0.0,0.0,0.0,0.0,-6.7624,-6.8064,-6.8335,-6.8335,-6.8808,-6.9214,-6.9485,-6.9485,-6.962,-6.9891,-6.9891,-6.9891,-6.9891,-6.9891,-7.0128,-7.0601,-7.0601,-7.1386,-7.2797,-7.2797,-7.3412,-7.4385,-7.5369,-7.5787,-7.5891,-7.6956,-7.7304,-7.7304,-7.7304,-7.7524,-7.7671,0.0,0.0,0.0,0.0,0.0,0.0,0.0,0.0,0.0,0.0,0.0,0.0,0.0,0.0,0.0,0.0,0.0,0.0,0.0,0.0,0.0,-5.7712,-5.7848,-5.7881,-5.7881,-5.7881,-5.7881,-5.7881,-5.9302,-5.9979,-6.0013,-6.1467,-6.2144,-6.2144,-6.2144,-6.2144,-6.2144,-6.2144,-6.1332,-5.9979,-5.9979,-5.9099,-5.778,-5.778,-5.6867,-5.5615,-5.5615,-5.4702,-5.3518,0.0,0.0,0.0,0.0,0.0,0.0,0.0,0.0,-5.6562,-5.9438,-6.025,-6.0791,-6.299,-6.3531,-6.3768,-6.4478,-6.4613,-6.4749,-6.5493,-6.5561,-6.573,0.0,0.0,-6.6711,-6.6711,-6.6779,-6.6812,-6.688,-6.7455,-6.7929,0.0,0.0,0.0,0.0,0.0,0.0,-6.9214,0.0,-6.9147,-6.9147,-6.918,-6.9519,-7.0229,-7.0263,-7.0601,-7.1312,-7.1312,-7.1312,-7.1312,-7.1312,-7.1312,-7.1312,-7.1312,-7.183,-7.2797,-7.2797,-7.3412,-7.4385,-7.5405,-7.5859,-7.5963,-7.7029,-7.7451,-7.7451,-7.7451,-7.7965,-7.8552,0.0,0.0,0.0,0.0,0.0,0.0,0.0,0.0,0.0,0.0,0.0,0.0,0.0,0.0,0.0,0.0,0.0,0.0,0.0,0.0,0.0,0.0,0.0,0.0,0.0,0.0,0.0,-5.7881,-5.8254,-5.8457,-5.8457,-5.8863,-5.9032,-5.9032,-5.9032,-5.9032,-5.9032,-5.9032,-5.8795,-5.8457,-5.8457,-5.7577,-5.6258,-5.6258,-5.5344,-5.4059,-5.4059,-5.3822,0.0,0.0,0.0,0.0,0.0,0.0,-5.7611,0.0,0.0,-5.9404,-6.1298,-6.2212,-6.2787,-6.3362,-6.3937,-6.4512,-6.5256,-6.458,-6.4005,-6.4715,-6.4005,-6.3294,0.0,0.0,0.0,-6.5155,-6.6102,0.0,-6.7557,-6.7793,0.0,0.0,0.0,-6.9316,-6.9857,-6.9925,0.0,0.0,-7.0229,-6.9925,-6.9925,-7.0432,-7.0838,-7.1007,-7.1041,-7.1109,-7.1312,-7.1312,-7.1312,-7.1312,-7.1312,-7.1312,-7.1312,-7.1312,-7.183,-7.2797,-7.2797,-7.3412,-7.4421,-7.6051,-7.6653,-7.6863,-7.8528,-7.914,-7.914,-7.914,-7.9286,-7.9433,0.0,0.0,0.0,0.0,0.0,0.0,0.0,0.0,0.0,0.0,0.0,0.0,0.0,0.0,0.0,0.0,0.0,0.0,0.0,0.0,0.0,0.0,0.0,0.0,0.0,0.0,0.0,-5.5953,-5.663,-5.6934,-5.6934,-5.7577,-5.7881,-5.7881,-5.7881,-5.7881,-5.7881,-5.7881,-5.7509,0.0,0.0,-5.6055,-5.4735,-5.4735,-5.4228,-5.3518,-5.3518,0.0,0.0,0.0,0.0,-5.6934,-5.8389,-5.8863,-5.9167,-6.0655,0.0,-6.0452,-6.1975,-6.2956,-6.3599,-6.3903,-6.4546,-6.5121,-6.5189,-6.458,-6.3937,-6.3666,-6.2956,0.0,0.0,0.0,0.0,0.0,0.0,0.0,-6.7827,-6.847,-6.9079,0.0,-6.9891,0.0,-7.0635,-7.0669,-7.0872,0.0,0.0,-7.0669,-7.0669,-7.1075,-7.1312,-7.1312,-7.1312,-7.1312,-7.1312,-7.1312,-7.1312,-7.1312,-7.1312,-7.1312,-7.1312,-7.1312,-7.2,-7.3282,0.0,-7.4787,-7.6157,-7.7651,-7.8207,-7.8347,-7.9352,-7.98,-7.98,-7.98,-8.0021,-8.0314,0.0,0.0,0.0,0.0,0.0,0.0,0.0,0.0,0.0,0.0,0.0,0.0,0.0,0.0,0.0,0.0,0.0,0.0,0.0,0.0,0.0,0.0,0.0,0.0,0.0,0.0,0.0,0.0,0.0,-5.5412,-5.5446,-5.6731,-5.7306,-5.7306,-5.7306,-5.7306,-5.7306,-5.7306,-5.6596,-5.5412,-5.5412,-5.4634,-5.3518,0.0,-5.3518,-5.3518,0.0,0.0,0.0,0.0,-5.7881,-5.8186,-5.9877,-6.0419,-6.0655,-6.2009,-6.1434,-6.0723,-6.2144,-6.3091,-6.3835,-6.4546,-6.529,-6.5628,-6.4783,-6.4444,-6.3903,-6.2381,0.0,-6.2245,-6.3734,0.0,-6.4478,-6.5967,0.0,-6.7421,-6.7726,-6.8977,-6.9992,-7.0297,-7.0906,-7.1312,-7.1312,-7.1312,-7.1312,-7.1312,-7.1312,-7.1312,-7.1312,-7.1312,-7.1312,-7.1312,-7.1312,-7.1312,-7.1312,-7.1312,-7.1312,-7.1312,-7.1413,-7.1447,-7.1447,-7.1548,-7.239,-7.391,0.0,0.0,-7.7919,-7.9215,-7.9783,-7.9783,-8.0057,-8.0094,-8.0094,-8.0094,-8.0571,-8.1158,0.0,0.0,0.0,0.0,0.0,0.0,0.0,0.0,0.0,0.0,0.0,0.0,0.0,0.0,0.0,0.0,0.0,0.0,0.0,0.0,0.0,0.0,0.0,0.0,0.0,0.0,0.0,0.0,0.0,0.0,-5.389,-5.416,-5.4262,-5.4262,-5.4262,-5.4262,-5.4262,-5.4262,-5.4126,-5.389,-5.389,-5.3721,-5.3518,-5.3518,0.0,0.0,0.0,0.0,0.0,0.0,-5.7881,-5.8355,-6.1129,-6.1975,-6.2042,-6.2313,-6.2212,-6.2178,-6.3091,-6.3869,-6.458,-6.5324,-6.6068,-6.6271,-6.4918,-6.3666,0.0,0.0,-5.9505,-5.9133,-6.0622,-6.0892,0.0,-6.2888,0.0,0.0,0.0,0.0,-6.9011,0.0,0.0,0.0,0.0,0.0,0.0,0.0,0.0,0.0,-7.1312,-7.1312,-7.1312,-7.1312,-7.1312,-7.1312,-7.1312,-7.1312,-7.1312,-7.1312,-7.1921,-7.2225,-7.2225,-7.2834,-7.3264,-7.3606,0.0,0.0,-7.5837,-7.8456,-7.9535,-7.9677,-8.119,-8.1782,-8.1782,-8.1782,-8.1856,-8.2003,0.0,0.0,0.0,0.0,0.0,0.0,0.0,0.0,0.0,0.0,0.0,0.0,0.0,0.0,0.0,0.0,0.0,0.0,0.0,0.0,0.0,0.0,0.0,0.0,0.0,0.0,0.0,0.0,0.0,0.0,0.0,0.0,0.0,0.0,0.0,-5.3518,-5.3518,-5.3518,-5.3518,-5.3518,-5.3518,-5.3518,-5.3518,0.0,0.0,0.0,0.0,0.0,0.0,0.0,-5.6765,-5.7408,-6.1197,-6.2381,-6.2245,-6.1434,-6.1772,-6.2381,-6.2381,-6.3463,-6.4783,-6.5493,-6.6237,-6.6203,-6.3971,0.0,0.0,0.0,-5.8389,-5.8355,-5.9844,-6.0114,0.0,0.0,0.0,0.0,0.0,0.0,0.0,0.0,0.0,0.0,0.0,0.0,0.0,0.0,0.0,0.0,0.0,-7.1312,-7.1312,-7.1312,-7.1312,-7.1481,-7.1887,-7.1887,-7.209,-7.2462,-7.28,-7.2969,-7.2969,-7.3341,-7.3713,-7.4145,-7.5185,0.0,-7.6434,-7.8434,-7.9231,-7.9343,-8.0187,-8.0911,-8.1405,-8.1405,-8.1715,-8.2186,0.0,0.0,0.0,0.0,0.0,0.0,0.0,0.0,0.0,0.0,0.0,0.0,0.0,0.0,0.0,0.0,0.0,0.0,0.0,0.0,0.0,0.0,0.0,0.0,0.0,0.0,0.0,0.0,0.0,0.0,0.0,0.0,0.0,0.0,0.0,0.0,0.0,-5.3518,-5.3518,0.0,0.0,0.0,0.0,0.0,0.0,0.0,0.0,0.0,0.0,0.0,-5.5716,-5.6393,-6.0216,-6.1434,-6.1264,-6.0351,-6.096,-6.1907,-6.1975,-6.3294,-6.4816,-6.5696,-6.6373,-6.6034,-6.3057,-6.2381,0.0,0.0,-5.7881,-5.8355,-5.9844,-5.9844,-6.0114,0.0,0.0,0.0,0.0,0.0,0.0,0.0,0.0,0.0,0.0,0.0,0.0,0.0,0.0,0.0,0.0,-7.1785,-7.1785,-7.1785,-7.1785,-7.2056,-7.2631,-7.2631,-7.2935,-7.3477,-7.3646,-7.3713,-7.3713,-7.3883,-7.4289,-7.4924,-7.5977,0.0,0.0,-7.8577,-7.8983,-7.8983,-7.9222,-7.988,-8.0623,-8.084,-8.1474,-8.2186,0.0,0.0,0.0,0.0,0.0,0.0,0.0,0.0,0.0,0.0,0.0,0.0,0.0,0.0,0.0,0.0,0.0,0.0,0.0,0.0,0.0,0.0,0.0,0.0,0.0,0.0,0.0,0.0,0.0,0.0,0.0,0.0,0.0,0.0,0.0,0.0,0.0,0.0,0.0,0.0,0.0,0.0,0.0,0.0,0.0,0.0,0.0,0.0,0.0,0.0,0.0,-5.6021,-5.7746,-5.8287,-5.8524,-5.9742,0.0,0.0,-6.3565,-6.4444,-6.4952,-6.6373,-6.6779,-6.6034,-6.3057,0.0,0.0,-5.8524,-5.7881,-5.8355,-5.9844,-5.8998,-5.8592,-6.008,-6.0554,-6.167,0.0,0.0,0.0,0.0,0.0,0.0,0.0,0.0,0.0,0.0,0.0,0.0,0.0,-7.3274,-7.3274,-7.3274,-7.3274,-7.3308,-7.3375,-7.3375,-7.3409,-7.351,-7.4187,-7.4525,-7.4525,-7.5202,-7.554,-7.5669,0.0,0.0,0.0,-7.8577,-7.8983,-7.9063,-8.0032,-8.0514,-8.0695,-8.1715,-8.2121,-8.2186,0.0,0.0,0.0,0.0,0.0,0.0,0.0,0.0,0.0,0.0,0.0,0.0,0.0,0.0,0.0,0.0,0.0,0.0,0.0,0.0,0.0,0.0,0.0,0.0,0.0,0.0,0.0,0.0,0.0,0.0,0.0,0.0,0.0,0.0,0.0,0.0,0.0,0.0,0.0,0.0,0.0,0.0,0.0,0.0,0.0,0.0,0.0,0.0,0.0,0.0,0.0,0.0,-5.5074,-5.5243,0.0,0.0,-5.8727,-6.0351,-6.1569,-6.3226,-6.4952,-6.644,-6.6812,-6.6034,-6.3057,0.0,0.0,-5.8524,-5.7881,-5.8084,-5.866,-5.8287,-5.8084,-5.866,-6.0283,-6.2212,0.0,0.0,0.0,0.0,0.0,0.0,0.0,0.0,0.0,0.0,0.0,0.0,0.0,-7.3984,-7.3477,-7.3477,-7.3477,-7.3713,-7.4153,-7.4153,-7.439,-7.483,-7.5134,-7.527,-7.527,-7.5574,-7.5709,-7.5709,0.0,0.0,0.0,-7.6837,-7.7016,-7.7105,-7.821,-7.9063,-7.9804,-8.084,-8.1647,-8.2186,0.0,0.0,0.0,0.0,0.0,0.0,0.0,0.0,0.0,0.0,0.0,0.0,0.0,0.0,0.0,0.0,0.0,0.0,0.0,0.0,0.0,0.0,0.0,0.0,0.0,0.0,0.0,0.0,0.0,0.0,0.0,0.0,0.0,0.0,0.0,0.0,0.0,0.0,0.0,0.0,0.0,0.0,0.0,0.0,0.0,0.0,0.0,0.0,0.0,0.0,0.0,0.0,0.0,0.0,0.0,0.0,-5.7171,-5.9099,-6.0419,-6.2313,-6.441,-6.6339,-6.6474,-6.5493,0.0,0.0,0.0,-5.8423,-5.7881,-5.7881,-5.7881,-5.7881,-5.7881,-5.7881,-6.0047,-6.2381,-6.4343,0.0,0.0,0.0,0.0,0.0,0.0,0.0,0.0,0.0,0.0,0.0,0.0,0.0,-7.4153,-7.4153,-7.4153,-7.439,-7.4931,-7.4931,-7.5202,-7.5709,-7.5709,-7.5709,-7.5709,-7.5709,-7.5709,-7.5709,0.0,0.0,0.0,-7.5709,-7.5709,-7.5771,-7.6927,-7.7822,-7.8659,-7.9691,-8.0587,-8.123,0.0,0.0,0.0,0.0,0.0,0.0,0.0,0.0,0.0,0.0,0.0,0.0,0.0,0.0,0.0,0.0,0.0,0.0,0.0,0.0,0.0,0.0,0.0,0.0,0.0,0.0,0.0,0.0,0.0,0.0,0.0,0.0,0.0,0.0,0.0,0.0,0.0,0.0,0.0,0.0,0.0,0.0,0.0,0.0,0.0,0.0,0.0,0.0,0.0,0.0,0.0,0.0,0.0,0.0,0.0,0.0,-5.575,-5.6731,-6.1163,-6.2381,-6.3125,-6.6068,-6.5696,-6.4241,0.0,0.0,0.0,-5.8186,-5.7881,-5.7881,-5.7881,-5.7881,-5.7881,-5.7881,-5.9133,-6.1163,-6.4174,0.0,0.0,0.0,0.0,0.0,0.0,0.0,0.0,0.0,0.0,0.0,0.0,0.0,-7.5676,-7.5676,-7.5676,-7.5676,-7.5676,-7.5676,-7.5676,-7.5709,-7.5709,-7.5709,-7.5709,-7.5709,-7.5709,0.0,0.0,0.0,0.0,-7.5709,-7.5709,-7.5771,-7.6927,-7.7336,-7.7511,-7.8577,-7.8983,-7.9063,0.0,0.0,0.0,0.0,0.0,0.0,0.0,0.0,0.0,0.0,0.0,0.0,0.0,0.0,0.0,0.0,0.0,0.0,0.0,0.0,0.0,0.0,0.0,0.0,0.0,0.0,0.0,0.0,0.0,0.0,0.0,0.0,0.0,0.0,0.0,0.0,0.0,0.0,0.0,0.0,0.0,0.0,0.0,0.0,0.0,0.0,0.0,0.0,0.0,0.0,0.0,0.0,0.0,0.0,0.0,0.0,0.0,0.0,-5.866,-6.0047,-6.1298,-6.3294,-6.3429,-6.2685,-6.1163,0.0,0.0,-5.8186,-5.7881,-5.7881,-5.7881,-5.7881,-5.7881,-5.7881,-5.9133,-6.1163,-6.4174,0.0,0.0,0.0,0.0,0.0,0.0,0.0,0.0,0.0,0.0,0.0,0.0,0.0,-7.5709,-7.5709,-7.5709,-7.5709,-7.5709,-7.5709,-7.5709,-7.5709,-7.5709,-7.5709,-7.5709,-7.5709,0.0,0.0,0.0,0.0,0.0,-7.5709,-7.5709,-7.5771,-7.6927,-7.7336,-7.7424,-7.8577,-7.8983,-7.9054,0.0,0.0,0.0,0.0,0.0,0.0,0.0,0.0,0.0,0.0,0.0,0.0,0.0,0.0,0.0,0.0,0.0,0.0,0.0,0.0,0.0,0.0,0.0,0.0,0.0,0.0,0.0,0.0,0.0,0.0,0.0,0.0,0.0,0.0,0.0,0.0,0.0,0.0,0.0,0.0,0.0,0.0,0.0,0.0,0.0,0.0,0.0,0.0,0.0,0.0,0.0,0.0,0.0,0.0,0.0,0.0,0.0,0.0,0.0,-5.8355,-5.9708,-6.1535,-6.1738,0.0,0.0,0.0,0.0,-5.8084,-5.7881,-5.7881,-5.7881,-5.7881,-5.8084,-5.8626,-5.9505,-6.1163,-6.4174,0.0,0.0,0.0,0.0,0.0,0.0,0.0,0.0,0.0,0.0,0.0,0.0,0.0,-7.5709,-7.5709,-7.5709,-7.5709,-7.5709,-7.5709,-7.5709,-7.5709,-7.5709,-7.5709,-7.5709,-7.5709,0.0,0.0,0.0,0.0,0.0,-7.5709,-7.5709,-7.5771,-7.645,-7.6656,-7.6747,-7.7511,-7.7945,-7.8293,0.0,0.0,0.0,0.0,0.0,0.0,0.0,0.0,0.0,0.0,0.0,0.0,0.0,0.0,0.0,0.0,0.0,0.0,0.0,0.0,0.0,0.0,0.0,0.0,0.0,0.0,0.0,0.0,-5.0777,-5.1522,-5.2232,0.0,0.0,0.0,0.0,0.0,0.0,0.0,0.0,0.0,0.0,0.0,0.0,0.0,0.0,0.0,0.0,0.0,0.0,0.0,0.0,0.0,0.0,0.0,0.0,0.0,0.0,0.0,0.0,0.0,0.0,0.0,0.0,0.0,0.0,0.0,0.0,0.0,0.0,0.0,-5.7881,-5.7983,-5.8457,-5.9742,-6.0114,-6.1231,-6.4038,0.0,0.0,0.0,0.0,0.0,0.0,0.0,0.0,0.0,0.0,0.0,0.0,0.0,0.0,-7.5709,-7.5709,-7.5709,-7.5709,-7.5709,-7.5709,-7.5709,-7.5709,-7.5709,-7.5709,-7.5709,0.0,0.0,0.0,0.0,0.0,-7.5709,-7.5709,-7.5709,-7.5709,-7.5709,-7.5709,-7.5743,-7.6251,-7.6927,0.0,0.0,0.0,0.0,0.0,0.0,0.0,0.0,0.0,0.0,0.0,0.0,0.0,0.0,0.0,0.0,0.0,0.0,0.0,0.0,0.0,0.0,0.0,0.0,0.0,0.0,0.0,-4.9255,-4.9999,-5.0744,-5.1488,-5.2232,0.0,0.0,0.0,0.0,0.0,0.0,0.0,0.0,0.0,0.0,0.0,0.0,0.0,0.0,0.0,-5.3518,0.0,0.0,0.0,0.0,0.0,0.0,0.0,0.0,-5.3518,0.0,0.0,0.0,0.0,0.0,0.0,0.0,0.0,0.0,0.0,0.0,0.0,0.0,0.0,-5.8795,-5.9336,-5.8524,-6.0351,-6.211,-6.2821,0.0,0.0,0.0,0.0,0.0,0.0,0.0,0.0,0.0,0.0,0.0,0.0,0.0,0.0,-7.5709,-7.5709,-7.5709,-7.5709,-7.5709,-7.5709,-7.5709,-7.5709,-7.5709,-7.5709,-7.5709,0.0,0.0,0.0,0.0,-7.5709,-7.5709,-7.5709,-7.5709,-7.5709,-7.5709,-7.5777,-7.6386,-7.6758,-7.7063,0.0,0.0,0.0,0.0,0.0,0.0,0.0,0.0,0.0,0.0,0.0,0.0,0.0,0.0,0.0,0.0,0.0,0.0,0.0,0.0,0.0,0.0,0.0,0.0,0.0,0.0,0.0,0.0,0.0,-4.9824,0.0,0.0,0.0,0.0,0.0,0.0,0.0,0.0,0.0,0.0,0.0,0.0,0.0,0.0,0.0,0.0,0.0,0.0,0.0,-5.3518,-5.3518,-5.3518,0.0,0.0,0.0,0.0,-5.3518,0.0,0.0,0.0,0.0,0.0,0.0,0.0,0.0,0.0,0.0,0.0,0.0,0.0,0.0,0.0,0.0,-5.9844,-6.1332,0.0,0.0,0.0,0.0,0.0,0.0,0.0,0.0,0.0,0.0,0.0,0.0,0.0,0.0,0.0,0.0,0.0,-7.5709,-7.5709,-7.5709,-7.5709,-7.5709,-7.5709,-7.5709,-7.5709,-7.5709,-7.5709,0.0,0.0,0.0,0.0,-7.5709,-7.5709,-7.5709,-7.5743,-7.6115,-7.6251,-7.6352,-7.7096,-7.7604,-7.801,0.0,0.0,0.0,0.0,0.0,0.0,0.0,0.0,0.0,0.0,0.0,0.0,0.0,0.0,0.0,0.0,0.0,0.0,0.0,0.0,0.0,0.0,0.0,0.0,0.0,0.0,0.0,0.0,0.0,0.0,0.0,0.0,-5.1552,0.0,0.0,0.0,0.0,0.0,0.0,0.0,0.0,0.0,0.0,0.0,0.0,0.0,0.0,0.0,0.0,-5.3518,-5.3518,-5.3518,-5.3518,0.0,0.0,0.0,0.0,0.0,0.0,0.0,0.0,0.0,0.0,0.0,0.0,0.0,0.0,0.0,0.0,0.0,0.0,0.0,0.0,0.0,0.0,0.0,0.0,0.0,0.0,0.0,0.0,0.0,0.0,0.0,0.0,0.0,0.0,0.0,0.0,0.0,0.0,0.0,-7.5709,-7.5709,-7.5709,-7.5709,-7.5709,-7.5709,-7.5709,-7.5709,-7.5709,-7.5709,-7.5709,0.0,0.0,0.0,-7.5709,-7.5709,-7.5777,-7.5946,-7.6623,-7.6961,-7.7164,-7.7874,-7.8551,-7.9126,0.0,0.0,0.0,0.0,0.0,0.0,0.0,0.0,0.0,0.0,0.0,0.0,0.0,0.0,0.0,0.0,0.0,0.0,0.0,0.0,0.0,0.0,0.0,0.0,0.0,0.0,0.0,0.0,0.0,0.0,-4.9816,-4.9879,-5.0281,0.0,0.0,0.0,0.0,0.0,0.0,0.0,0.0,0.0,0.0,0.0,0.0,0.0,0.0,0.0,0.0,-5.3518,-5.3518,-5.3518,-5.3518,0.0,0.0,0.0,0.0,0.0,-5.3518,-5.4126,-5.5209,0.0,0.0,0.0,0.0,0.0,0.0,0.0,0.0,0.0,0.0,0.0,0.0,0.0,0.0,0.0,0.0,0.0,0.0,0.0,0.0,0.0,0.0,0.0,0.0,0.0,0.0,0.0,0.0,0.0,0.0,0.0,0.0,-7.5709,-7.5709,-7.5709,-7.5709,-7.5709,-7.5709,-7.5709,-7.5709,-7.5709,-7.5709,0.0,0.0,-7.5709,-7.5709,-7.5709,-7.6082,-7.6724,-7.686,-7.7266,-7.7908,-7.8653,-7.9025,-7.9194,0.0,0.0,0.0,0.0,0.0,0.0,0.0,0.0,0.0,0.0,0.0,0.0,0.0,0.0,0.0,0.0,0.0,0.0,0.0,0.0,0.0,0.0,0.0,0.0,0.0,0.0,0.0,0.0,0.0,-4.8027,-4.9082,-5.0326,-5.0685,-5.0397,0.0,0.0,0.0,0.0,0.0,0.0,0.0,0.0,0.0,0.0,0.0,0.0,0.0,0.0,0.0,0.0,-5.3518,-5.3518,-5.3518,0.0,0.0,0.0,0.0,0.0,-5.3518,-5.4025,-5.531,0.0,0.0,0.0,0.0,0.0,0.0,0.0,0.0,0.0,0.0,0.0,0.0,0.0,0.0,0.0,0.0,0.0,0.0,0.0,0.0,0.0,0.0,0.0,0.0,0.0,0.0,0.0,0.0,0.0,0.0,0.0,0.0,-7.5709,-7.5709,-7.5709,-7.5709,-7.5709,-7.5709,-7.5709,-7.5709,-7.5709,-7.5709,-7.5709,0.0,-7.5709,-7.5743,-7.6183,-7.6555,-7.6995,-7.7773,-7.8314,-7.8686,-7.9431,-7.9701,-7.9735,0.0,0.0,0.0,0.0,0.0,0.0,0.0,0.0,0.0,0.0,0.0,0.0,0.0,0.0,0.0,0.0,0.0,0.0,0.0,0.0,0.0,0.0,0.0,0.0,0.0,0.0,-4.6103,-4.5889,-4.6314,-4.7194,-4.8359,-5.0546,-5.0855,0.0,0.0,0.0,0.0,0.0,0.0,0.0,0.0,0.0,0.0,0.0,0.0,0.0,0.0,0.0,0.0,0.0,0.0,0.0,0.0,0.0,0.0,-5.3518,-5.3754,-5.3957,-5.3585,-5.416,-5.5615,0.0,0.0,-5.9404,-6.0825,0.0,0.0,0.0,0.0,0.0,0.0,0.0,0.0,0.0,0.0,0.0,0.0,0.0,0.0,0.0,0.0,0.0,0.0,0.0,0.0,0.0,0.0,0.0,0.0,0.0,0.0,0.0,0.0,-7.5709,-7.5709,-7.5709,-7.5709,-7.5709,-7.5709,-7.5709,-7.5709,-7.5709,-7.5709,-7.5709,-7.5709,-7.5811,-7.6014,-7.6657,-7.7096,-7.7536,-7.8686,-7.9228,-7.9431,-8.0006,-8.0209,-8.0209,0.0,0.0,0.0,0.0,0.0,0.0,0.0,0.0,0.0,0.0,0.0,0.0,0.0,0.0,0.0,0.0,0.0,0.0,0.0,0.0,0.0,0.0,0.0,0.0,0.0,-4.5778,-4.5778,-4.4887,-4.6625,-4.7753,-4.8137,-4.9725,-4.9487,-4.7538,0.0,0.0,0.0,0.0,0.0,0.0,0.0,0.0,0.0,0.0,0.0,0.0,0.0,0.0,0.0,0.0,0.0,0.0,0.0,0.0,-5.3518,-5.3518,-5.4465,-5.5243,-5.389,-5.4532,-5.6021,-5.7645,0.0,0.0,-6.3463,0.0,0.0,0.0,0.0,0.0,0.0,0.0,0.0,0.0,0.0,0.0,0.0,0.0,0.0,0.0,0.0,0.0,0.0,0.0,0.0,0.0,0.0,0.0,0.0,0.0,0.0,0.0,0.0,-7.5709,-7.5709,-7.5709,-7.5709,-7.5709,-7.5709,-7.5709,-7.5709,-7.5709,-7.5709,-7.5709,-7.5709,-7.6115,-7.6826,-7.6893,-7.7705,-7.8957,-7.9058,-7.9532,-8.0141,-8.0175,-8.0209,-8.0209,0.0,0.0,0.0,0.0,0.0,0.0,0.0,0.0,0.0,0.0,0.0,0.0,0.0,0.0,0.0,0.0,0.0,0.0,0.0,0.0,0.0,0.0,0.0,-4.3849,-4.3849,-4.4856,-4.5416,-4.5706,-4.7284,-4.7965,-4.7887,-4.8937,0.0,0.0,0.0,0.0,0.0,0.0,0.0,0.0,0.0,0.0,0.0,0.0,0.0,0.0,0.0,0.0,0.0,0.0,-5.2487,-5.2487,-5.2487,-5.2939,-5.3518,-5.3518,-5.389,-5.4228,-5.3653,-5.4012,-5.5288,-5.8477,-5.8873,0.0,0.0,0.0,0.0,0.0,0.0,0.0,0.0,0.0,0.0,0.0,0.0,0.0,0.0,0.0,0.0,0.0,0.0,0.0,0.0,0.0,0.0,0.0,0.0,0.0,0.0,0.0,0.0,0.0,0.0,-7.5709,-7.5709,-7.5709,-7.5709,-7.5709,-7.5709,-7.5709,-7.5709,-7.5709,-7.5709,-7.5743,-7.6217,-7.6623,-7.6961,-7.7908,-7.8619,-7.916,-7.96,-7.9938,-8.0209,-8.0209,-8.0209,-8.0209,0.0,0.0,0.0,0.0,0.0,0.0,0.0,0.0,0.0,0.0,0.0,0.0,0.0,0.0,0.0,0.0,0.0,0.0,0.0,0.0,0.0,0.0,0.0,-4.3329,-4.3329,-4.4217,-4.497,-4.5583,-4.734,-4.7949,-4.7738,0.0,0.0,0.0,0.0,0.0,0.0,0.0,0.0,0.0,0.0,0.0,0.0,0.0,0.0,0.0,0.0,0.0,0.0,0.0,-5.1704,-5.1525,-5.217,-5.2697,-5.3041,-5.3416,-5.3584,-5.3612,-5.3142,-5.3559,-5.4763,-5.7354,-5.8488,0.0,0.0,0.0,0.0,0.0,0.0,0.0,0.0,0.0,0.0,0.0,0.0,0.0,0.0,0.0,0.0,0.0,0.0,0.0,0.0,0.0,0.0,0.0,0.0,0.0,0.0,0.0,0.0,0.0,0.0,0.0,-7.5709,-7.5709,-7.5709,-7.5709,-7.5709,-7.5709,-7.5709,-7.5709,-7.5845,-7.6115,-7.6657,-7.7164,-7.7671,-7.8686,-7.9261,-7.9498,-8.0006,-8.0209,-8.0209,-8.0209,-8.0209,-8.0209,0.0,0.0,0.0,0.0,0.0,0.0,0.0,0.0,0.0,0.0,0.0,0.0,0.0,0.0,0.0,0.0,0.0,0.0,0.0,0.0,0.0,0.0,0.0,-4.3329,-4.3329,-4.3988,-4.4347,-4.4347,-4.6609,-4.7738,-4.7738,-4.8419,0.0,0.0,0.0,0.0,0.0,0.0,0.0,0.0,0.0,0.0,0.0,0.0,0.0,0.0,0.0,0.0,0.0,0.0,-5.1229,-5.0703,-5.28,-5.2731,-5.2098,-5.3212,-5.3766,-5.3766,-5.2349,-5.3266,-5.4429,-5.3706,0.0,0.0,0.0,0.0,0.0,0.0,0.0,0.0,0.0,0.0,0.0,0.0,0.0,0.0,0.0,0.0,0.0,0.0,0.0,0.0,0.0,0.0,0.0,0.0,0.0,0.0,0.0,0.0,0.0,0.0,0.0,0.0,-7.5709,-7.5709,-7.5709,-7.5709,-7.5709,-7.5709,-7.5709,-7.5709,-7.6149,-7.6893,-7.6927,-7.7739,-7.9126,-7.9126,-7.9532,-8.0209,-8.0209,-8.0209,-8.0209,-8.0209,-8.0209,-8.0209,0.0,0.0,0.0,0.0,0.0,0.0,0.0,0.0,0.0,0.0,0.0,0.0,0.0,0.0,0.0,0.0,0.0,0.0,0.0,0.0,0.0,0.0,0.0,0.0,0.0,0.0,-4.5723,-4.5723,-4.7068,-4.7579,0.0,0.0,0.0,-4.7309,0.0,0.0,0.0,0.0,0.0,0.0,0.0,0.0,0.0,0.0,0.0,0.0,0.0,0.0,0.0,0.0,0.0,0.0,-5.0855,-5.1631,-5.2119,-5.3394,-5.3915,-5.3891,-5.3664,0.0,0.0,0.0,0.0,0.0,0.0,0.0,0.0,0.0,0.0,0.0,0.0,0.0,0.0,0.0,0.0,0.0,0.0,0.0,0.0,0.0,0.0,0.0,0.0,0.0,0.0,0.0,0.0,0.0,0.0,0.0,0.0,0.0,0.0,0.0,-7.5709,-7.5709,-7.5709,-7.5709,-7.5709,-7.5709,-7.5709,-7.6284,-7.6657,-7.6961,-7.801,-7.872,-7.916,-7.9667,-8.0006,-8.0209,-8.0209,-8.0209,-8.0209,-8.0209,-8.0209,-8.0209,0.0,0.0,0.0,0.0,0.0,0.0,0.0,0.0,0.0,0.0,-4.3329,-4.3329,0.0,0.0,0.0,0.0,0.0,0.0,0.0,0.0,0.0,0.0,0.0,0.0,0.0,-4.5783,-4.6441,0.0,0.0,0.0,0.0,0.0,0.0,-4.7309,0.0,-4.7309,0.0,0.0,-4.7309,-4.7309,0.0,0.0,0.0,0.0,0.0,0.0,0.0,0.0,0.0,0.0,0.0,0.0,-5.0397,-5.1544,-5.2291,-5.2885,-5.3618,-5.4017,-5.3164,0.0,0.0,0.0,0.0,0.0,0.0,0.0,0.0,0.0,0.0,0.0,0.0,0.0,0.0,0.0,0.0,0.0,0.0,0.0,0.0,0.0,0.0,0.0,0.0,0.0,0.0,0.0,0.0,0.0,0.0,0.0,0.0,0.0,0.0,0.0,-7.5709,-7.5709,-7.5709,-7.5709,-7.5709,-7.5879,-7.6183,-7.669,-7.7063,-7.7401,-7.8889,-7.9532,-7.9566,-8.0006,-8.0209,-8.0209,-8.0209,-8.0209,-8.0209,-8.0209,-8.0209,-8.0209,0.0,0.0,0.0,0.0,0.0,0.0,0.0,0.0,0.0,0.0,-4.3329,-4.3329,0.0,0.0,0.0,0.0,0.0,0.0,0.0,0.0,0.0,0.0,0.0,0.0,0.0,0.0,0.0,0.0,0.0,0.0,0.0,0.0,-4.7309,-4.7309,0.0,-4.7309,0.0,0.0,-4.7309,0.0,0.0,0.0,0.0,0.0,0.0,0.0,0.0,0.0,0.0,0.0,0.0,0.0,-5.0747,-5.1956,-5.2298,-5.1932,-5.2935,-5.3756,0.0,0.0,0.0,0.0,0.0,0.0,0.0,0.0,0.0,0.0,0.0,0.0,0.0,0.0,0.0,0.0,0.0,0.0,0.0,0.0,0.0,0.0,0.0,0.0,0.0,0.0,0.0,0.0,0.0,0.0,0.0,0.0,0.0,0.0,0.0,0.0,-7.5709,-7.5709,-7.5709,0.0,-7.5709,-7.6115,-7.6893,-7.6961,-7.7435,-7.828,-7.96,-8.0209,-8.0209,-8.0209,-8.0209,-8.0209,-8.0209,-8.0209,-8.0209,-8.0209,-8.0209,-8.0209,0.0,0.0,0.0,0.0,0.0,0.0,0.0,0.0,0.0,0.0,0.0,0.0,0.0,0.0,0.0,0.0,0.0,0.0,0.0,0.0,0.0,0.0,0.0,0.0,0.0,0.0,0.0,0.0,0.0,0.0,0.0,0.0,0.0,-4.7309,0.0,-4.7309,0.0,0.0,0.0,0.0,0.0,-4.7309,-4.7309,0.0,0.0,0.0,0.0,0.0,0.0,0.0,0.0,0.0,-4.9296,-5.0121,-5.0927,-5.1001,-5.133,0.0,0.0,0.0,0.0,0.0,0.0,0.0,0.0,0.0,0.0,0.0,0.0,0.0,0.0,0.0,0.0,0.0,0.0,0.0,0.0,0.0,0.0,0.0,0.0,0.0,0.0,0.0,0.0,0.0,0.0,0.0,0.0,0.0,0.0,0.0,0.0,-7.5709,-7.5709,-7.5709,-7.5709,0.0,-7.5709,-7.6115,-7.6927,-7.7502,-7.8483,-7.9735,-8.0073,-8.0209,-8.0209,-8.0209,-8.0209,-8.0209,-8.0209,-8.0209,-8.0209,-8.0209,-8.0209,-8.0209,0.0,0.0,0.0,0.0,0.0,0.0,0.0,0.0,0.0,0.0,0.0,0.0,0.0,0.0,0.0,0.0,0.0,0.0,0.0,0.0,0.0,0.0,0.0,0.0,0.0,0.0,0.0,0.0,0.0,0.0,0.0,0.0,0.0,-4.7309,0.0,-4.7309,0.0,0.0,0.0,0.0,0.0,-4.7309,-4.7309,-4.7309,0.0,0.0,0.0,0.0,0.0,0.0,0.0,0.0,0.0,0.0,-5.1263,-5.0195,-5.1131,-5.2559,0.0,0.0,0.0,0.0,0.0,0.0,0.0,0.0,0.0,0.0,0.0,0.0,0.0,0.0,0.0,0.0,0.0,0.0,0.0,0.0,0.0,0.0,0.0,0.0,0.0,0.0,0.0,0.0,0.0,0.0,0.0,0.0,0.0,0.0,-7.5709,-7.5709,-7.5709,-7.5709,-7.5709,-7.5709,-7.5709,-7.6318,-7.7435,-7.8179,-7.9126,-8.0209,-8.0209,-8.0209,-8.0209,-8.0209,-8.0209,-8.0209,-8.0209,-8.0209,-8.0209,-8.0209,-8.0209,-8.0209,0.0,0.0,0.0,0.0,0.0,0.0,0.0,0.0,0.0,0.0,0.0,0.0,0.0,0.0,0.0,0.0,0.0,0.0,0.0,0.0,0.0,0.0,0.0,0.0,0.0,-4.704,-4.7309,0.0,0.0,0.0,0.0,0.0,0.0,-4.7309,0.0,0.0,0.0,0.0,0.0,0.0,0.0,-4.7309,-4.7309,-4.7309,-4.7309,-4.7309,-4.7309,0.0,0.0,0.0,0.0,0.0,0.0,0.0,-5.1742,-4.9478,-5.1057,-5.3165,0.0,0.0,0.0,0.0,0.0,0.0,0.0,0.0,0.0,0.0,0.0,0.0,0.0,0.0,0.0,0.0,0.0,0.0,0.0,0.0,0.0,0.0,0.0,0.0,0.0,0.0,0.0,0.0,0.0,0.0,0.0,0.0,-7.5709,-7.5709,-7.5709,-7.5709,-7.5709,-7.5709,-7.5709,-7.5709,-7.598,-7.6826,-7.8213,-7.8957,-7.9634,-8.0209,-8.0209,-8.0209,-8.0209,-8.0209,-8.0209,-8.0209,-8.0209,-8.0209,-8.0209,-8.0209,-8.0209,-8.0209,0.0,0.0,0.0,0.0,0.0,0.0,0.0,0.0,0.0,0.0,-4.3329,0.0,0.0,0.0,0.0,0.0,0.0,0.0,0.0,0.0,0.0,0.0,0.0,0.0,0.0,0.0,-4.7309,0.0,0.0,0.0,0.0,0.0,0.0,-4.7309,0.0,0.0,0.0,0.0,0.0,0.0,0.0,-4.7309,-4.7309,-4.7309,-4.7309,-4.7309,0.0,0.0,0.0,0.0,0.0,0.0,0.0,0.0,0.0,-4.9197,0.0,0.0,0.0,0.0,0.0,0.0,0.0,0.0,0.0,0.0,0.0,0.0,0.0,0.0,0.0,0.0,0.0,0.0,0.0,0.0,0.0,0.0,0.0,0.0,0.0,0.0,0.0,0.0,0.0,0.0,0.0,0.0,0.0,-7.5709,-7.5709,-7.5709,-7.5709,-7.5709,-7.5709,-7.5709,-7.5709,-7.5709,-7.7029,-7.8145,-7.8991,-7.9735,-8.0107,-8.0209,-8.0209,-8.0209,-8.0209,-8.0209,-8.0209,-8.0209,-8.0209,-8.0209,-8.0209,-8.0209,-8.0209,-8.0209,0.0,0.0,0.0,0.0,0.0,0.0,0.0,0.0,0.0,0.0,0.0,-4.3329,0.0,0.0,0.0,0.0,0.0,0.0,0.0,0.0,0.0,0.0,0.0,0.0,0.0,0.0,0.0,0.0,0.0,0.0,0.0,-4.7309,-4.7309,0.0,0.0,0.0,0.0,0.0,0.0,0.0,0.0,-4.7309,-4.7309,-4.7309,-4.7309,-4.7309,-4.7309,0.0,0.0,0.0,0.0,0.0,0.0,0.0,0.0,0.0,0.0,0.0,0.0,0.0,0.0,0.0,0.0,0.0,0.0,0.0,0.0,0.0,0.0,0.0,0.0,0.0,0.0,0.0,0.0,0.0,0.0,0.0,0.0,0.0,0.0,0.0,0.0,0.0,0.0,0.0,0.0,0.0,-7.5709,-7.5709,-7.5709,-7.5709,-7.5709,-7.5709,-7.5709,-7.5709,-7.5912,-7.6386,-7.7468,-7.8382,-7.9126,-7.987,-8.0209,-8.0209,-8.0209,-8.0209,-8.0209,-8.0209,-8.0209,-8.0209,-8.0209,-8.0209,-8.0209,-8.0209,-8.0209,-8.0209,0.0,0.0,0.0,0.0,0.0,0.0,0.0,0.0,0.0,0.0,0.0,0.0,0.0,0.0,0.0,0.0,0.0,0.0,0.0,0.0,0.0,0.0,0.0,0.0,0.0,0.0,0.0,0.0,0.0,0.0,-4.7309,-4.7309,-4.7309,0.0,-4.7309,0.0,0.0,0.0,0.0,0.0,0.0,0.0,-4.7309,-4.7309,0.0,-4.7309,-4.7309,0.0,0.0,0.0,0.0,0.0,0.0,0.0,0.0,0.0,0.0,0.0,0.0,0.0,0.0,0.0,0.0,0.0,0.0,0.0,0.0,0.0,0.0,0.0,0.0,0.0,0.0,0.0,0.0,0.0,0.0,0.0,0.0,0.0,0.0,0.0,0.0,0.0,0.0,0.0,0.0,0.0,-7.5709,-7.5709,-7.5709,-7.5709,-7.5709,-7.5709,-7.5709,-7.5709,-7.6183,-7.7198,-7.7739,-7.8483,-7.9397,-7.9938,-8.0209,-8.0209,-8.0209,-8.0209,-8.0209,-8.0209,-8.0209,-8.0209,-8.0209,-8.0209,-8.0209,-8.0209,-8.0209,-8.0209,0.0,0.0,0.0,0.0,0.0,0.0,0.0,0.0,0.0,0.0,0.0,0.0,-4.3329,-4.3898,-4.4257,-4.4257,0.0,0.0,0.0,0.0,0.0,0.0,0.0,0.0,0.0,0.0,0.0,0.0,0.0,0.0,-4.7309,-4.7309,-4.7309,-4.7309,-4.7309,-4.7309,-4.7309,0.0,0.0,0.0,0.0,0.0,0.0,0.0,0.0,0.0,0.0,0.0,0.0,0.0,0.0,0.0,0.0,0.0,0.0,0.0,0.0,0.0,0.0,0.0,0.0,0.0,0.0,0.0,0.0,0.0,0.0,0.0,0.0,0.0,0.0,0.0,0.0,0.0,0.0,0.0,0.0,0.0,0.0,0.0,0.0,0.0,0.0,0.0,0.0,0.0,0.0,0.0,-7.5709,-7.5709,-7.5709,-7.5709,-7.5709,-7.5709,-7.5709,-7.5709,-7.6454,-7.7942,-7.7976,-7.8754,-8.0141,-8.0175,-8.0209,-8.0209,-8.0209,-8.0209,-8.0209,-8.0209,-8.0209,-8.0209,-8.0209,-8.0209,-8.0209,-8.0209,-8.0209,-8.0209,0.0,0.0,0.0,0.0,0.0,0.0,0.0,0.0,0.0,0.0,0.0,0.0,0.0,-4.4796,-4.4945,-4.4945,-4.5574,0.0,0.0,0.0,0.0,0.0,0.0,0.0,0.0,0.0,0.0,0.0,0.0,-4.7309,-4.7309,-4.7309,-4.7309,-4.7309,-4.7309,-4.7309,-4.7309,-4.7309,0.0,0.0,0.0,0.0,0.0,0.0,0.0,0.0,0.0,0.0,0.0,0.0,0.0,0.0,0.0,0.0,-4.9135,-4.8157,-4.7624,-4.7399,0.0,0.0,0.0,0.0,0.0,0.0,0.0,0.0,0.0,0.0,0.0,0.0,0.0,0.0,0.0,0.0,0.0,0.0,0.0,0.0,0.0,0.0,0.0,0.0,0.0,0.0,0.0,0.0,0.0,0.0,-7.5709,-7.5709,-7.5709,-7.5709,-7.5709,-7.5709,-7.5709,-7.5709,-7.6454,-7.7976,-7.7976,-7.8754,-8.0209,-8.0209,-8.0209,-8.0209,-8.0209,-8.0209,-8.0209,-8.0209,-8.0209,-8.0209,-8.0209,-8.0209,-8.0209,-8.0209,-8.0209,-8.0209,0.0,0.0,0.0,0.0,0.0,0.0,0.0,0.0,0.0,-4.4556,0.0,0.0,0.0,0.0,-4.5723,-4.5933,-4.6381,-4.683,-4.7279,-4.7309,0.0,0.0,0.0,0.0,0.0,0.0,0.0,0.0,0.0,0.0,0.0,-4.7309,-4.7309,-4.7309,-4.7309,-4.7309,0.0,0.0,0.0,-4.7369,0.0,0.0,-4.8656,0.0,0.0,0.0,0.0,0.0,0.0,0.0,0.0,0.0,0.0,0.0,-4.821,-4.7904,-4.7538,-4.7309,-4.7309,0.0,0.0,0.0,0.0,0.0,0.0,0.0,0.0,0.0,0.0,0.0,0.0,0.0,0.0,0.0,0.0,0.0,0.0,0.0,0.0,0.0,0.0,0.0,0.0,0.0,0.0,0.0,0.0,0.0,-7.5709,-7.5709,-7.5709,-7.5709,-7.5709,-7.5709,-7.5709,-7.5709,-7.6454,-7.7976,-7.7976,-7.8754,-8.0209,-8.0209,-8.0209,-8.0209,-8.0209,-8.0209,-8.0209,-8.0209,-8.0209,-8.0209,-8.0209,-8.0209,-8.0209,-8.0209,-8.0209,-8.0209,0.0,0.0,0.0,0.0,0.0,0.0,0.0,0.0,-4.4586,-4.5244,0.0,0.0,0.0,0.0,0.0,-4.7249,-4.7309,-4.7309,-4.7309,-4.7309,-4.7309,-4.7309,0.0,0.0,0.0,0.0,0.0,0.0,0.0,0.0,0.0,0.0,-4.7309,-4.7309,-4.7309,-4.7309,-4.7309,0.0,-4.7309,-4.7309,0.0,-4.7429,-4.7549,0.0,0.0,0.0,-5.081,-5.1289,0.0,0.0,0.0,0.0,0.0,0.0,-4.7452,-4.8429,-4.8072,-4.7309,0.0,0.0,0.0,0.0,0.0,0.0,0.0,0.0,0.0,0.0,0.0,0.0,0.0,0.0,0.0,0.0,0.0,0.0,0.0,0.0,0.0,0.0,0.0,0.0,0.0,0.0,0.0,0.0,0.0,-7.5709,-7.5709,-7.5709,-7.5709,-7.5709,-7.5709,-7.5709,-7.5709,-7.5709,-7.6454,-7.7976,-7.7976,-7.8754,-8.0209,-8.0209,-8.0209,-8.0209,-8.0209,-8.0209,-8.0209,-8.0209,-8.0209,-8.0209,-8.0209,-8.0209,-8.0209,-8.0209,-8.0209,-8.0209,0.0,0.0,0.0,0.0,0.0,0.0,-4.4915,-4.5035,-4.5274,0.0,0.0,0.0,-4.6711,-4.692,-4.71,-4.7279,-4.7309,-4.7309,-4.7309,-4.7309,-4.7309,-4.7309,-4.7309,-4.7309,-4.7309,0.0,0.0,0.0,0.0,0.0,0.0,0.0,0.0,0.0,-4.7309,-4.7309,-4.7309,-4.7309,0.0,0.0,-4.9374,-5.0122,0.0,0.0,0.0,0.0,0.0,-5.2636,0.0,0.0,-5.2738,-5.0668,0.0,0.0,-4.7396,-4.7593,-4.7538,-4.7309,-4.7309,0.0,0.0,0.0,0.0,0.0,0.0,0.0,0.0,0.0,0.0,0.0,0.0,0.0,0.0,0.0,0.0,0.0,0.0,0.0,0.0,0.0,0.0,0.0,0.0,0.0,0.0,0.0,-7.4858,-7.5709,-7.5709,-7.5709,-7.5709,-7.5709,-7.5709,-7.5709,-7.5709,-7.5709,-7.6454,-7.7976,-7.7976,-7.8754,-8.0209,-8.0209,-8.0209,-8.0209,-8.0209,-8.0209,-8.0209,-8.0209,-8.0209,-8.0209,-8.0209,-8.0209,-8.0209,-8.0209,-8.0209,-8.0209,0.0,0.0,0.0,0.0,0.0,0.0,-4.5633,-4.5723,-4.5963,0.0,0.0,0.0,-4.7279,-4.7309,-4.7309,-4.7309,-4.7309,-4.7309,-4.7309,-4.7309,-4.7309,-4.7309,-4.7309,-4.7309,-4.7309,-4.7309,-4.7309,0.0,0.0,-4.7309,-4.7309,-4.7309,-4.7309,0.0,0.0,0.0,0.0,0.0,0.0,0.0,-4.9194,0.0,0.0,-5.1858,-5.2366,0.0,0.0,0.0,-5.4132,-5.494,-5.3773,0.0,0.0,0.0,-4.8173,-4.8477,-4.8324,-4.7904,-4.7904,-4.7904,-4.7849,0.0,0.0,0.0,0.0,0.0,0.0,0.0,0.0,0.0,0.0,0.0,0.0,0.0,0.0,0.0,0.0,0.0,0.0,0.0,0.0,0.0,0.0,0.0,0.0,0.0,-7.3675,-7.5064,-7.5709,-7.5709,-7.5709,-7.5709,-7.5709,-7.5709,-7.5709,-7.5709,-7.6454,-7.7976,-7.7976,-7.8754,-8.0209,-8.0209,-8.0209,-8.0209,-8.0209,-8.0209,-8.0209,-8.0209,-8.0209,-8.0209,-8.0209,-8.0209,-8.0209,-8.0209,-8.0209,-8.0209,0.0,0.0,0.0,0.0,0.0,0.0,-4.6322,-4.6441,-4.6651,0.0,-4.7309,-4.7309,-4.7309,-4.7309,-4.7309,-4.7309,-4.7309,-4.7309,-4.7309,-4.7309,-4.7309,-4.7309,-4.7309,-4.7309,-4.7309,-4.7309,-4.7309,-4.7309,-4.7309,-4.7309,-4.7309,-4.7309,-4.7309,-4.7309,0.0,0.0,0.0,0.0,0.0,-4.9164,-4.8147,-4.8536,0.0,0.0,-5.1648,0.0,-5.4341,-5.5179,-5.5149,-5.485,-5.4042,0.0,0.0,0.0,-4.946,-5.0084,-4.9501,-4.8594,-4.8594,-4.8594,-4.846,0.0,0.0,0.0,-4.9464,-5.1289,-5.3384,0.0,0.0,0.0,0.0,0.0,0.0,0.0,0.0,0.0,0.0,0.0,0.0,0.0,0.0,0.0,0.0,0.0,-6.795,-6.9925,-7.2248,-7.424,-7.558,-7.5709,-7.5709,-7.5709,-7.5709,-7.5709,-7.5709,-7.5709,-7.642,-7.7874,-7.7942,-7.872,-8.0073,-8.0175,-8.0209,-8.0209,-8.0209,-8.0209,-8.0209,-8.0209,-8.0209,-8.0209,-8.0209,-8.0209,-8.0209,-8.0209,-8.0209,-8.0209,0.0,0.0,0.0,0.0,0.0,0.0,0.0,-4.71,-4.716,-4.7279,-4.7309,-4.7309,-4.7309,-4.7309,-4.7309,-4.7309,-4.7309,-4.7309,-4.7309,-4.7309,-4.7309,-4.7309,-4.7309,-4.7309,-4.7309,-4.7309,-4.7309,-4.7309,-4.7309,-4.7309,-4.7309,-4.7309,-4.7309,-4.7309,0.0,0.0,0.0,0.0,0.0,-4.9344,-5.0122,0.0,-5.2546,-5.3892,-5.4431,-5.4491,-5.4999,-5.5179,-5.485,0.0,-5.2516,-5.2762,0.0,0.0,0.0,-4.9428,-4.8611,-4.7624,-4.7624,0.0,0.0,0.0,0.0,0.0,-5.0601,-5.1229,0.0,0.0,0.0,0.0,0.0,0.0,0.0,0.0,0.0,0.0,0.0,0.0,0.0,0.0,0.0,0.0,0.0,0.0,-6.6789,-6.7697,-7.1399,-7.4206,-7.558,-7.5709,-7.5709,-7.5709,-7.5709,-7.5709,-7.5709,-7.5709,-7.6183,-7.713,-7.7705,-7.845,-7.9329,-7.9938,-8.0209,-8.0209,-8.0209,-8.0209,-8.0209,-8.0209,-8.0209,-8.0209,-8.0209,-8.0209,-8.0209,-8.0209,-8.0209,-8.0209,0.0,0.0,0.0,0.0,0.0,0.0,0.0,-4.7309,-4.7309,-4.7309,-4.7309,-4.7309,-4.7309,-4.7309,-4.7309,-4.7309,-4.7309,-4.7309,-4.7309,-4.7309,-4.7309,-4.7309,-4.7309,-4.7309,-4.7309,-4.7309,-4.7309,-4.7309,-4.7309,-4.7309,-4.7309,-4.7309,-4.7309,-4.7309,-4.7309,0.0,0.0,0.0,-4.9045,-5.0242,-5.0242,0.0,-5.2336,-5.3683,-5.4192,-5.4281,-5.494,-5.5179,-5.488,-5.2875,-5.2636,0.0,0.0,-4.9793,-4.9434,0.0,-4.9108,-4.8072,0.0,0.0,0.0,-4.7872,0.0,0.0,0.0,-5.099,0.0,0.0,0.0,0.0,0.0,0.0,0.0,0.0,0.0,0.0,0.0,0.0,0.0,0.0,0.0,0.0,0.0,0.0,-6.5779,-6.759,-6.9698,-7.1648,-7.3431,-7.4306,-7.4638,-7.4638,-7.5354,-7.5709,-7.5709,-7.5709,-7.6115,-7.6893,-7.7638,-7.8382,-7.9126,-7.987,-8.0209,-8.0209,-8.0209,-8.0209,-8.0209,-8.0209,-8.0209,-8.0209,-8.0209,-8.0209,-8.0209,-8.0209,-8.0209,-8.0209,-4.6411,-4.6501,0.0,0.0,0.0,0.0,0.0,-4.7309,-4.7309,-4.7309,-4.7309,-4.7399,-4.7668,-4.7459,-4.7399,-4.7668,-4.7459,-4.7309,-4.7309,-4.7309,-4.7309,-4.7309,-4.7309,-4.7309,-4.7309,-4.7309,-4.7309,-4.7309,-4.7309,-4.7309,-4.7309,-4.7309,-4.7309,-4.7309,-4.7309,0.0,0.0,0.0,0.0,-5.1139,0.0,-5.0661,-5.1738,-5.3054,-5.3414,-5.3384,-5.485,-5.5388,-5.5209,-5.3982,0.0,-5.3653,-5.2097,-5.087,0.0,0.0,0.0,0.0,0.0,0.0,0.0,0.0,0.0,-4.9583,0.0,0.0,0.0,0.0,0.0,0.0,0.0,0.0,0.0,0.0,0.0,0.0,0.0,0.0,0.0,0.0,0.0,0.0,0.0,0.0,-6.5127,-6.7786,-6.8117,-6.9139,-7.1246,-7.2494,-7.3121,-7.3121,-7.4306,-7.503,-7.5258,-7.503,-7.5497,-7.669,-7.734,-7.8082,-7.8923,-7.9803,-8.0209,-8.0209,-8.0209,-8.0209,-8.0209,-8.0209,-8.0209,-8.0209,-8.0209,-8.0209,-8.0209,-8.0209,-8.0209,-8.0209,-4.7189,-4.7189,-4.7219,0.0,0.0,0.0,0.0,-4.7309,-4.7309,-4.7309,-4.7309,-4.7758,-4.8925,-4.7997,-4.7788,-4.8955,-4.7967,0.0,-4.7309,0.0,-4.7309,-4.7309,-4.7309,-4.7309,-4.7309,-4.7309,-4.7309,-4.7309,-4.7309,-4.7309,-4.7309,-4.7309,-4.7309,-4.7309,-4.7309,0.0,0.0,0.0,-5.0032,0.0,-5.2336,-5.2815,0.0,-5.4461,-5.4221,-5.3443,-5.5359,-5.6077,-5.5957,0.0,-5.5718,-5.6226,0.0,-5.2845,-5.2516,0.0,0.0,0.0,0.0,0.0,0.0,0.0,-4.9643,0.0,0.0,0.0,0.0,0.0,0.0,0.0,0.0,0.0,0.0,0.0,0.0,0.0,0.0,0.0,0.0,0.0,0.0,0.0,0.0,0.0,0.0,-6.7187,-6.7838,-6.9139,-7.1246,-7.1497,-7.1605,-7.1605,-7.1821,-7.2494,-7.3871,-7.2567,-7.3258,-7.5845,-7.5938,-7.6773,-7.8145,-7.9566,-8.0209,-8.0209,-8.0209,-8.0209,-8.0209,-8.0209,-8.0209,-8.0209,-8.0209,-8.0209,-8.0209,-8.0209,-8.0209,-8.0209,-4.7309,-4.7309,-4.7309,-4.7309,0.0,0.0,-4.7309,-4.7309,-4.7309,-4.7309,-4.7309,-4.7818,-4.9134,0.0,0.0,0.0,0.0,-4.8775,0.0,0.0,-4.8775,-4.9553,-4.8117,-4.7668,-4.8416,-4.7698,-4.7309,-4.7309,-4.7309,-4.7309,-4.7309,-4.7309,-4.7309,-4.7339,-4.8087,0.0,-4.9374,0.0,0.0,0.0,0.0,0.0,0.0,-5.3503,-5.3922,-5.4042,-5.5987,-5.6705,-5.6675,0.0,-5.6166,0.0,0.0,0.0,0.0,0.0,0.0,0.0,0.0,0.0,0.0,0.0,0.0,0.0,-5.09,0.0,-5.1972,0.0,0.0,0.0,0.0,0.0,0.0,0.0,0.0,0.0,0.0,0.0,0.0,0.0,0.0,0.0,0.0,0.0,0.0,0.0,0.0,-6.5765,-6.7033,-6.8976,-7.0086,-7.0086,-7.0949,-7.1713,-7.2282,-7.1713,-7.2036,-7.3258,-7.5016,-7.6159,-7.6773,-7.9162,-8.0209,-8.0209,-8.0209,-8.0209,-8.0209,-8.0209,-8.0209,-8.0209,-8.0209,-8.0209,-8.0209,-8.0209,-8.0209,-8.0209,-4.7309,-4.7309,-4.7309,0.0,0.0,0.0,-4.7309,-4.7309,-4.7309,-4.7309,-4.7309,0.0,-4.9613,-4.8297,0.0,0.0,0.0,-4.9823,0.0,0.0,-4.9853,0.0,0.0,0.0,0.0,-4.8327,-4.7668,-4.7309,-4.7309,-4.7309,-4.7309,-4.7309,-4.7309,-4.7339,0.0,-4.9134,-4.9942,0.0,0.0,-5.2396,-5.3533,-5.3324,-5.2396,-5.3174,-5.3892,-5.473,-5.6675,-5.7154,-5.6915,-5.7453,-5.7034,0.0,-5.6915,0.0,0.0,0.0,0.0,0.0,-5.2067,0.0,0.0,0.0,0.0,0.0,0.0,0.0,0.0,0.0,0.0,0.0,0.0,0.0,0.0,-5.1229,0.0,0.0,0.0,0.0,0.0,0.0,0.0,0.0,0.0,0.0,0.0,0.0,0.0,0.0,-6.3947,-6.6356,-6.8065,-6.8649,-6.9631,-7.0424,-7.0727,-7.0424,-7.0648,-7.142,-7.3371,-7.4626,-7.5284,-7.804,-7.943,-7.9598,-7.9972,-8.0209,-8.0209,-8.0209,-8.0209,-8.0209,-8.0209,-8.0209,-8.0209,-8.0209,-8.0209,-8.0209,-4.7309,-4.7309,0.0,0.0,0.0,0.0,-4.7309,-4.7309,-4.7309,0.0,0.0,0.0,0.0,0.0,0.0,0.0,0.0,-4.9823,-5.1139,0.0,-4.9853,0.0,0.0,0.0,0.0,-4.9224,-4.8566,-4.7309,-4.7309,-4.7309,-4.7309,-4.7309,-4.7309,-4.7309,0.0,-4.8775,-5.1169,-5.1259,-5.2755,-5.5119,-5.5807,-5.5658,-5.4999,0.0,-5.4581,-5.5418,-5.7393,0.0,0.0,-5.8411,-5.9009,0.0,0.0,0.0,0.0,0.0,0.0,0.0,0.0,0.0,0.0,-5.476,0.0,0.0,0.0,0.0,-5.1199,0.0,0.0,0.0,0.0,-5.1229,-5.1229,-5.1229,-5.1229,0.0,0.0,0.0,0.0,0.0,0.0,0.0,0.0,0.0,0.0,0.0,0.0,0.0,-6.3857,-6.4066,-6.5083,-6.7031,-6.7091,-6.7879,-6.9317,-6.7879,-6.8531,-7.142,-7.0777,-7.1583,-7.3612,-7.5929,-7.733,-7.8097,-7.9495,-8.0209,-8.0209,-8.0209,-8.0209,-8.0209,-8.0209,-8.0209,-8.0209,-8.0209,-8.0209,-8.0209,-4.7309,-4.7309,0.0,0.0,0.0,0.0,-4.7309,-4.7309,0.0,0.0,0.0,0.0,0.0,0.0,-5.1139,0.0,0.0,-5.2426,-5.3773,-5.2606,0.0,0.0,0.0,-5.0571,0.0,0.0,-4.8626,-4.7309,-4.7309,-4.7309,-4.7309,-4.7309,-4.7309,-4.7339,0.0,-4.9583,0.0,0.0,0.0,0.0,0.0,-5.5119,-5.47,0.0,0.0,-5.6107,-5.8052,-5.8471,0.0,-5.889,-5.9099,-5.9009,-5.856,-5.7812,-5.7004,-5.6585,-5.5867,0.0,0.0,0.0,-5.5867,-5.6346,0.0,0.0,0.0,0.0,0.0,0.0,0.0,0.0,0.0,-5.1798,-5.1498,-5.2366,-5.1798,-5.1229,0.0,0.0,0.0,0.0,0.0,0.0,0.0,0.0,0.0,0.0,0.0,0.0,0.0,-6.3288,-6.4904,-6.6939,-6.6999,-6.7213,-6.7759,-6.7213,-6.7548,-6.8562,-6.9766,-7.0887,-7.2159,-7.4317,-7.6287,-7.7882,-7.8452,-7.9288,-8.0209,-8.0209,-8.0209,-8.0209,-8.0209,-8.0209,-8.0209,-8.0209,-8.0209,-8.0209,-4.7309,0.0,0.0,0.0,0.0,0.0,0.0,0.0,0.0,0.0,-4.9883,0.0,-5.2636,0.0,-5.2995,0.0,-5.467,-5.4461,-5.5777,-5.464,0.0,-5.5478,-5.3443,0.0,0.0,0.0,-4.9314,-4.7997,-4.7549,-4.7309,-4.7309,-4.7309,-4.7309,-4.7339,0.0,0.0,0.0,0.0,-5.3084,0.0,0.0,-5.4999,0.0,0.0,-5.6944,-5.6107,0.0,-5.88,-5.8471,-5.8949,-5.9099,-5.9099,-5.9099,-5.8501,-5.7812,-5.7812,-5.7244,-5.6765,-5.7603,-5.7453,0.0,-5.7693,-5.6496,0.0,-5.467,0.0,0.0,0.0,0.0,0.0,0.0,0.0,-5.1498,-5.2336,-5.1768,-5.1229,0.0,-5.1588,0.0,0.0,0.0,0.0,0.0,0.0,0.0,0.0,0.0,0.0,0.0,0.0,-6.4096,-6.658,-6.6879,-6.6999,-6.6999,-6.6999,-6.6999,-6.6999,-6.8424,-6.9543,-7.0218,-7.2387,-7.4669,-7.6724,-7.7533,-7.8802,-8.0209,-8.0209,-8.0209,-8.0209,-8.0209,-8.0209,-8.0209,-8.0209,-8.0209,-8.0209,-4.7309,0.0,0.0,0.0,-4.7369,0.0,0.0,0.0,-4.9344,0.0,-5.105,-5.2276,-5.2336,-5.2965,-5.4371,-5.6885,-5.5987,0.0,-5.7004,-5.5957,0.0,0.0,-5.5029,-5.4012,-5.3294,0.0,0.0,-4.9314,-4.7967,-4.7309,-4.7309,-4.7309,-4.7309,-4.7309,-4.7339,0.0,-4.9434,-5.1349,-5.2247,-5.2516,-5.3892,-5.5508,-5.7094,-5.7154,0.0,-5.5628,-5.8171,-5.8291,-5.7393,-5.868,-5.9099,-5.9099,-5.9129,-5.9159,-5.9159,-5.9189,-5.9189,-5.9189,-5.9189,-5.8261,-5.7603,-5.889,0.0,0.0,0.0,0.0,-5.5269,0.0,0.0,0.0,0.0,0.0,-5.1439,-5.1498,-5.1379,-5.1259,-5.1259,0.0,0.0,0.0,0.0,0.0,0.0,0.0,0.0,0.0,0.0,0.0,0.0,0.0,-6.254,-6.5802,-6.652,-6.6849,-6.6879,-6.6879,-6.6879,-6.6879,-6.6969,-6.7328,-6.8111,-7.0218,-7.2387,-7.4587,-7.6834,-7.8664,-8.0074,-8.0209,-8.0209,-8.0209,-8.0209,-8.0209,-8.0209,-8.0209,-8.0209,-8.0209,-4.7309,-4.7309,-4.7459,0.0,-4.8446,-4.8865,0.0,0.0,0.0,0.0,-5.2306,-5.3324,-5.4311,-5.5418,-5.6346,-5.7034,-5.6795,0.0,0.0,0.0,0.0,-5.6855,-5.6526,-5.5837,-5.47,-5.2875,0.0,-5.0002,-4.8177,-4.7309,-4.7309,-4.7309,-4.7309,-4.7339,0.0,0.0,-5.0062,-5.105,-5.2905,-5.5299,-5.7124,-5.7543,0.0,0.0,-5.7752,-5.6825,-5.8501,-5.889,-5.865,-5.8979,-5.9099,-5.9189,-5.9668,-5.9817,-5.9937,-6.0446,-6.0595,-6.0595,-6.0595,-6.0356,-6.0176,-6.0505,-5.9338,-5.8171,0.0,0.0,0.0,0.0,0.0,0.0,0.0,0.0,0.0,-5.5418,-5.3533,-5.1947,-5.1947,0.0,0.0,0.0,0.0,0.0,0.0,0.0,0.0,0.0,0.0,0.0,0.0,0.0,0.0,-6.4425,-6.4665,-6.5024,-6.5533,-6.5533,-6.5533,-6.5533,-6.652,-6.7328,-6.7986,-6.8602,-7.0342,-7.2958,-7.4715,-7.6593,-7.8591,-7.9734,-8.0209,-8.0209,-8.0209,-8.0209,-8.0209,-8.0209,-8.0209,-8.0209,-4.8147,0.0,0.0,-4.8656,0.0,0.0,-5.09,0.0,0.0,-5.3414,-5.4581,0.0,-5.5598,-5.7034,-5.7962,-5.7962,-5.7962,0.0,0.0,0.0,0.0,-5.7543,-5.7543,-5.7064,-5.6047,-5.4371,0.0,-5.1528,0.0,-4.8716,-4.8147,-4.8147,-4.8147,-4.8177,0.0,-4.9134,0.0,-5.1139,-5.3234,-5.5837,-5.6944,0.0,0.0,-5.7932,-5.8291,-5.8501,-5.9249,-5.9338,-5.9159,-5.9428,-5.9548,-5.9638,-6.0326,-6.0535,-6.0625,-6.1014,-6.1104,-6.1104,-6.1104,-6.1104,-6.1104,-6.1104,-6.0535,-5.9967,-5.9967,-5.9398,-5.886,0.0,0.0,0.0,0.0,0.0,0.0,-5.5359,-5.3832,-5.2636,0.0,0.0,0.0,0.0,0.0,0.0,0.0,0.0,0.0,0.0,0.0,0.0,0.0,0.0,0.0,-6.3498,-6.3857,-6.4066,-6.4186,-6.5323,-6.5592,-6.5054,-6.637,-6.7178,-6.7537,-6.7837,-6.9457,-7.1956,-7.3038,-7.4825,-7.6971,-7.8591,-7.915,-7.9288,-7.9972,-8.0209,-8.0209,-8.0209,-8.0209,-8.0209,0.0,0.0,0.0,0.0,0.0,0.0,0.0,-5.4371,0.0,-5.5299,0.0,-5.7543,-5.6406,-5.7962,-5.9099,-5.9099,0.0,-5.9099,-5.9099,-5.9099,-5.886,-5.8291,-5.8261,-5.7962,-5.7363,-5.6017,0.0,0.0,0.0,-5.0541,-4.9254,-4.9254,-4.9254,-4.9254,0.0,0.0,0.0,-5.1798,-5.3683,0.0,-5.5628,-5.6406,-5.7483,-5.7483,-5.862,-6.0206,-6.0206,-5.9847,-5.9458,-6.0027,-6.0206,-6.0326,-6.1014,-6.1253,-6.1253,-6.1343,-6.1373,-6.1373,-6.1373,-6.1373,-6.1373,-6.1373,-6.1373,-6.1373,-6.1373,-6.1373,-6.1373,-6.1373,-6.0446,-5.9608,0.0,0.0,0.0,-5.3922,-5.3473,-5.3324,0.0,0.0,0.0,0.0,0.0,0.0,0.0,0.0,0.0,0.0,0.0,0.0,0.0,0.0,0.0,-6.2331,-6.3199,0.0,-6.2959,0.0,-6.6161,-6.5054,-6.637,-6.6999,-6.6999,-6.7567,-6.9001,-7.0915,-7.1835,-7.3327,-7.5336,-7.6939,-7.7665,-7.7773,-7.9288,-7.987,-7.9972,-8.0107,-8.0209,-8.0209,0.0,0.0,0.0,0.0,0.0,-5.2665,-5.4551,-5.4581,-5.476,-5.5867,-5.6735,0.0,-5.6944,-5.8231,-5.9099,-5.9099,-5.9099,0.0,0.0,0.0,0.0,-5.8949,-5.8919,-5.889,-5.874,-5.6944,-5.5359,0.0,0.0,-5.0541,-4.9254,-4.9254,-4.9254,-4.9284,0.0,0.0,-5.2576,-5.4042,0.0,-5.6855,-5.7962,-5.889,-5.9548,-5.9548,-6.0146,-6.0924,-6.0924,-6.0864,-6.0775,-6.0894,-6.0924,-6.1044,-6.1702,-6.1912,-6.2032,-6.257,-6.272,-6.272,-6.272,-6.272,-6.272,-6.272,-6.272,-6.272,-6.272,-6.272,-6.272,-6.272,-6.254,-6.2391,-6.2391,0.0,0.0,0.0,0.0,0.0,0.0,0.0,0.0,0.0,0.0,0.0,0.0,0.0,0.0,0.0,0.0,0.0,0.0,0.0,0.0,0.0,-6.0715,0.0,0.0,0.0,-6.5263,-6.5054,-6.637,-6.6999,-6.6999,-6.7119,-6.7631,-6.8632,-7.0675,-7.2044,-7.3057,-7.5124,-7.6038,-7.6152,-7.7665,-7.8345,-7.8452,-7.9734,-8.0209,-8.0209,0.0,0.0,0.0,0.0,0.0,0.0,0.0,-5.6496,0.0,-5.8082,-5.8471,-5.877,-5.9129,-5.9757,-6.0146,-6.0146,-6.0146,-6.0146,-6.0146,-6.0146,-5.9997,-5.9638,-5.9608,0.0,-5.9129,-5.8171,-5.6705,-5.473,0.0,-5.2247,-5.0272,-5.0272,-5.0272,-5.0331,0.0,-5.2276,0.0,0.0,0.0,-5.7782,-5.9458,-6.0326,-6.0625,-6.0625,-6.1044,-6.1613,-6.1613,-6.1852,-6.2091,-6.1732,-6.1613,-6.1732,-6.2391,-6.26,-6.266,-6.2989,-6.3079,-6.3079,-6.3079,-6.3079,-6.3079,-6.3079,-6.3079,-6.3079,-6.3079,-6.3079,-6.3079,-6.3079,-6.3079,-6.2869,-6.2181,-6.1014,0.0,0.0,0.0,0.0,0.0,0.0,0.0,0.0,0.0,0.0,0.0,0.0,0.0,0.0,0.0,0.0,0.0,0.0,0.0,0.0,0.0,0.0,0.0,0.0,0.0,-6.4036,-6.6041,-6.6999,-6.6999,-6.6999,-6.7358,-6.8111,-6.9092,-7.0189,-7.1289,-7.3437,-7.488,-7.5695,-7.6379,-7.7193,-7.799,-7.8697,-7.9495,-8.0209,0.0,-5.2875,0.0,0.0,-5.4551,0.0,0.0,-5.8411,-5.9398,-6.0206,-6.0296,-6.0505,-6.1044,-6.1104,-6.1104,-6.1104,-6.1104,-6.1104,-6.1104,-6.1104,-6.0864,-6.0326,-6.0296,-6.0057,-5.9548,-5.9548,-5.8321,0.0,0.0,-5.4192,-5.1858,-5.1708,-5.1798,0.0,0.0,0.0,0.0,0.0,-5.8501,-5.889,-6.0475,-6.1194,-6.1313,-6.1313,-6.1732,-6.2301,-6.2301,-6.263,-6.2989,-6.248,-6.2301,-6.2391,-6.2899,-6.3079,-6.3079,-6.3079,-6.3079,-6.3079,-6.3079,-6.3079,-6.3079,-6.3079,-6.3079,-6.3079,-6.3079,-6.3079,-6.3079,-6.3079,-6.3079,-6.275,-6.1732,-6.1313,0.0,0.0,0.0,0.0,0.0,0.0,0.0,0.0,0.0,0.0,0.0,0.0,0.0,0.0,0.0,-5.5748,-5.7034,-5.5867,0.0,0.0,0.0,-6.0565,-6.0296,0.0,-6.5682,0.0,-6.6011,-6.6999,-6.6999,-6.6999,-6.7268,-6.7777,-6.7897,-6.8734,-7.0149,-7.1899,-7.3475,-7.4644,-7.4998,-7.581,-7.6971,-7.7303,-7.8345,-7.9734,0.0,0.0,0.0,0.0,0.0,0.0,0.0,-5.9009,-5.9578,-6.0835,-6.1014,-6.1044,-6.1104,-6.1104,-6.1104,-6.1104,-6.1104,-6.1104,-6.1104,-6.1104,-6.1074,-6.1014,-6.1014,-6.0984,-6.0924,-6.0924,-5.9907,0.0,0.0,-5.5359,-5.3922,-5.3294,-5.3653,0.0,0.0,0.0,0.0,-5.862,-5.9727,-6.0864,-6.1044,-6.1463,-6.2002,-6.2002,-6.2421,-6.2989,-6.2989,-6.3019,-6.3079,-6.3019,-6.2989,-6.2989,-6.3049,-6.3079,-6.3079,-6.3079,-6.3079,-6.3079,-6.3079,-6.3079,-6.3079,-6.3079,-6.3079,-6.3079,-6.3079,-6.3079,-6.3079,-6.3079,-6.3079,-6.3049,-6.2929,-6.1912,-6.0685,0.0,0.0,0.0,0.0,0.0,0.0,0.0,0.0,0.0,0.0,0.0,0.0,0.0,0.0,-5.5748,-5.7034,-5.5867,-5.5867,-5.7334,0.0,-5.9847,-6.1014,-6.3797,0.0,-6.664,-6.6879,-6.6999,-6.6999,-6.6999,-6.7029,-6.7119,-6.7717,-6.8734,-7.0021,-7.0779,-7.1247,-7.1503,-7.2861,-7.3596,-7.3839,-7.5348,-7.6748,-7.8131,0.0,0.0,0.0,0.0,0.0,0.0,0.0,-6.0984,-6.1672,-6.2211,-6.1942,-6.1852,-6.2241,-6.2301,-6.2301,-6.2301,-6.2301,-6.2301,-6.2301,-6.2301,-6.2121,-6.1732,-6.1702,-6.1523,-6.1134,-6.1104,-6.0326,0.0,0.0,-5.6466,-5.5927,-5.488,0.0,0.0,0.0,-5.8231,-5.88,-6.0266,-6.1224,-6.1732,-6.2121,-6.245,-6.269,-6.269,-6.2839,-6.3079,-6.3079,-6.3079,-6.3079,-6.3079,-6.3079,-6.3079,-6.3079,-6.3079,-6.3079,-6.3079,-6.3079,-6.3079,-6.3079,-6.3079,-6.3079,-6.3079,-6.3079,-6.3079,-6.3079,-6.3079,-6.3079,-6.3079,-6.3079,-6.3079,-6.3079,-6.266,-6.1852,0.0,0.0,0.0,0.0,0.0,0.0,0.0,0.0,-5.889,0.0,0.0,0.0,0.0,0.0,0.0,-5.5927,-5.6196,-5.6944,-5.8261,0.0,-6.0535,-6.2271,-6.3707,-6.4874,-6.5832,-6.661,-6.6999,-6.6999,-6.6999,-6.6999,-6.7029,-6.7687,-6.8495,-6.9453,-7.0081,-7.056,-7.1018,-7.1601,-7.2425,-7.3384,-7.3959,-7.5231,-7.6604,-5.886,0.0,-5.9578,0.0,-6.0745,-6.1702,-6.1702,-6.248,-6.3079,-6.3079,-6.266,-6.257,-6.3019,-6.3079,-6.3079,-6.3079,-6.3079,-6.3079,-6.3079,-6.3079,-6.2869,-6.2391,-6.2391,0.0,-6.1702,-6.1702,-6.1134,-5.9997,-5.862,0.0,-5.7962,0.0,0.0,0.0,-5.9488,-5.9997,-6.0086,-6.1702,-6.2391,-6.2421,-6.2899,-6.3079,-6.3079,-6.3079,-6.3079,-6.3079,-6.3079,-6.3079,-6.3079,-6.3079,-6.3079,-6.3079,-6.3079,-6.3079,-6.3079,-6.3079,-6.3079,-6.3079,-6.3079,-6.3079,-6.3079,-6.3079,-6.3079,-6.3079,-6.3079,-6.3079,-6.3079,-6.3079,-6.3079,-6.3079,-6.3079,-6.3079,-6.266,-6.1313,0.0,0.0,0.0,0.0,0.0,0.0,-5.8291,-5.9099,-5.9099,0.0,0.0,0.0,0.0,0.0,-5.5748,-5.6256,0.0,0.0,0.0,0.0,0.0,-6.3139,-6.4156,-6.5622,-6.655,-6.6999,-6.6999,-6.6999,-6.6999,-6.7029,-6.7687,-6.8256,-6.8764,-6.9632,-7.0231,-7.0649,-7.0829,-7.1631,-7.255,-7.255,-7.3627,-7.5115,-6.3677,-6.3438,-6.3019,-6.3019,-6.3049,-6.3049,-6.3049,-6.3079,-6.3079,-6.3079,-6.3079,-6.3079,-6.3079,-6.3079,-6.3079,-6.3079,-6.3079,-6.3079,-6.3079,-6.3079,-6.3079,0.0,0.0,-6.3049,-6.3049,-6.3049,-6.272,-6.2061,0.0,0.0,-6.0057,0.0,-6.0386,-6.1104,-6.1762,-6.2061,-6.2121,-6.278,-6.3079,-6.3079,-6.3079,-6.3079,-6.3079,-6.3079,-6.3079,-6.3079,-6.3079,-6.3079,-6.3079,-6.3079,-6.3079,-6.3079,-6.3079,-6.3079,-6.3079,-6.3079,-6.3079,-6.3079,-6.3079,-6.3079,-6.3079,-6.3079,-6.3079,-6.3079,-6.3079,-6.3079,-6.3079,-6.3079,-6.3079,-6.3079,-6.3079,-6.3079,-6.266,-6.1313,0.0,0.0,0.0,0.0,0.0,-5.7423,-5.8291,-5.9099,-5.9099,0.0,0.0,0.0,0.0,0.0,0.0,0.0,0.0,-5.7064,-5.6526,0.0,-6.1104,-6.1792,-6.3767,-6.6969,-6.6969,-6.6999,-6.6999,-6.6999,-6.6999,-6.7029,-6.7687,-6.7956,-6.8076,-6.9423,-6.9991,-7.0051,-7.0679,-7.0889,-7.0889,-7.0889,-7.1982,-7.3292,-6.4455,-6.4545,-6.4425,-6.4425,-6.4425,-6.4425,-6.4425,-6.4425,-6.4425,-6.4425,-6.4425,-6.4216,-6.3767,-6.3318,-6.3079,0.0,-6.3079,-6.3079,0.0,-6.3079,-6.3079,-6.3079,-6.3079,-6.3079,-6.3079,-6.3079,-6.2989,-6.278,0.0,0.0,0.0,-6.1702,-6.2241,-6.245,-6.266,-6.278,-6.278,-6.2989,-6.3079,-6.3079,-6.3079,-6.3079,-6.3079,-6.3079,-6.3079,-6.3079,-6.3079,-6.3079,-6.3079,-6.3079,-6.3079,-6.3079,-6.3079,-6.3079,-6.3079,-6.3079,-6.3079,-6.3079,-6.3079,-6.3079,-6.3079,-6.3079,-6.3079,-6.3079,-6.3079,-6.3408,-6.3827,-6.4306,-6.4425,-6.4276,-6.3797,-6.3707,-6.3139,-6.1403,-6.1882,0.0,0.0,0.0,-6.0446,-5.868,-5.883,-5.9458,0.0,-5.9249,0.0,0.0,0.0,0.0,0.0,0.0,0.0,0.0,-5.9638,0.0,-6.3767,-6.3109,-6.4186,-6.6999,-6.6999,-6.6999,-6.6999,-6.6999,-6.6999,-6.6999,-6.7208,-6.7567,-6.8016,-6.8435,-6.9123,-6.9961,-7.0201,-7.053,-7.0889,-7.0889,-7.1247,-7.1855,-6.5233,-6.5203,-6.5024,-6.5024,-6.5024,-6.5024,-6.5024,-6.5024,-6.5024,-6.5024,-6.5024,-6.4874,-6.4425,-6.4036,0.0,-6.3109,-6.3079,-6.3079,-6.3079,-6.3079,-6.3079,-6.3079,-6.3079,-6.3079,-6.3079,0.0,0.0,-6.3079,-6.2241,-6.1852,-6.1882,-6.269,-6.3079,-6.3079,-6.3079,-6.3079,-6.3079,-6.3079,-6.3079,-6.3079,-6.3079,-6.3079,-6.3079,-6.3079,-6.3079,-6.3079,-6.3079,-6.3079,-6.3079,-6.3079,-6.3079,-6.3109,-6.3348,-6.3438,-6.3378,-6.3139,-6.3079,-6.3079,-6.3079,-6.3258,-6.3438,-6.3438,-6.3617,-6.3797,-6.3797,-6.4126,-6.4515,-6.4934,-6.5024,-6.4904,-6.4455,-6.4395,-6.4006,-6.278,-6.3288,-6.2959,-6.0565,0.0,-6.1433,0.0,0.0,0.0,0.0,-6.0356,0.0,0.0,0.0,0.0,0.0,0.0,0.0,-6.0326,-6.0356,0.0,-6.4276,-6.3498,-6.4395,-6.6999,-6.6999,-6.6999,-6.6999,-6.6999,-6.6999,-6.6999,-6.6999,-6.7238,-6.7627,-6.7867,-6.8465,-6.9243,-6.9782,-7.0201,-7.059,-7.0829,-7.0889,-7.1018,-6.6071,-6.5592,0.0,0.0,-6.5173,0.0,-6.5173,-6.5173,-6.5173,-6.5173,-6.5173,-6.5144,-6.5114,-6.5114,-6.4575,-6.3318,0.0,0.0,0.0,-6.3139,-6.3109,-6.3079,-6.3079,-6.3079,-6.3079,-6.3079,-6.3079,-6.3079,-6.3079,-6.3079,-6.3079,-6.3079,-6.3079,-6.3079,-6.3079,-6.3109,-6.3139,-6.3139,-6.3169,-6.3199,-6.3199,-6.3199,-6.3199,-6.3199,-6.3199,-6.3199,-6.3199,-6.3199,-6.3199,-6.3199,-6.3199,-6.3318,-6.3887,-6.4066,-6.3947,-6.3378,-6.3199,-6.3199,-6.3199,-6.3617,-6.4066,-6.4066,-6.4545,-6.5054,-6.5084,-6.5114,-6.5114,-6.5144,-6.5173,-6.5144,-6.5114,-6.5114,-6.5084,-6.5054,-6.5024,-6.4366,-6.245,0.0,-6.281,0.0,0.0,0.0,0.0,-6.1283,-6.1224,0.0,0.0,0.0,0.0,0.0,-5.9368,-5.9368,-5.9428,-6.0655,-6.3199,-6.3258,-6.4545,-6.6999,-6.6999,-6.6999,-6.6999,-6.6999,-6.6999,-6.6999,-6.6999,-6.6999,-6.7029,-6.7657,-6.7926,-6.8106,-6.9363,-6.9901,-7.0051,-7.062,-7.0859,-7.0889,0.0,0.0,-6.652,-6.652,-6.652,-6.652,-6.652,-6.652,-6.652,-6.652,-6.652,-6.634,-6.5832,-6.5772,-6.5443,-6.4635,-6.4575,-6.4336,-6.3827,-6.3767,-6.3558,-6.3109,-6.3079,-6.3079,-6.3079,-6.3079,-6.3079,-6.3079,-6.3079,-6.3079,-6.3079,-6.3079,-6.3079,-6.3079,-6.3079,-6.3348,-6.3767,-6.3767,-6.4096,-6.4575,-6.4575,-6.4575,-6.4575,-6.4575,-6.4575,-6.4575,-6.4575,-6.4575,-6.4575,-6.4575,-6.4575,-6.4605,-6.4755,-6.4784,-6.4755,-6.4605,-6.4575,-6.4575,-6.4575,-6.4665,-6.4784,-6.4784,-6.4904,-6.5173,-6.5652,-6.5772,-6.5922,-6.643,-6.652,-6.637,-6.5862,-6.5772,-6.5622,-6.5114,-6.5024,-6.4515,-6.3049,-6.3109,0.0,0.0,-6.1972,-6.2241,-6.3228,-6.2899,-6.2181,0.0,0.0,0.0,0.0,-6.1194,-6.2121,-6.2121,-6.26,-6.3408,-6.4545,-6.5054,-6.5892,-6.6999,-6.6999,-6.6999,-6.6999,-6.6999,-6.6999,-6.6999,-6.6999,-6.6999,-6.6999,-6.7148,-6.7508,-6.8016,-6.8315,-6.9064,-6.9991,-7.0141,-7.05,-7.0889,-6.6999,-6.6999,-6.6999,-6.6999,-6.6999,-6.6999,-6.6999,-6.6999,-6.6999,-6.6999,-6.6999,-6.6849,-6.649,-6.646,-6.6311,-6.5951,-6.5383,-6.4874,-6.4485,-6.4485,-6.4306,-6.3977,-6.3977,-6.3977,-6.3977,-6.3977,-6.3977,-6.3977,-6.3977,-6.3977,-6.3977,-6.3977,-6.3977,-6.3977,-6.3977,-6.4156,-6.4485,-6.4485,-6.4695,-6.5024,-6.5024,-6.5024,-6.5024,-6.5024,-6.5024,-6.5024,-6.5024,-6.5024,-6.5024,-6.5024,-6.5024,-6.5084,-6.5383,-6.5473,-6.5533,-6.5832,-6.5503,-6.5024,-6.5024,-6.5233,-6.5533,-6.5862,-6.5922,-6.6011,-6.637,-6.646,-6.655,-6.6909,-6.6999,-6.6879,-6.652,-6.646,-6.634,-6.5981,-6.5413,-6.4665,-6.3647,-6.3498,0.0,-6.3109,-6.3288,-6.3707,-6.4395,-6.4156,-6.3677,-6.2959,-6.3019,0.0,-6.1852,-6.263,-6.281,-6.2211,-6.3348,-6.4336,-6.5024,-6.5981,-6.664,-6.6999,-6.6999,-6.6999,-6.6999,-6.6999,-6.6999,-6.6999,-6.6999,-6.6999,-6.6999,-6.6999,-6.7208,-6.7537,-6.7837,-6.8405,-6.9153,-6.9752,-7.0201,-7.053,-6.7148,-6.7148,-6.7119,-6.6999,-6.6999,-6.6999,-6.6999,-6.6999,-6.6999,-6.6999,-6.6999,-6.6999,-6.6999,-6.6999,-6.6999,-6.6999,-6.5981,-6.5293,-6.5173,-6.5173,-6.5144,-6.5024,-6.5024,-6.5024,-6.5024,-6.5024,-6.5024,-6.5024,-6.5024,-6.5024,-6.5024,-6.5024,-6.5024,-6.5024,-6.5024,-6.5084,-6.5173,-6.5173,-6.5233,-6.5323,-6.5323,-6.5323,-6.5323,-6.5323,-6.5323,-6.5323,-6.5323,-6.5323,-6.5323,-6.5323,-6.5323,-6.5413,-6.5981,-6.6161,-6.6251,-6.6819,-6.6191,-6.5323,-6.5323,-6.5742,-6.6281,-6.6849,-6.6999,-6.6999,-6.6999,-6.6999,-6.6999,-6.6999,-6.6999,-6.6999,-6.6999,-6.6999,-6.6939,-6.6729,-6.5742,-6.4755,-6.3977,0.0,-6.3947,-6.3438,-6.4425,-6.5173,-6.5173,-6.5084,-6.5024,-6.5024,-6.4006,-6.3767,0.0,-6.3857,-6.278,-6.1463,-6.3288,-6.4635,-6.5323,-6.643,-6.6999,-6.6999,-6.6999,-6.6999,-6.6999,-6.6999,-6.6999,-6.6999,-6.6999,-6.6999,-6.6999,-6.6999,-6.6999,-6.7059,-6.7597,-6.7897,-6.8106,-6.9273,-6.9752,-6.9931,-6.7926,-6.7807,-6.7657,-6.7089,-6.6999,-6.6999,-6.6999,-6.6999,-6.6999,-6.6999,-6.6999,-6.6999,-6.6999,-6.6999,-6.6999,-6.6999,-6.6819,-6.646,-6.5892,-6.5862,-6.5592,-6.5054,-6.5024,-6.5024,-6.5024,-6.5024,-6.5024,-6.5024,-6.5024,-6.5024,-6.5024,-6.5024,-6.5024,-6.5024,-6.5024,-6.5323,-6.5862,-6.5862,-6.6191,-6.67,-6.67,-6.67,-6.67,-6.67,-6.67,-6.67,-6.67,-6.67,-6.67,-6.67,-6.67,-6.67,-6.6819,-6.6849,-6.6849,-6.6969,-6.6849,-6.67,-6.67,-6.6759,-6.6879,-6.6969,-6.6999,-6.6999,-6.6999,-6.6999,-6.6999,-6.6999,-6.6999,-6.6999,-6.6999,-6.6999,-6.664,-6.5503,-6.5173,-6.4605,-6.3378,0.0,-6.4844,-6.4755,-6.5383,-6.5862,-6.5862,-6.5353,-6.5024,-6.5024,-6.4844,-6.4336,-6.3438,-6.4246,-6.4126,-6.281,-6.4665,-6.6011,-6.667,-6.6879,-6.6999,-6.6999,-6.6999,-6.6999,-6.6999,-6.6999,-6.6999,-6.6999,-6.6999,-6.6999,-6.6999,-6.6999,-6.6999,-6.6999,-6.7089,-6.7478,-6.7986,-6.8196,-6.8645,-6.9243,-6.8585,-6.8525,-6.8315,-6.7627,-6.7508,-6.7388,-6.7059,-6.6999,-6.6999,-6.6999,-6.6999,-6.6999,-6.6999,-6.6999,-6.6999,-6.6999,-6.6999,-6.6849,-6.655,-6.655,-6.64,-6.6101,-6.6071,-6.6071,-6.6071,-6.6071,-6.6071,-6.6071,-6.6071,-6.6071,-6.6071,-6.6071,-6.6071,-6.6071,-6.6071,-6.6251,-6.655,-6.655,-6.67,-6.6999,-6.6999,-6.6999,-6.6999,-6.6999,-6.6999,-6.6999,-6.6999,-6.6999,-6.6999,-6.6999,-6.6999,-6.6999,-6.6999,-6.6999,-6.6999,-6.6999,-6.6999,-6.6999,-6.6999,-6.6999,-6.6999,-6.6999,-6.6999,-6.6999,-6.6999,-6.6999,-6.6999,-6.6999,-6.6999,-6.6999,-6.6999,-6.6999,-6.655,-6.5233,-6.5024,0.0,0.0,-6.4216,-6.5024,-6.5024,-6.5922,-6.655,-6.655,-6.6251,-6.6071,-6.6071,-6.6071,-6.5832,-6.5203,-6.5772,-6.5802,-6.5203,-6.5712,-6.6311,-6.6969,-6.6999,-6.6999,-6.6999,-6.6999,-6.6999,-6.6999,-6.6999,-6.6999,-6.6999,-6.6999,-6.6999,-6.6999,-6.6999,-6.6999,-6.6999,-6.6999,-6.7178,-6.7478,-6.7837,-6.8166,-6.8555,-6.9243,-6.9243,-6.9004,-6.8315,-6.8196,-6.7986,-6.7328,-6.7208,-6.7178,-6.6999,-6.6999,-6.6999,-6.6999,-6.6999,-6.6999,-6.6999,-6.6999,-6.6999,-6.6999,-6.6999,-6.6999,-6.6999,-6.6999,-6.6999,-6.6999,-6.6999,-6.6999,-6.6999,-6.6999,-6.6999,-6.6999,-6.6999,-6.6999,-6.6999,-6.6999,-6.6999,-6.6999,-6.6999,-6.6999,-6.6999,-6.6999,-6.6999,-6.6999,-6.6999,-6.6999,-6.6999,-6.6999,-6.6999,-6.6999,-6.6999,-6.6999,-6.6999,-6.6999,-6.6999,-6.6999,-6.6999,-6.6999,-6.6999,-6.6999,-6.6999,-6.6999,-6.6999,-6.6999,-6.6999,-6.6999,-6.6999,-6.6999,-6.6999,-6.6999,-6.6999,-6.6999,-6.6999,-6.655,-6.5233,0.0,0.0,0.0,-6.4395,-6.5144,-6.5443,-6.637,-6.6999,-6.6999,-6.6999,-6.6999,-6.6999,-6.6999,-6.6999,-6.6999,-6.6999,-6.6999,-6.6999,-6.649,-6.649,-6.6999,-6.6999,-6.6999,-6.6999,-6.6999,-6.6999,-6.6999,-6.6999,-6.6999,-6.6999,-6.6999,-6.6999,-6.6999,-6.6999,-6.6999,-6.6999,-6.6999,-6.6999,-6.7059,-6.7567,-6.7747,-6.7837,-7.0021,-6.9901,-6.9692,-6.9034,-6.8914,-6.8704,-6.8016,-6.7897,-6.7687,-6.7059,-6.6999,-6.6999,-6.6999,-6.6999,-6.6999,-6.6999,-6.6999,-6.6999,-6.6999,-6.6999,-6.6999,-6.6999,-6.6999,-6.6999,-6.6999,-6.6999,-6.6999,-6.6999,-6.6999,-6.6999,-6.6999,-6.6999,-6.6999,-6.6999,-6.6999,-6.6999,-6.6999,-6.6999,-6.6999,-6.6999,-6.6999,-6.6999,-6.6999,-6.6999,-6.6999,-6.6999,-6.6999,-6.6999,-6.6999,-6.6999,-6.6999,-6.6999,-6.6999,-6.6999,-6.6999,-6.6999,-6.6999,-6.6999,-6.6999,-6.6999,-6.6999,-6.6999,-6.6999,-6.6999,-6.6999,-6.6999,-6.6999,-6.6999,-6.6999,-6.6999,-6.6999,-6.6999,-6.655,-6.5233,0.0,0.0,-6.4904,-6.4964,-6.5473,-6.67,-6.6939,-6.6999,-6.6999,-6.6999,-6.6999,-6.6999,-6.6999,-6.6999,-6.6999,-6.6999,-6.6999,-6.6999,-6.6939,-6.6939,-6.6999,-6.6999,-6.6999,-6.6999,-6.6999,-6.6999,-6.6999,-6.6999,-6.6999,-6.6999,-6.6999,-6.6999,-6.6999,-6.6999,-6.6999,-6.6999,-6.6999,-6.6999,-6.6999,-6.7059,-6.7059,-6.7148,-7.059,-7.056,-7.035,-6.9722,-6.9602,-6.9393,-6.8704,-6.8615,-6.8525,-6.8256,-6.7867,-6.7597,-6.7597,-6.7238,-6.6999,-6.6999,-6.6999,-6.6999,-6.6999,-6.6999,-6.6999,-6.6999,-6.6999,-6.6999,-6.6999,-6.6999,-6.6999,-6.6999,-6.6999,-6.6999,-6.6999,-6.6999,-6.6999,-6.6999,-6.6999,-6.6999,-6.6999,-6.6999,-6.6999,-6.6999,-6.6999,-6.6999,-6.6999,-6.6999,-6.6999,-6.6999,-6.6999,-6.6999,-6.6999,-6.6999,-6.6999,-6.6999,-6.6999,-6.6999,-6.6999,-6.6999,-6.6999,-6.6999,-6.6999,-6.6999,-6.6999,-6.6999,-6.6999,-6.6999,-6.6999,-6.6999,-6.6999,-6.6999,-6.6999,-6.6999,-6.6999,-6.6999,-6.655,-6.5233,0.0,-6.5951,-6.5144,-6.5742,-6.643,-6.6939,-6.6999,-6.6999,-6.6999,-6.6999,-6.6999,-6.6999,-6.6999,-6.6999,-6.6999,-6.6999,-6.6999,-6.6999,-6.6999,-6.6999,-6.6999,-6.6999,-6.6999,-6.6999,-6.6999,-6.6999,-6.6999,-6.6999,-6.6999,-6.6999,-6.6999,-6.6999,-6.6999,-6.6999,-6.6999,-6.6999,-6.6999,-6.6999,-6.6999,-6.6999,-6.6999,-6.7029,-7.0889,-7.0889,-7.0769,-7.035,-7.026,-7.0051,-6.9393,-6.9303,-6.9243,-6.9034,-6.8585,-6.8286,-6.8286,-6.7897,-6.7537,-6.7328,-6.7298,-6.7208,-6.6999,-6.6999,-6.6999,-6.6999,-6.6999,-6.6999,-6.6999,-6.6999,-6.6999,-6.6999,-6.6999,-6.6999,-6.6999,-6.6999,-6.6999,-6.6999,-6.6999,-6.6999,-6.6999,-6.6999,-6.6999,-6.6999,-6.6999,-6.6999,-6.6999,-6.6999,-6.6999,-6.6999,-6.6999,-6.6999,-6.6999,-6.6999,-6.6999,-6.6999,-6.6999,-6.6999,-6.6999,-6.6999,-6.6999,-6.6999,-6.6999,-6.6999,-6.6999,-6.6999,-6.6999,-6.6999,-6.6999,-6.6999,-6.6999,-6.6999,-6.6999,-6.6999,-6.6999,-6.6999,-6.67,-6.5802,-6.64,-6.667,-6.5772,-6.643,-6.6999,-6.6999,-6.6999,-6.6999,-6.6999,-6.6999,-6.6999,-6.6999,-6.6999,-6.6999,-6.6999,-6.6999,-6.6999,-6.6999,-6.6999,-6.6999,-6.6999,-6.6999,-6.6999,-6.6999,-6.6999,-6.6999,-6.6999,-6.6999,-6.6999,-6.6999,-6.6999,-6.6999,-6.6999,-6.6999,-6.6999,-6.6999,-6.6999,-6.6999,-6.6999,-6.6999,-6.6999,-6.6999,-7.0889,-7.0889,-7.0889,-7.0889,-7.0889,-7.0709,-7.0081,-6.9991,-6.9752,-6.9093,-6.9004,-6.9004,-6.9004,-6.9004,-6.8734,-6.8046,-6.7986,-6.7687,-6.7029,-6.6999,-6.6999,-6.6999,-6.6999,-6.6999,-6.6999,-6.6999,-6.6999,-6.6999,-6.6999,-6.6999,-6.6999,-6.6999,-6.6999,-6.6999,-6.6999,-6.6999,-6.6999,-6.6999,-6.6999,-6.6999,-6.6999,-6.6999,-6.6999,-6.6999,-6.6999,-6.6999,-6.6999,-6.6999,-6.6999,-6.6999,-6.6999,-6.6999,-6.6999,-6.6999,-6.6999,-6.6999,-6.6999,-6.6999,-6.6999,-6.6999,-6.6999,-6.6999,-6.6999,-6.6999,-6.6999,-6.6999,-6.6999,-6.6999,-6.6999,-6.6999,-6.6999,-6.6999,-6.6999,-6.6999,-6.6999,-6.6999,-6.6999,-6.6999,-6.6999,-6.6999,-6.6999,-6.6999,-6.6999,-6.6999,-6.6999,-6.6999,-6.6999,-6.6999,-6.6999,-6.6999,-6.6999,-6.6999,-6.6999,-6.6999,-6.6999,-6.6999,-6.6999,-6.6999,-6.6999,-6.6999,-6.6999,-6.6999,-6.6999,-6.6999,-6.6999,-6.6999,-6.6999,-6.6999,-6.6999,-6.6999,-6.6999,-6.6999,-6.6999,-6.6999,-6.6999,-6.6999,-7.0889,-7.0889,-7.0889,-7.0889,-7.0889,-7.0829,-7.0649,-7.062,-7.056,-7.035,-6.9961,-6.9692,-6.9692,-6.9273,-6.8914,-6.8704,-6.8704,-6.8405,-6.7717,-6.7687,-6.7478,-6.6999,-6.6999,-6.6999,-6.6999,-6.6999,-6.6999,-6.6999,-6.6999,-6.6999,-6.6999,-6.6999,-6.6999,-6.6999,-6.6999,-6.6999,-6.6999,-6.6999,-6.6999,-6.6999,-6.6999,-6.6999,-6.6999,-6.6999,-6.6999,-6.6999,-6.6999,-6.6999,-6.6999,-6.6999,-6.6999,-6.6999,-6.6999,-6.6999,-6.6999,-6.6999,-6.6999,-6.6999,-6.6999,-6.6999,-6.6999,-6.6999,-6.6999,-6.6999,-6.6999,-6.6999,-6.6999,-6.6999,-6.6999,-6.6999,-6.6999,-6.6999,-6.6999,-6.6999,-6.6999,-6.6999,-6.6999,-6.6999,-6.6999,-6.6999,-6.6999,-6.6999,-6.6999,-6.6999,-6.6999,-6.6999,-6.6999,-6.6999,-6.6999,-6.6999,-6.6999,-6.6999,-6.6999,-6.6999,-6.6999,-6.6999,-6.6999,-6.6999,-6.6999,-6.6999,-6.6999,-6.6999,-6.6999,-6.6999,-6.6999,-6.6999,-6.6999,-6.6999,-6.6999,-6.6999,-6.6999,-6.6999,-6.6999,-6.6999,-6.6999,-6.6999,-7.0889,-7.0889,-7.0889,-7.0889,-7.0889,-7.0889,-7.0889,-7.0889,-7.0889,-7.0889,-7.059,-7.035,-7.035,-6.9991,-6.9662,-6.9423,-6.9153,-6.8824,-6.8405,-6.8375,-6.8196,-6.7807,-6.7777,-6.7537,-6.6999,-6.6999,-6.6999,-6.6999,-6.6999,-6.6999,-6.6999,-6.6999,-6.6999,-6.6999,-6.6999,-6.6999,-6.6999,-6.6999,-6.6999,-6.6999,-6.6999,-6.6999,-6.6999,-6.6999,-6.6999,-6.6999,-6.6999,-6.6999,-6.6999,-6.6999,-6.6999,-6.6999,-6.6999,-6.6999,-6.6999,-6.6999,-6.6999,-6.6999,-6.6999,-6.6999,-6.6999,-6.6999,-6.6999,-6.6999,-6.6999,-6.6999,-6.6999,-6.6999,-6.6999,-6.6999,-6.6999,-6.6999,-6.6999,-6.6999,-6.6999,-6.6999,-6.6999,-6.6999,-6.6999,-6.6999,-6.6999,-6.6999,-6.6999,-6.6999,-6.6999,-6.6999,-6.6999,-6.6999,-6.6999,-6.6999,-6.6999,-6.6999,-6.6999,-6.6999,-6.6999,-6.6999,-6.6999,-6.6999,-6.6999,-6.6999,-6.6999,-6.6999,-6.6999,-6.6999,-6.6999,-6.6999,-6.6999,-6.6999,-6.6999,-6.6999,-6.6999,-6.6999,-6.6999,-6.6999,-6.6999,-6.6999,-7.0889,-7.0889,-7.0889,-7.0889,-7.0889,-7.0889,-7.0889,-7.0889,-7.0889,-7.0889,-7.0889,-7.0889,-7.0889,-7.0889,-7.0679,-7.0111,-6.9512,-6.9153,-6.9093,-6.9093,-6.9064,-6.9004,-6.9004,-6.8435,-6.7208,-6.7119,-6.7059,-6.6999,-6.6999,-6.6999,-6.6999,-6.6999,-6.6999,-6.6999,-6.6999,-6.6999,-6.6999,-6.6999,-6.6999,-6.6999,-6.6999,-6.6999,-6.6999,-6.6999,-6.6999,-6.6999,-6.6999,-6.6999,-6.6999,-6.6999,-6.6999,-6.6999,-6.6999,-6.6999,-6.6999,-6.6999,-6.6999,-6.6999,-6.6999,-6.6999,-6.6999,-6.6999,-6.6999,-6.6999,-6.6999,-6.6999,-6.6999,-6.6999,-6.6999,-6.6999,-6.6999,-6.6999,-6.6999,-6.6999,-6.6999,-6.6999,-6.6999,-6.6999,-6.6999,-6.6999,-6.6999,-6.6999,-6.6999,-6.6999,-6.6999,-6.6999,-6.6999,-6.6999,-6.6999,-6.6999,-6.6999,-6.6999,-6.6999,-6.6999,-6.6999,-6.6999,-6.6999,-6.6999,-6.6999,-6.6999,-6.6999,-6.6999,-6.6999,-6.6999,-6.6999,-6.6999,-6.6999,-6.6999,-6.6999,-6.6999,-6.6999,-6.6999,-6.6999,-6.6999,-6.6999,-6.6999,-7.0629,-7.0889,-7.0889,-7.0889,-7.0889,-7.0889,-7.0889,-7.0889,-7.0889,-7.0889,-7.0889,-7.0889,-7.0889,-7.0889,-7.0859,-7.0709,-7.056,-7.029,-6.9782,-6.9782,-6.9542,-6.9034,-6.9004,-6.8854,-6.8585,-6.8046,-6.7508,-6.6999,-6.6999,-6.6999,-6.6999,-6.6999,-6.6999,-6.6999,-6.6999,-6.6999,-6.6999,-6.6999,-6.6999,-6.6999,-6.6999,-6.6999,-6.6999,-6.6999,-6.6999,-6.6999,-6.6999,-6.6999,-6.6999,-6.6999,-6.6999,-6.6999,-6.6999,-6.6999,-6.6999,-6.6999,-6.6999,-6.6999,-6.6999,-6.6999,-6.6999,-6.6999,-6.6999,-6.6999,-6.6999,-6.6999,-6.6999,-6.6999,-6.6999,-6.6999,-6.6999,-6.6999,-6.6999,-6.6999,-6.6999,-6.6999,-6.6999,-6.6999,-6.6999,-6.6999,-6.6999,-6.6999,-6.6999,-6.6999,-6.6999,-6.6999,-6.6999,-6.6999,-6.6999,-6.6999,-6.6999,-6.6999,-6.6999,-6.6999,-6.6999,-6.6999,-6.6999,-6.6999,-6.6999,-6.6999,-6.6999,-6.6999,-6.6999,-6.6999,-6.6999,-6.6999,-6.6999,-6.6999,-6.6999,-6.6999,-6.6999,-6.6999,-6.6999,-6.6999,-6.6999,-6.6999,-6.9353,-7.0337,-7.0889,-7.0889,-7.0889,-7.0889,-7.0889,-7.0889,-7.0889,-7.0889,-7.0889,-7.0889,-7.0889,-7.0889,-7.0889,-7.0889,-7.0889,-7.0769,-7.044,-7.041,-7.026,-6.9931,-6.9901,-6.9782,-6.9482,-6.9123,-6.8615,-6.7956,-6.7956,-6.7956,-6.7956,-6.7627,-6.7448,-6.7448,-6.7119,-6.6999,-6.6999,-6.6999,-6.6999,-6.6999,-6.6999,-6.6999,-6.6999,-6.6999,-6.6999,-6.6999,-6.6999,-6.6999,-6.6999,-6.6999,-6.6999,-6.6999,-6.6999,-6.6999,-6.6999,-6.6999,-6.6999,-6.6999,-6.6999,-6.6999,-6.6999,-6.6999,-6.6999,-6.6999,-6.6999,-6.6999,-6.6999,-6.6999,-6.6999,-6.6999,-6.6999,-6.6999,-6.6999,-6.6999,-6.6999,-6.6999,-6.6999,-6.6999,-6.6999,-6.6999,-6.6999,-6.6999,-6.6999,-6.6999,-6.6999,-6.6999,-6.6999,-6.6999,-6.6999,-6.6999,-6.6999,-6.6999,-6.6999,-6.6999,-6.6999,-6.6999,-6.6999,-6.6999,-6.6999,-6.6999,-6.6999,-6.6999,-6.6999,-6.6999,-6.6999,-6.6999,-6.6999,-6.6999,-6.6999,-6.6999,-6.6999,-6.6999,-6.6999,-6.6999,-6.6999,-6.6999,-6.7507,-6.9086,-7.0468,-7.0468,-7.0629,-7.0889,-7.0889,-7.0889,-7.0889,-7.0889,-7.0889,-7.0889,-7.0889,-7.0889,-7.0889,-7.0889,-7.0889,-7.0889,-7.0889,-7.0889,-7.0889,-7.0889,-7.0889,-7.0679,-7.0141,-7.0141,-6.9752,-6.9004,-6.9004,-6.9004,-6.9004,-6.8405,-6.8136,-6.8136,-6.7567,-6.7268,-6.7148,-6.7148,-6.7089,-6.6999,-6.6999,-6.6999,-6.6999,-6.6999,-6.6999,-6.6999,-6.6999,-6.6999,-6.6999,-6.6999,-6.6999,-6.6999,-6.6999,-6.6999,-6.6999,-6.6999,-6.6999,-6.6999,-6.6999,-6.6999,-6.6999,-6.6999,-6.6999,-6.6999,-6.6999,-6.6999,-6.6999,-6.6999,-6.6999,-6.6999,-6.6999,-6.6999,-6.6999,-6.6999,-6.6999,-6.6999,-6.6999,-6.6999,-6.6999,-6.6999,-6.6999,-6.6999,-6.6999,-6.6999,-6.6999,-6.6999,-6.6999,-6.6999,-6.6999,-6.6999,-6.6999,-6.6999,-6.6999,-6.6999,-6.6999,-6.6999,-6.6999,-6.6999,-6.6999,-6.6999,-6.6999,-6.6999,-6.6999,-6.6999,-6.6999,-6.6999,-6.6999,-6.6999,-6.6999,-6.6999,-6.6999,-6.6999,-6.6999,-6.6999,-6.6999,-6.6999,-6.5214,-6.7203,-6.8519,-6.8519,-6.9781,-7.0889,-7.0889,-7.0889,-7.0889,-7.0889,-7.0889,-7.0889,-7.0889,-7.0889,-7.0889,-7.0889,-7.0889,-7.0889,-7.0889,-7.0889,-7.0889,-7.0889,-7.0889,-7.0859,-7.0769,-7.0769,-7.0201,-6.9004,-6.9004,-6.9004,-6.9004,-6.8914,-6.8854,-6.8854,-6.8764,-6.8405,-6.7837,-6.7837,-6.7508,-6.6999,-6.6999,-6.6999,-6.6999,-6.6999,-6.6999,-6.6999,-6.6999,-6.6999,-6.6999,-6.6999,-6.6999,-6.6999,-6.6999,-6.6999,-6.6999,-6.6999,-6.6999,-6.6999,-6.6999,-6.6999,-6.6999,-6.6999,-6.6999,-6.6999,-6.6999,-6.6999,-6.6999,-6.6999,-6.6999,-6.6999,-6.6999,-6.6999,-6.6999,-6.6999,-6.6999,-6.6999,-6.6999,-6.6999,-6.6999,-6.6999,-6.6999,-6.6999,-6.6999,-6.6999,-6.6999,-6.6999,-6.6999,-6.6999,-6.6999,-6.6999,-6.6999,-6.6999,-6.6999,-6.6999,-6.6999,-6.6999,-6.6999,-6.6999,-6.6999,-6.6999,-6.6999,-6.6999,-6.6999,-6.6999,-6.6999,-6.6999,-6.6999,-6.6999,-6.6999,-6.6999,-6.6999,-6.6999,-6.6999,-6.6999,-6.6999,-6.6999,-6.3511,-6.5214,-6.6788,-6.7947,-6.8788,-6.9648,-7.0759,-7.0889,-7.0889,-7.0889,-7.0889,-7.0889,-7.0889,-7.0889,-7.0889,-7.0889,-7.0889,-7.0889,-7.0889,-7.0889,-7.0889,-7.0889,-7.0889,-7.0889,-7.0889,-7.0889,-7.062,-7.0051,-7.0051,-7.0051,-7.0051,-6.9722,-6.9542,-6.9542,-6.9153,-6.8824,-6.8555,-6.8555,-6.8166,-6.7537,-6.7537,-6.7328,-6.6999,-6.6999,-6.6999,-6.6999,-6.6999,-6.6999,-6.6999,-6.6999,-6.6999,-6.6999,-6.6999,-6.6999,-6.6999,-6.6999,-6.6999,-6.6999,-6.6999,-6.6999,-6.6999,-6.6999,-6.6999,-6.6999,-6.6999,-6.6999,-6.6999,-6.6999,-6.6999,-6.6999,-6.6999,-6.6999,-6.6999,-6.6999,-6.6999,-6.6999,-6.6999,-6.6999,-6.6999,-6.6999,-6.6999,-6.6999,-6.6999,-6.6999,-6.6999,-6.6999,-6.6999,-6.6999,-6.6999,-6.6999,-6.6999,-6.6999,-6.6999,-6.6999,-6.6999,-6.6999,-6.6999,-6.6999,-6.6999,-6.6999,-6.6999,-6.6999,-6.6999,-6.6999,-6.6999,-6.6999,-6.6999,-6.6999,-6.6999,-6.6999,-6.6999,-6.6999,-6.6999,-6.6999,-6.6999,-6.6999]}]]